[[{"header":{"parameterUnit":"m.s-1","parameterCategory":1,"la1":30.6,"la2":29.2853,"lo1":-89.7004,"lo2":-87.6739,"dy":0.0162,"dx":0.0183,"nx":112,"ny":82,"refTime":"2024-10-09T06:00:00:Z","depth":0,"parameterNumber":2,"parameterNumberName":"U-component_of_WINDS"},"data":[0.0,0.0,0.0,0.0,0.0,0.0,0.0,0.0,0.0,0.0,0.0,0.0,0.0,0.0,0.0,0.0,0.0,0.0,0.0,0.0,0.0,0.0,0.0,0.0,0.0,0.0,0.0,0.0,0.0,0.0,0.0,0.0,0.0,0.0,0.0,0.0,0.0,0.0,0.0,0.0,0.0,0.0,0.0,0.0,0.0,0.0,0.0,0.0,0.0,0.0,0.0,0.0,0.0,0.0,0.0,0.0,0.0,0.0,0.0,0.0,0.0,0.0,0.0,0.0,0.0,0.0,0.0,0.0,0.0,0.0,0.0,0.0,0.0,0.0,0.0,0.0,0.0,0.0,0.0,0.0,0.0,0.0,0.0,0.0,0.0,0.0,0.0,0.0,0.0,0.0,1.1774,1.2521,1.362,1.4439,1.4763,1.4062,1.3047,1.177,0.0,0.0,0.0,0.0,0.0,0.0,0.0,0.0,0.0,0.0,0.0,0.0,0.0,0.0,0.0,0.0,0.0,0.0,0.0,0.0,0.0,0.0,0.0,0.0,0.0,0.0,0.0,0.0,0.0,0.0,0.0,0.0,0.0,0.0,0.0,0.0,0.0,0.0,0.0,0.0,0.0,0.0,0.0,0.0,0.0,0.0,0.0,0.0,0.0,0.0,0.0,0.0,0.0,0.0,0.0,0.0,0.0,0.0,0.0,0.0,0.0,0.0,0.0,0.0,0.0,0.0,0.0,0.0,0.0,0.0,0.0,0.0,0.0,0.0,0.0,0.0,0.0,0.0,0.0,0.0,0.0,0.0,0.0,0.0,0.0,0.0,0.0,0.0,0.0,0.0,0.0,0.0,0.0,0.0,0.0,0.0,0.0,0.0,0.0,0.0,0.0,0.0,0.0,0.0,1.1881,1.4157,1.4876,1.509,1.4819,1.4313,1.3477,1.219,0.0,0.0,0.0,0.0,0.0,0.0,0.0,0.0,0.0,0.0,0.0,0.0,0.0,0.0,0.0,0.0,0.0,0.0,0.0,0.0,0.0,0.0,0.0,0.0,0.0,0.0,0.0,0.0,0.0,0.0,0.0,0.0,0.0,0.0,0.0,0.0,0.0,0.0,0.0,0.0,0.0,0.0,0.0,0.0,0.0,0.0,0.0,0.0,0.0,0.0,0.0,0.0,0.0,0.0,0.0,0.0,0.0,0.0,0.0,0.0,0.0,0.0,0.0,0.0,0.0,0.0,0.0,0.0,0.0,0.0,0.0,0.0,0.0,0.0,0.0,0.0,0.0,0.0,0.0,0.0,0.0,0.0,0.0,0.0,0.0,0.0,0.0,0.0,0.0,0.0,0.0,0.0,0.0,0.0,0.0,0.0,0.0,0.0,0.0,0.0,0.0,0.0,0.0,1.1542,1.2949,1.4623,1.5156,1.5332,1.5137,1.4498,1.3659,1.264,1.0913,0.0,0.0,0.0,0.0,0.0,0.0,0.0,0.0,0.0,0.0,0.0,0.0,0.0,0.0,0.0,0.0,0.0,0.0,0.0,0.0,0.0,0.0,0.0,0.0,0.0,0.0,0.0,0.0,0.0,0.0,0.0,0.0,0.0,0.0,0.0,0.0,0.0,0.0,0.0,0.0,0.0,0.0,0.0,0.0,0.0,0.0,0.0,0.0,0.0,0.0,0.0,0.0,0.0,0.0,0.0,0.0,0.0,0.0,0.0,0.0,0.0,0.0,0.0,0.0,0.0,0.0,0.0,0.0,0.0,0.0,0.0,0.0,0.0,0.0,0.0,0.0,0.0,0.0,0.0,0.0,0.0,0.0,0.0,0.0,0.0,0.0,0.0,0.0,0.0,0.0,0.0,0.0,0.0,0.0,0.0,0.0,0.0,0.0,0.0,0.0,0.0,0.0,1.3042,1.3984,1.4851,1.5215,1.5396,1.5396,1.4504,1.3659,1.2942,1.0732,0.0,0.0,0.0,0.0,0.0,0.0,0.0,0.0,0.0,0.0,0.0,0.0,0.0,0.0,0.0,0.0,0.0,0.0,0.0,0.0,0.0,0.0,0.0,0.0,0.0,0.0,0.0,0.0,0.0,0.0,0.0,0.0,0.0,0.0,0.0,0.0,0.0,0.0,0.0,0.0,0.0,0.0,0.0,0.0,0.0,0.0,0.0,0.0,0.0,0.0,0.0,0.0,0.0,0.0,0.0,0.0,0.0,0.0,0.0,0.0,0.0,0.0,0.0,0.0,0.0,0.0,0.0,0.0,0.0,0.0,0.0,0.0,0.0,0.0,0.0,0.0,0.0,0.0,0.0,0.0,0.0,0.0,0.0,0.0,0.0,0.0,0.0,0.0,0.0,0.0,0.0,0.0,0.0,0.0,0.0,0.0,0.0,0.0,0.0,0.0,0.0,0.0,1.3289,1.4387,1.5259,1.5376,1.5396,1.5396,1.4261,1.3359,1.2928,1.0469,0.0,0.0,0.0,0.0,0.0,0.0,0.0,0.0,0.0,0.0,0.0,0.0,0.0,0.0,0.0,0.0,0.0,0.0,0.0,0.0,0.0,0.0,0.0,0.0,0.0,0.0,0.0,0.0,0.0,0.0,0.0,0.0,0.0,0.0,0.0,0.0,0.0,0.0,0.0,0.0,0.0,0.0,0.0,0.0,0.0,0.0,0.0,0.0,0.0,0.0,0.0,0.0,0.0,0.0,0.0,0.0,0.0,0.0,0.0,0.0,0.0,0.0,0.0,0.0,0.0,0.0,0.0,0.0,0.0,0.0,0.0,0.0,0.0,0.0,0.0,0.0,0.0,0.0,0.0,0.0,0.0,0.0,0.0,0.0,0.0,0.0,0.0,0.0,0.0,0.0,0.0,0.0,0.0,0.0,0.0,0.0,0.0,0.0,0.0,0.0,0.0,0.0,1.309,1.4156,1.5286,1.5396,1.5396,1.5396,1.4462,1.36,1.2942,0.0,0.0,0.0,0.0,0.0,0.0,0.0,0.0,0.0,0.0,0.0,0.0,0.0,0.0,0.0,0.0,0.0,0.0,0.0,0.0,0.0,0.0,0.0,0.0,0.0,0.0,0.0,0.0,0.0,0.0,0.0,0.0,0.0,0.0,0.0,0.0,0.0,0.0,0.0,0.0,0.0,0.0,0.0,0.0,0.0,0.0,0.0,0.0,0.0,0.0,0.0,0.0,0.0,0.0,0.0,0.0,0.0,0.0,0.0,0.0,0.0,0.0,0.0,0.0,0.0,0.0,0.0,0.0,0.0,0.0,0.0,0.0,0.0,0.0,0.0,0.0,0.0,0.0,0.0,0.0,0.0,0.0,0.0,0.0,0.0,0.0,0.0,0.0,0.0,0.0,0.0,0.0,0.0,0.0,0.0,0.0,0.0,0.0,0.0,0.0,0.0,0.0,1.2205,1.3165,1.4137,1.5286,1.5396,1.5396,1.5396,1.4481,1.3561,1.2731,0.0,0.0,0.0,0.0,0.0,0.0,0.0,0.0,0.0,0.0,0.0,0.0,0.0,0.0,0.0,0.0,0.0,0.0,0.0,0.0,0.0,0.0,0.0,0.0,0.0,0.0,0.0,0.0,0.0,0.0,0.0,0.0,0.0,0.0,0.0,0.0,0.0,0.0,0.0,0.0,0.0,0.0,0.0,0.0,0.0,0.0,0.0,0.0,0.0,0.0,0.0,0.0,0.0,0.0,0.0,0.0,0.0,0.0,0.0,0.0,0.0,0.0,0.0,0.0,0.0,0.0,0.0,0.0,0.0,0.0,0.0,0.0,0.0,0.0,0.0,0.0,0.0,0.0,0.0,0.0,0.0,0.0,0.0,0.0,0.0,0.0,0.0,0.0,0.0,0.0,0.0,0.0,0.0,0.0,0.0,0.0,0.0,0.0,0.0,0.0,0.0,0.0,1.268,1.36,1.4429,1.5315,1.5396,1.5396,1.5396,1.4241,1.3138,0.0,0.0,0.0,0.0,0.0,0.0,0.0,0.0,0.0,0.0,0.0,0.0,0.0,0.0,0.0,0.0,0.0,0.0,0.0,0.0,0.0,0.0,0.0,0.0,0.0,0.0,0.0,0.0,0.0,0.0,0.0,0.0,0.0,0.0,0.0,0.0,0.0,0.0,0.0,0.0,0.0,0.0,0.0,0.0,0.0,0.0,0.0,0.0,0.0,0.0,0.0,0.0,0.0,0.0,0.0,0.0,0.0,0.0,0.0,0.0,0.0,0.0,0.0,0.0,0.0,0.0,0.0,0.0,0.0,0.0,0.0,0.0,0.0,0.0,0.0,0.0,0.0,0.0,0.0,0.0,0.0,0.0,0.0,0.0,0.0,0.0,0.0,0.0,0.0,0.0,0.0,0.0,0.0,0.0,0.0,0.0,0.0,0.0,0.0,0.0,0.0,0.0,0.0,1.268,1.36,1.4429,1.5315,1.5396,1.5396,1.5396,1.4491,1.3574,1.275,0.0,0.0,0.0,0.0,0.0,0.0,0.0,0.0,0.0,0.0,0.0,0.0,0.0,0.0,0.0,0.0,0.0,0.0,0.0,0.0,0.0,0.0,0.0,0.0,0.0,0.0,0.0,0.0,0.0,0.0,0.0,0.0,0.0,0.0,0.0,0.0,0.0,0.0,0.0,0.0,0.0,0.0,0.0,0.0,0.0,0.0,0.0,0.0,0.0,0.0,0.0,0.0,0.0,0.0,0.0,0.0,0.0,0.0,0.0,0.0,0.0,0.0,0.0,0.0,0.0,0.0,0.0,0.0,0.0,0.0,0.0,0.0,0.0,0.0,0.0,0.0,0.0,0.0,0.0,0.0,0.0,0.0,0.0,0.0,0.0,0.0,0.0,0.0,0.0,0.0,0.0,0.0,0.0,0.0,0.0,0.0,0.0,0.0,0.0,0.0,0.0,0.0,1.268,1.36,1.4429,1.5315,1.5396,1.5396,1.5396,1.4601,1.3766,1.2948,0.0,0.0,0.0,0.0,0.0,0.0,0.0,0.0,0.0,0.0,0.0,0.0,0.0,0.0,0.0,0.0,0.0,0.0,0.0,0.0,0.0,0.0,0.0,0.0,0.0,0.0,0.0,0.0,0.0,0.0,0.0,0.0,0.0,0.0,0.0,0.0,0.0,0.0,0.0,0.0,0.0,0.0,0.0,0.0,0.0,0.0,0.0,0.0,0.0,0.0,0.0,0.0,0.0,0.0,0.0,0.0,0.0,0.0,0.0,0.0,0.0,0.0,0.0,0.0,0.0,0.0,0.0,0.0,0.0,0.0,0.0,0.0,0.0,0.0,0.0,0.0,0.0,0.0,0.0,0.0,0.0,0.0,0.0,0.0,0.0,0.0,0.0,0.0,0.0,0.0,0.0,0.0,0.0,0.0,0.0,0.0,0.0,0.0,0.0,0.0,0.0,0.0,1.2684,1.3639,1.4475,1.5308,1.5396,1.5396,1.5396,1.4637,1.3825,1.301,0.0,0.0,0.0,0.0,0.0,0.0,0.0,0.0,0.0,0.0,0.0,0.0,0.0,0.0,0.0,0.0,0.0,0.0,0.0,0.0,0.0,0.0,0.0,0.0,0.0,0.0,0.0,0.0,0.0,0.0,0.0,0.0,0.0,0.0,0.0,0.0,0.0,0.0,0.0,0.0,0.0,0.0,0.0,0.0,0.0,0.0,0.0,0.0,0.0,0.0,0.0,0.0,0.0,0.0,0.0,0.0,0.0,0.0,0.0,0.0,1.2055,1.1571,0.0,0.0,0.0,0.0,0.0,0.0,0.0,0.0,0.0,0.0,0.0,0.0,0.0,0.0,0.0,0.0,0.0,0.0,0.0,0.0,0.0,0.0,0.0,0.0,0.0,0.0,0.0,0.0,0.0,0.0,0.0,0.0,0.0,0.0,0.0,0.0,0.0,0.0,0.0,0.0,1.2723,1.3923,1.4844,1.5344,1.5396,1.5396,1.5396,1.4941,1.4287,1.3428,1.2424,0.0,0.0,0.0,0.0,0.0,0.0,0.0,0.0,0.0,0.0,0.0,0.0,0.0,0.0,0.0,0.0,0.0,0.0,0.0,0.0,0.0,0.0,0.0,0.0,0.0,0.0,0.0,0.0,0.0,0.0,0.0,0.0,0.0,0.0,0.0,0.0,0.0,0.0,0.0,0.0,0.0,0.0,0.0,0.0,0.0,0.0,0.0,0.0,0.0,0.0,0.0,0.0,0.0,0.0,0.0,0.0,0.0,0.0,0.0,1.4376,1.3562,0.0,0.0,0.0,0.0,0.0,0.0,0.0,0.0,0.0,0.0,0.0,0.0,0.0,0.0,0.0,0.0,0.0,0.0,0.0,0.0,0.0,0.0,0.0,0.0,0.0,0.0,0.0,0.0,0.0,0.0,0.0,0.0,0.0,0.0,0.0,0.0,0.0,0.0,0.0,0.0,1.3024,1.4134,1.4948,1.5364,1.5396,1.5396,1.5396,1.5036,1.4613,1.415,1.3016,0.0,0.0,0.0,0.0,0.0,0.0,0.0,0.0,0.0,0.0,0.0,0.0,0.0,0.0,0.0,0.0,0.0,0.0,0.0,0.0,0.0,0.0,0.0,0.0,0.0,0.0,0.0,0.0,0.0,0.0,0.0,0.0,0.0,0.0,0.0,0.0,0.0,0.0,0.0,0.0,0.0,0.0,0.0,0.0,0.0,0.0,0.0,0.0,0.0,0.0,0.0,0.0,0.0,1.7941,1.7734,1.7814,1.7814,1.8304,1.9008,1.6746,1.5784,1.5712,1.4467,0.0,0.0,0.0,0.0,0.0,0.0,0.0,0.0,0.0,0.0,0.0,0.0,0.0,0.0,0.0,0.0,0.0,0.0,0.0,0.0,0.0,0.0,1.6115,1.64,1.7066,1.6863,1.4104,0.0,0.0,0.0,0.0,0.0,0.0,0.0,0.0,0.0,0.0,0.0,1.3444,1.444,1.5173,1.5581,1.563,1.563,1.563,1.5261,1.4985,1.4916,1.3592,1.2553,0.0,0.0,0.0,0.0,0.0,0.0,0.0,0.0,0.0,0.0,0.0,0.0,0.0,0.0,0.0,0.0,0.0,0.0,0.0,0.0,0.0,0.0,0.0,0.0,0.0,0.0,0.0,0.0,0.0,0.0,0.0,0.0,1.2352,1.3688,0.0,0.0,0.0,0.0,0.0,0.0,0.0,0.0,0.0,0.0,0.0,0.0,0.0,1.3695,1.5184,1.8261,1.9729,1.9585,1.8587,1.8606,1.9484,1.9484,1.956,1.9666,1.9309,0.0,1.8127,1.6683,0.0,0.0,0.0,0.0,0.0,0.0,0.0,0.0,0.0,0.0,0.0,0.0,0.0,0.0,0.0,0.0,0.0,0.0,0.0,0.0,0.0,0.0,1.7672,1.7257,1.7265,1.7232,1.6791,1.5293,1.3655,1.2394,1.1745,1.111,0.0,0.0,0.0,0.0,0.0,0.0,1.3909,1.5134,1.608,1.649,1.6531,1.6531,1.6531,1.616,1.5747,1.5344,1.5269,1.464,1.33,1.381,0.0,0.0,0.0,0.0,0.0,0.0,0.0,0.0,0.0,0.0,0.0,0.0,0.0,0.0,0.0,0.0,0.0,0.0,0.0,0.0,0.0,0.0,0.0,0.0,0.0,0.0,0.0,0.0,0.0,1.236,1.4182,1.5488,1.5253,1.4762,0.0,0.0,0.0,0.0,0.0,0.0,0.0,0.0,0.0,1.5585,1.5234,1.6708,2.0174,2.1164,2.1648,2.1635,2.0577,2.0295,2.0784,2.1386,2.1648,2.1685,2.2332,2.2433,2.1931,1.9397,1.7309,1.566,0.0,0.0,0.0,0.0,1.5991,1.6273,1.6484,1.6409,1.6083,1.511,0.0,0.0,0.0,0.0,0.0,0.0,0.0,1.5256,1.6203,1.7597,1.877,1.8761,1.8961,1.9078,1.882,1.7456,1.5876,1.4482,1.4082,1.3415,1.167,1.1593,0.0,0.0,0.0,1.4271,1.5122,1.5937,1.6498,1.6677,1.6697,1.6697,1.6697,1.6537,1.6563,1.6836,1.6723,1.643,1.5938,1.576,1.4917,0.0,0.0,0.0,0.0,0.0,0.0,0.0,0.0,0.0,0.0,0.0,0.0,0.0,0.0,0.0,0.0,0.0,0.0,0.0,0.0,0.0,0.0,0.0,0.0,0.0,0.0,0.0,0.0,1.4274,1.6017,1.7313,1.7088,1.6598,0.0,0.0,0.0,0.0,0.0,0.0,1.5922,1.6979,1.8092,1.9227,1.8292,1.9491,2.307,2.31,2.31,2.3088,2.2282,2.2216,2.2808,2.3615,2.3976,2.3959,2.3806,2.4008,2.4295,2.2018,1.9817,1.7892,1.7943,1.7313,1.6574,1.8205,1.8711,1.8596,1.8743,1.87,1.8361,1.7031,1.6116,1.5495,1.5291,0.0,0.0,0.0,0.0,1.6288,1.7244,1.8386,1.9385,1.968,2.001,2.0174,1.9825,1.8997,1.7858,1.6274,1.5951,1.5331,1.3363,1.3311,0.0,1.3542,1.4447,1.5403,1.6165,1.6621,1.6927,1.7027,1.7036,1.7036,1.7036,1.6939,1.7155,1.7812,1.7654,1.7646,1.7839,1.7491,1.6762,1.5621,0.0,0.0,0.0,0.0,0.0,0.0,0.0,0.0,0.0,0.0,0.0,0.0,0.0,0.0,0.0,0.0,0.0,0.0,0.0,0.0,0.0,0.0,0.0,0.0,0.0,0.0,0.0,0.0,0.0,1.9384,2.0072,0.0,0.0,0.0,0.0,1.641,1.7364,1.8236,1.8776,1.9874,2.0583,2.0787,2.1097,2.1838,2.3095,2.31,2.31,2.31,2.3045,2.4147,2.6248,2.6298,2.6332,2.6114,2.242,2.1863,2.3623,2.4282,2.3384,2.1468,1.984,1.913,1.9112,1.9906,1.984,1.9423,1.9928,1.9778,1.937,1.9525,1.879,1.7892,1.819,1.7478,0.0,0.0,1.8112,1.814,1.9346,1.9469,1.931,1.933,1.9349,1.9359,1.934,1.9284,1.872,1.6997,1.6351,1.5915,1.5339,0.0,1.5269,1.5269,1.5708,1.6195,1.6625,1.708,1.7508,1.7892,1.7932,1.7932,1.7932,1.7578,1.7376,1.7426,1.7767,1.7981,1.7991,1.8933,1.8906,1.7767,1.6792,0.0,0.0,0.0,0.0,0.0,0.0,0.0,0.0,0.0,0.0,0.0,0.0,0.0,0.0,0.0,0.0,0.0,0.0,0.0,0.0,0.0,0.0,0.0,0.0,0.0,0.0,0.0,0.0,2.1425,2.1462,0.0,2.0207,1.9558,1.9043,1.8655,1.9359,2.0037,2.0577,2.1649,2.2433,2.2884,2.2659,2.3073,2.4181,2.4921,2.5288,2.5288,2.5288,2.5035,2.4603,2.5917,2.5791,2.4505,2.3533,2.3008,2.2912,2.3656,2.3551,2.2865,2.2194,2.1402,2.0665,2.1155,2.1187,2.0955,2.0597,2.033,2.0052,1.9276,1.8735,1.8405,1.8522,1.8468,1.846,1.8885,1.9119,1.9322,1.9751,1.9999,2.0146,2.0146,2.0146,2.0146,2.0146,1.9902,1.9502,1.8879,1.8186,1.757,1.715,1.7064,1.7064,1.7064,1.7433,1.7872,1.832,1.8524,1.868,1.8818,1.8575,1.8392,1.8392,1.8019,1.8025,1.8594,1.8756,1.9178,1.9905,1.9965,1.9717,1.9133,1.8123,1.6509,0.0,0.0,0.0,0.0,0.0,0.0,0.0,0.0,0.0,0.0,0.0,0.0,0.0,0.0,0.0,0.0,0.0,0.0,0.0,0.0,0.0,0.0,0.0,0.0,0.0,1.9435,2.1192,2.2476,2.2641,2.2459,2.1951,2.1335,2.1052,2.1213,2.1595,2.2054,2.2585,2.3286,2.3855,2.426,2.4001,2.4235,2.4996,2.6,2.6164,2.549,2.549,2.4794,2.3523,2.4196,2.4015,2.3167,2.3174,2.3045,2.2852,2.2952,2.299,2.2992,2.2943,2.2194,2.1162,2.1381,2.1458,2.1388,2.0801,2.0601,2.0449,1.9567,1.9376,1.9475,1.9475,1.9796,2.0175,2.0175,2.0371,2.0566,2.0566,2.0684,2.0801,2.0801,2.0693,2.0605,2.0605,2.0361,2.0146,2.0146,1.9434,1.8752,1.8478,1.8437,1.8437,1.8437,1.8673,1.8956,1.9257,1.9296,1.9296,1.9296,1.9014,1.8772,1.8617,1.8235,1.8284,1.8991,1.9163,1.9598,2.0426,2.0399,2.0098,1.9541,1.848,1.7017,1.516,0.0,0.0,0.0,0.0,0.0,0.0,0.0,0.0,0.0,0.0,0.0,0.0,0.0,0.0,0.0,0.0,0.0,0.0,0.0,0.0,0.0,0.0,0.0,1.9793,2.152,2.2752,2.2635,2.376,2.3983,2.2549,2.2977,2.3541,2.3988,2.4017,2.426,2.4804,2.4821,2.4833,2.4846,2.5238,2.5431,2.5431,2.6113,2.5474,2.3557,2.3486,2.3467,2.3431,2.1559,2.1359,2.2411,2.1215,2.174,2.3366,2.2399,2.1993,2.1983,2.2,2.1433,2.0615,2.0615,2.0635,2.0644,2.0644,2.0644,2.0644,2.0644,2.0898,2.122,2.122,2.1543,2.1895,2.1895,2.1895,2.1895,2.1895,2.1562,2.122,2.122,2.0918,2.0644,2.0644,2.0644,2.0644,2.0644,1.996,1.9374,1.9354,1.9335,1.9335,1.9335,1.9335,0.0,1.9335,1.9335,1.9335,1.9335,1.9325,1.9132,1.8676,1.8264,1.8151,1.8461,1.8866,1.9186,1.9415,2.0225,2.0162,1.907,1.7996,1.6902,1.5779,0.0,0.0,0.0,0.0,0.0,0.0,0.0,0.0,0.0,0.0,0.0,0.0,0.0,0.0,0.0,0.0,0.0,0.0,0.0,0.0,0.0,2.0552,2.1884,2.1884,2.3576,2.4917,2.5217,2.554,2.5525,2.4956,2.4587,2.4444,2.4569,2.4578,2.4804,2.5352,2.5385,2.5573,2.6026,2.6135,2.6206,2.6206,2.558,2.5138,2.4864,2.3147,2.27,2.3348,2.3295,2.2836,2.208,2.241,2.247,2.2321,2.204,2.178,2.159,2.1892,2.1597,2.1045,2.1045,2.125,2.1544,2.1544,2.1544,2.1544,2.1544,2.1621,2.1709,2.1709,2.1797,2.1895,2.1895,2.1895,2.1895,2.1895,2.1797,2.1709,2.1709,2.1621,2.1544,2.1544,2.1544,2.1544,2.1544,2.1348,2.0977,2.0351,2.0243,2.0243,2.0243,2.0243,2.0243,2.0243,2.0243,2.0243,2.0243,1.9941,1.9679,1.9552,1.886,1.835,1.8144,1.8463,1.9002,1.9723,2.0128,2.0301,2.0232,1.9127,1.8217,0.0,0.0,0.0,0.0,0.0,0.0,0.0,0.0,0.0,0.0,0.0,0.0,0.0,0.0,0.0,0.0,0.0,0.0,0.0,0.0,0.0,0.0,2.2868,2.4302,2.4214,2.5178,2.6086,2.6615,2.6311,2.6001,2.5793,2.5398,2.5239,2.5485,2.5511,2.5745,2.6285,2.631,2.6582,2.7148,2.7173,2.7173,2.7173,2.6073,2.5415,2.5213,2.3369,2.2574,2.2727,2.3115,2.2787,2.1926,2.2472,2.2625,2.2462,2.2061,2.2024,2.2181,0.0,0.0,0.0,0.0,2.167,2.1895,2.1895,2.1895,2.1895,2.1895,2.2012,2.2148,2.2148,2.2275,2.2401,2.2401,2.2401,2.2401,2.2401,2.2275,2.2148,2.2148,2.2022,2.1895,2.1895,2.1895,2.1895,2.1895,2.1895,0.0,2.1231,2.1133,2.1133,2.1133,2.1133,2.1075,2.0879,2.085,2.0791,2.0615,2.0361,2.0117,1.9922,1.9104,0.0,0.0,0.0,1.9197,2.0194,2.0099,0.0,0.0,0.0,0.0,0.0,0.0,0.0,0.0,1.8417,1.8448,0.0,0.0,0.0,0.0,0.0,0.0,0.0,0.0,0.0,0.0,0.0,0.0,0.0,0.0,0.0,0.0,2.5123,2.6705,2.6763,2.6534,2.6539,2.7084,2.6453,2.5909,2.5719,2.5695,2.5954,2.6558,2.6587,2.6817,2.7352,2.7386,0.0,0.0,0.0,2.8033,2.7923,2.6907,2.5891,2.4867,2.379,2.2849,2.2042,2.2042,2.2042,2.2042,2.2042,2.2509,2.3216,2.2385,2.253,2.3195,2.2305,2.211,2.2296,2.211,2.2042,2.2042,2.2042,0.0,0.0,2.2042,2.2275,2.2567,2.2567,2.282,2.3091,2.3091,2.3091,2.3091,2.3091,2.284,2.2567,2.2567,2.2295,2.2042,2.2042,2.2042,2.2042,2.2042,2.2042,2.2042,2.2042,2.1963,2.1895,2.1895,2.1895,2.1758,2.1327,2.1278,2.1142,2.0781,2.0693,0.0,2.0088,1.925,1.8855,1.9109,1.9273,1.9826,2.0856,2.0562,2.0583,2.1056,2.1595,2.2116,2.2583,2.3665,2.425,2.4301,2.1134,2.0488,0.0,0.0,0.0,0.0,0.0,0.0,0.0,0.0,0.0,0.0,0.0,0.0,0.0,0.0,0.0,2.5611,2.6581,2.776,2.9449,2.7926,2.6669,2.6778,2.6651,2.6491,2.6337,2.6336,2.6541,2.7097,2.7157,2.7386,2.7921,2.7946,2.7987,2.81,2.81,2.7681,2.6821,2.6123,2.5237,2.4185,2.3473,0.0,2.2869,2.2869,2.2869,2.2869,2.2869,2.2967,2.3119,2.2945,2.2967,2.3089,2.2583,2.2422,2.2489,2.2771,2.2869,2.2869,2.2869,2.2869,2.2869,2.2869,2.2917,2.2985,2.2985,2.3043,0.0,2.3091,2.3091,2.3091,2.3091,2.3043,2.2985,2.2985,2.2926,2.2869,2.2869,2.2869,2.2869,2.2869,2.2869,2.2869,2.2869,2.2323,2.1895,2.1895,2.1895,2.1866,2.1788,2.1758,2.1728,2.1661,2.1318,2.1054,2.0957,2.0157,1.9538,1.9277,2.0335,2.1316,2.2122,2.323,2.3675,2.3371,2.3883,2.4214,2.4327,2.4963,2.5757,2.6611,2.4611,2.4076,0.0,0.0,0.0,0.0,0.0,0.0,0.0,0.0,0.0,0.0,0.0,2.1969,2.2976,0.0,2.6437,2.7446,2.8328,2.898,2.9225,2.8447,2.7848,2.7848,2.7108,2.6684,2.6886,2.6893,2.7123,2.7666,2.7704,2.7934,2.8467,2.8493,2.864,2.8938,2.8399,2.7837,2.7306,2.5896,2.493,2.4388,2.3527,2.3091,2.3091,2.3091,2.3091,2.3091,2.3091,2.3091,2.3091,2.3091,2.3091,2.3082,2.2888,2.2801,2.2819,2.3024,2.3091,2.3091,2.3091,2.3091,2.3091,2.3091,2.3091,2.3091,2.3091,2.3091,2.3091,2.3091,2.3091,2.3091,2.3091,2.3091,2.3091,2.3091,2.3091,2.3091,2.3091,2.3091,2.3091,2.3091,2.3091,2.3091,2.3091,2.2771,2.2499,2.2499,2.2499,2.2431,2.2227,2.2197,2.2119,2.1915,2.1689,2.1552,2.1552,2.0937,2.0573,2.0606,2.1765,2.281,2.3617,2.4944,2.5519,2.5259,2.5783,2.605,2.605,2.659,2.7281,2.8075,2.7238,2.6849,0.0,0.0,0.0,0.0,0.0,0.0,0.0,1.8807,2.0234,2.1565,2.3305,2.4891,2.5977,2.7273,2.8342,2.8876,2.9669,2.9799,2.8608,2.8494,2.8572,2.8732,2.7513,2.6839,2.7261,2.739,2.7679,2.8222,2.8251,2.8502,2.9045,2.907,2.9305,2.9789,2.8698,2.8006,2.7783,2.5807,2.4681,2.4457,2.354,2.3091,2.3091,2.3091,2.3091,2.3091,2.3091,2.3091,2.3091,2.3091,2.3091,2.3091,2.3091,2.3091,2.3091,2.3091,2.3091,2.3091,2.3091,2.3091,2.3091,2.3091,2.3091,2.3091,2.3091,2.3091,2.3091,2.3091,2.3091,2.3091,2.3091,2.3091,2.3091,2.3091,2.3091,2.3091,2.3091,2.3091,2.3091,2.3091,2.3091,2.3091,2.3091,2.3091,2.3091,2.3091,2.3091,2.2985,2.2654,2.2626,2.2499,2.2168,2.206,2.1973,2.1915,2.1552,2.1501,2.1882,2.2879,2.3776,2.4478,2.5588,2.6172,2.6172,2.691,2.7303,2.7303,2.8068,2.8652,2.9073,2.8849,2.8631,1.4709,1.4664,1.5553,1.8106,1.8598,1.9383,0.0,2.3783,2.4321,2.5659,2.7051,2.8083,2.8248,2.931,3.0193,3.0283,2.9656,2.9375,2.9957,2.8166,2.7049,2.7761,2.7468,2.7236,2.7286,2.772,2.8238,2.8772,2.8809,2.907,2.9666,2.9691,2.9739,2.9801,2.8698,2.7643,2.6688,2.5431,2.4296,2.3298,2.3157,2.3091,2.3091,2.3091,2.3091,2.3091,2.3091,2.3091,2.3091,2.3091,2.3091,2.3091,2.3091,2.3091,2.3091,2.3091,2.3091,2.3091,2.3091,2.3091,2.3091,2.3091,2.3091,2.3091,2.3091,2.3091,2.3091,2.3091,2.3091,2.3091,2.3091,2.3091,2.3091,2.3091,2.3091,2.3091,2.3091,2.3091,2.3091,2.3091,2.3091,2.3091,2.3091,2.3091,2.3091,2.3091,2.3091,2.3081,2.3043,2.3023,2.3024,2.2965,2.2645,2.2295,2.1934,2.1846,2.1838,2.1902,2.2786,2.3364,2.3463,2.4455,2.4988,2.4988,2.6505,2.7299,2.7299,2.8849,2.9638,2.9672,2.866,2.8694,1.7094,1.7816,1.8712,1.9382,2.0756,2.2333,2.3752,2.4858,2.5856,2.682,2.8452,2.9404,2.8433,2.9414,3.0228,2.9716,2.9267,2.8955,2.8812,2.7863,2.7145,2.7023,2.7173,2.7424,2.7742,2.7971,2.8464,2.9355,2.9418,2.9528,2.9789,2.9801,2.9801,2.9801,2.8698,2.7572,2.6503,2.5368,2.4232,2.3091,2.3091,2.3091,2.3091,2.3091,2.3091,2.3091,2.3091,2.3091,2.3091,2.3091,2.3091,2.3091,2.3091,2.3091,2.3091,2.3091,2.3091,2.3091,2.3091,2.3091,2.3091,2.3091,2.3091,2.3091,2.3091,2.3091,2.3091,2.3091,2.3091,2.3091,2.3091,2.3091,2.3091,2.3091,2.3091,2.3091,2.3091,2.3091,2.3091,2.3091,2.3091,2.3091,2.3091,2.3091,2.3091,2.3091,2.3091,2.3091,2.3091,2.3091,2.3091,2.3091,2.2946,2.278,2.2606,2.2606,2.2606,2.2606,2.3595,2.4168,2.4168,2.5217,2.6086,2.6711,2.7408,2.8092,2.8764,2.946,2.9801,2.9792,2.9317,2.8986,1.8714,2.0034,2.1033,2.0798,2.281,2.4761,2.4403,2.5594,2.6904,2.7393,2.9079,2.9995,2.854,2.9378,3.0011,2.9144,2.8919,2.8587,2.7807,2.764,2.7326,2.6598,2.6842,2.7286,2.7821,2.815,2.8728,2.9726,2.9801,2.9801,2.9801,2.9801,2.9801,2.9801,2.8408,2.729,2.6503,2.5062,2.392,2.3091,2.3091,2.3091,2.3091,2.3091,2.3091,2.3091,2.3091,2.3091,2.3091,2.3091,2.3091,2.3091,2.3091,2.3091,2.3091,2.3091,2.3091,2.3091,2.3091,2.3091,2.3091,2.3091,2.3091,2.3091,2.3091,2.3091,2.3091,2.3091,2.3091,2.3091,2.3091,2.3091,2.3091,2.3091,2.3091,2.3091,2.3091,2.3091,2.3091,2.3091,2.3091,2.3091,2.3091,2.3091,2.3091,2.3091,2.3091,2.3091,2.3091,2.3091,2.3091,2.3091,2.3091,2.3091,2.3091,2.3091,2.3091,2.3091,2.3866,2.4339,2.4339,2.5115,2.6078,2.7176,2.7501,2.8207,2.9336,2.9653,2.9643,2.9326,2.903,2.8514,1.8714,2.0034,2.1419,2.2764,2.468,2.6199,2.5976,2.6976,2.7953,2.7967,2.9216,3.0028,2.9132,2.9705,3.0011,2.9144,2.8732,2.8326,2.7782,2.7477,2.7107,2.6558,2.6512,2.6738,2.7273,2.8276,2.9132,2.9741,2.9801,2.9801,2.9801,2.9801,2.9801,2.9801,2.7688,2.6535,2.6504,2.4264,2.3124,2.3091,2.3091,2.3091,2.3091,2.3091,2.3091,2.3091,2.3091,2.3091,2.3091,2.3091,2.3091,2.3091,2.3091,2.3091,2.3091,2.3091,2.3091,2.3091,2.3091,2.3091,2.3091,2.3091,2.3091,2.3091,2.3091,2.3091,2.3091,2.3091,2.3091,2.3091,2.3091,2.3091,2.3091,2.3091,2.3091,2.3091,2.3091,2.3091,2.3091,2.3091,2.3091,2.3091,2.3091,2.3091,2.3091,2.3091,2.3091,2.3091,2.3091,2.3091,2.3091,2.3091,2.3091,2.3091,2.3091,2.3091,2.3091,2.3091,2.3124,2.3146,2.3146,2.3178,2.3735,2.4883,2.5996,2.7077,2.8144,2.9255,2.9226,2.8126,2.7077,2.6792,1.973,2.1347,2.2798,2.3554,2.5155,2.6569,2.6591,2.7678,2.8502,2.7913,2.8827,2.9099,2.7105,2.7464,2.7766,2.6883,2.7275,2.7527,2.6973,2.7446,2.7503,2.6608,2.6805,2.7106,2.7286,2.7629,2.8222,2.9132,2.9195,2.938,2.9789,2.9801,2.9801,2.9801,2.8339,2.7229,2.6503,2.4988,2.3854,2.3091,2.3091,2.3091,2.3091,2.3091,2.3091,2.3091,2.3091,2.3091,2.3091,2.3091,2.3091,2.3091,2.3091,2.3091,2.3091,2.3091,2.3091,2.3091,2.3091,2.3091,2.3091,2.3091,2.3091,2.3091,2.3091,2.3091,2.3091,2.3091,2.3091,2.3091,2.3091,2.3091,2.3091,2.3091,2.3091,2.3091,2.3091,2.3091,2.3091,2.3091,2.3091,2.3091,2.3091,2.3091,2.3091,2.3091,2.3091,2.3091,2.3091,2.3091,2.3091,2.3091,2.3091,2.3091,2.3091,2.3091,2.3091,2.3091,2.3091,2.3091,2.3091,2.3091,2.3648,2.4776,2.5178,2.5922,2.7036,2.7424,2.7557,2.7433,2.7068,2.6733,2.0816,2.263,2.4133,2.4472,2.5814,2.6993,2.6804,2.7464,2.7887,2.711,2.7623,2.7563,2.5414,2.5554,2.5848,2.5386,2.6268,2.6955,2.6813,2.7717,2.805,2.7173,2.7386,2.7591,2.7591,2.7591,2.7946,2.8834,2.9095,2.9393,2.9789,2.9801,2.9801,2.9801,2.8319,2.7199,2.6503,2.4967,2.3822,2.3091,2.3091,2.3091,2.3091,2.3091,2.3091,2.3091,2.3091,2.3091,2.3091,2.3091,2.3091,2.3091,2.3091,2.3091,2.3091,2.3091,2.3091,2.3091,2.3091,2.3091,2.3091,2.3091,2.3091,2.3091,2.3091,2.3091,2.3091,2.3091,2.3091,2.3091,2.3091,2.3091,2.3091,2.3091,2.3091,2.3091,2.3091,2.3091,2.3091,2.3091,2.3091,2.3091,2.3091,2.3091,2.3091,2.3091,2.3091,2.3091,2.3091,2.3091,2.3091,2.3091,2.3091,2.3091,2.3091,2.3091,2.3091,2.3091,2.3091,2.3091,2.3091,2.3091,2.3648,2.4776,2.4944,2.5583,2.6709,2.6867,2.6858,2.6748,2.6748,2.6372,2.1931,2.3774,2.5284,2.5561,2.665,2.7442,2.6675,2.6517,2.6324,2.5653,2.5766,2.5535,2.4107,2.4109,2.4424,2.4676,2.5757,2.6751,2.7236,2.8251,2.8743,2.8172,2.8125,2.8125,2.81,2.8125,2.8351,2.886,2.9431,2.9776,2.9801,2.9801,2.9772,2.9702,2.7617,2.6473,2.641,2.421,2.3091,2.3091,2.3091,2.3091,2.3091,2.3091,2.3091,2.3091,2.3091,2.3091,2.3091,2.3091,2.3091,2.3091,2.3091,2.3091,2.3091,2.3091,2.3091,2.3091,2.3091,2.3091,2.3091,2.3091,2.3091,2.3091,2.3091,2.3091,2.3091,2.3091,2.3091,2.3091,2.3091,2.3091,2.3091,2.3091,2.3091,2.3091,2.3091,2.3091,2.3091,2.3091,2.3091,2.3091,2.3091,2.3091,2.3091,2.3091,2.3091,2.3091,2.3091,2.3091,2.3091,2.3091,2.3091,2.3091,2.3091,2.3091,2.3091,2.3091,2.3091,2.3091,2.3091,2.312,2.3635,2.4733,2.5139,2.587,2.6957,2.7336,2.7018,2.6044,2.6044,2.5722,2.3226,2.4509,2.5622,2.6135,2.6544,2.6748,2.6547,2.6652,2.6343,2.4738,2.4312,2.3695,2.1878,2.2573,2.3441,2.3522,2.587,2.7604,2.7336,2.8608,2.9192,2.8222,2.8442,2.8543,2.8138,2.8455,2.8747,2.8897,2.9035,2.933,2.9776,2.9801,2.9404,2.8557,2.7209,2.6099,2.5242,2.3811,2.3091,2.3091,2.3091,2.3091,2.3091,2.3091,2.3091,2.3091,2.3091,2.3091,2.3091,2.3091,2.3091,2.3091,2.3091,2.3091,2.3091,2.3091,2.3091,2.3091,2.3091,2.3091,2.3091,2.3091,2.3091,2.3091,2.3091,2.3091,2.3091,2.3091,2.3091,2.3091,2.3091,2.3091,2.3091,2.3091,2.3091,2.3091,2.3091,2.3091,2.3091,2.3091,2.3091,2.3091,2.3091,2.3091,2.3091,2.3091,2.3091,2.3091,2.3091,2.3091,2.3091,2.3091,2.3091,2.3091,2.3091,2.3091,2.3091,2.3091,2.3091,2.3091,2.3091,2.3446,2.3758,2.4048,2.4453,2.4798,2.5094,2.5194,2.5278,2.535,2.535,2.5411,2.4406,2.533,2.6076,2.6411,2.6508,2.6311,2.5573,2.5527,2.5032,2.298,2.2217,2.1534,2.0204,2.0884,2.1886,2.2639,2.5143,2.7155,2.7591,2.8897,2.9553,2.8925,2.9104,2.918,2.8875,2.9117,2.9283,2.9283,2.9283,2.9443,2.9789,2.9801,2.9505,2.8878,2.7322,2.5714,2.407,2.342,2.3091,2.3091,2.3091,2.3091,2.3091,2.3091,2.3091,2.3091,2.3091,2.3091,2.3091,2.3091,2.3091,2.3091,2.3091,2.3091,2.3091,2.3091,2.3091,2.3091,2.3091,2.3091,2.3091,2.3091,2.3091,2.3091,2.3091,2.3091,2.3091,2.3091,2.3091,2.3091,2.3091,2.3091,2.3091,2.3091,2.3091,2.3091,2.3091,2.3091,2.3091,2.3091,2.3091,2.3091,2.3091,2.3268,2.3417,2.3417,2.3417,2.3417,2.3417,2.3229,2.3091,2.3091,2.3091,2.3091,2.3091,2.3091,2.3091,2.3091,2.3298,2.3417,2.3417,2.3827,2.4062,2.4062,2.4482,2.4709,2.4709,2.4879,2.5115,2.5361,2.5361,2.5486,2.5435,2.6101,2.6508,2.6508,2.6445,2.5963,2.4363,2.3879,2.3158,2.0923,2.0,1.9403,1.8782,1.9284,2.0326,2.1925,2.4117,2.6197,2.7862,2.9013,2.9704,2.9789,2.9801,2.9801,2.9801,2.9801,2.9801,2.9801,2.9801,2.9801,2.9801,2.9801,2.9663,2.9368,2.721,2.5105,2.3113,2.3091,2.3091,2.3091,2.3091,2.3091,2.3091,2.3091,2.3091,2.3091,2.3091,2.3091,2.3091,2.3091,2.3091,2.3091,2.3091,2.3091,2.3091,2.3091,2.3091,2.3091,2.3091,2.3091,2.3091,2.3091,2.3091,2.3091,2.3091,2.3091,2.3091,2.3091,2.3091,2.3091,2.3091,2.3091,2.3121,2.318,2.319,2.3209,2.3258,2.3229,2.3209,2.3258,2.3229,2.3209,2.3257,2.3612,2.3877,2.3877,2.3877,2.3877,2.3877,2.3425,2.312,2.319,2.319,2.3208,2.3268,2.3277,2.3277,2.3277,2.3651,2.3877,2.3877,2.4277,2.449,2.449,2.4943,2.518,2.518,2.5535,2.5706,2.5706,2.5706,2.5725,2.6164,2.6411,2.6508,2.6508,2.6135,2.5444,2.4268,2.3268,2.1976,1.9741,1.8857,1.816,1.712,1.8493,2.02,2.1437,2.3874,2.6197,2.7862,2.8643,2.9233,2.9739,2.9801,2.9801,2.9801,2.9801,2.9801,2.9801,2.9801,2.9801,2.9801,2.9801,2.8961,2.7129,2.4872,2.3506,2.3091,2.3091,2.3091,2.3091,2.3091,2.3091,2.3091,2.3091,2.3091,2.3091,2.3091,2.3091,2.3091,2.3091,2.3091,2.3091,2.3091,2.3091,2.3091,2.3091,2.3091,2.3091,2.3091,2.3091,2.3091,2.3091,2.3091,2.3091,2.3091,2.3091,2.3091,2.3091,2.3091,2.3091,2.3091,2.3091,2.3199,2.3594,2.3682,2.3769,2.4098,2.3914,2.3779,2.4108,2.3905,2.3789,2.4119,2.4246,2.4295,2.4295,2.4295,2.4295,2.4295,2.3601,2.3249,2.3633,2.3682,2.3807,2.4147,2.4176,2.4176,2.4176,2.4256,2.4295,2.4295,2.4738,2.4975,2.4975,2.54,2.5601,2.5601,2.5679,2.5706,2.5706,2.5706,2.5913,2.6336,2.6508,2.6508,2.6508,2.5841,2.4749,2.3075,2.182,2.0363,1.8161,1.7496,1.7151,1.6606,1.7853,1.9334,2.0445,2.2447,2.4677,2.6947,2.772,2.8499,2.9654,2.9801,2.9801,2.9801,2.9801,2.9801,2.9801,2.9801,2.9801,2.9801,2.9236,2.7907,2.5693,2.4542,2.3692,2.3112,2.3091,2.3091,2.3091,2.3091,2.3091,2.3091,2.3091,2.3091,2.3091,2.3091,2.3091,2.3091,2.3091,2.3091,2.3091,2.3091,2.3091,2.3091,2.3091,2.3091,2.3091,2.3091,2.3091,2.3091,2.3091,2.3091,2.3091,2.3091,2.3268,2.3465,2.3465,2.3465,2.3503,2.3716,2.362,2.3573,2.4002,2.4111,2.417,2.4363,2.4246,2.4168,2.4363,2.4237,2.4168,2.4373,2.4609,2.4767,2.4767,2.4767,2.4767,2.4767,2.4188,2.3864,2.4092,2.4111,2.4188,2.4371,2.4402,2.4402,2.4402,2.4629,2.4767,2.4767,2.5176,2.541,2.541,2.5601,2.5706,2.5706,2.5706,2.5835,2.6062,2.6062,2.6296,2.6176,2.6399,2.6508,2.6508,2.5565,2.4084,2.1977,2.0526,1.9033,1.6932,1.6505,1.6505,1.6505,1.7345,1.8417,1.961,2.111,2.3108,2.5912,2.688,2.7867,2.9415,2.9716,2.9801,2.9801,2.9801,2.9801,2.9801,2.9801,2.9682,2.9456,2.8369,2.685,2.4861,2.4564,2.4006,2.3113,2.3091,2.3091,2.3091,2.3091,2.3091,2.3091,2.3091,2.3091,2.3091,2.3091,2.3091,2.3091,2.3091,2.3091,2.3091,2.3091,2.3091,2.3091,2.3091,2.3091,2.3091,2.3091,2.3091,2.3121,2.322,2.318,2.3121,2.3219,2.3504,2.382,2.3896,2.3926,2.4004,2.4324,2.417,2.4033,2.4453,2.4617,2.4674,2.4674,2.4617,2.4578,2.4654,2.4607,2.4578,2.4654,2.498,2.5227,2.5227,2.5227,2.5227,2.5227,2.4912,2.4674,2.4674,2.4598,2.4588,2.4664,2.4674,2.4674,2.4674,2.5019,2.5227,2.5227,2.5535,2.5706,2.5706,2.5706,2.5745,2.5854,2.5854,2.6081,2.6523,2.6523,2.6748,2.567,2.608,2.6508,2.6508,2.5284,2.3615,2.1889,2.0244,1.8575,1.6857,1.6505,1.6505,1.6505,1.7036,1.7971,1.9554,2.0797,2.2543,2.5293,2.662,2.7717,2.8847,2.9478,2.9801,2.9801,2.9801,2.9801,2.9801,2.9801,2.9356,2.8305,2.7229,2.6078,2.484,2.38,2.3211,2.3091,2.3091,2.3091,2.3091,2.3091,2.3091,2.3091,2.3091,2.3091,2.3091,2.3091,2.3091,2.3091,2.3091,2.3091,2.3091,2.3091,2.3091,2.3091,2.3091,2.3091,2.3091,2.3091,2.3091,2.317,2.3603,2.3456,2.318,2.3613,2.3771,2.3878,2.4237,2.4332,2.4354,2.4393,2.4362,2.4451,2.4926,2.531,2.5579,2.5579,2.5293,2.5139,2.5513,2.5293,2.5149,2.5523,2.562,2.5637,2.5637,2.5637,2.5637,2.5637,2.5608,2.5579,2.5579,2.5244,2.5178,2.555,2.5579,2.5579,2.5579,2.5618,2.5637,2.5637,2.5676,2.5706,2.5706,2.5706,2.5913,2.634,2.634,2.6543,2.694,2.694,2.7187,2.5322,2.6038,2.6411,2.6051,2.4707,2.3022,2.1394,1.9717,1.8123,1.6781,1.6505,1.6505,1.6505,1.6699,1.7294,1.8625,1.9221,2.0476,2.3238,2.4277,2.5565,2.7673,2.8436,2.906,2.9739,2.9801,2.9801,2.9801,2.9801,2.902,2.7229,2.6729,2.5662,2.3823,2.3343,2.3091,2.3091,2.3091,2.3091,2.3091,2.3091,2.3091,2.3091,2.3091,2.3091,2.3091,2.3091,2.3091,2.3091,2.3091,2.3091,2.3091,2.3091,2.3091,2.3091,2.3091,2.3091,2.3091,2.3091,2.3277,2.3544,2.3742,2.3848,2.3923,2.41,2.4357,2.4623,2.4777,2.4816,2.4885,2.5123,2.5181,2.523,2.5418,2.5581,2.5706,2.5706,2.5571,2.5515,2.5667,2.5571,2.5515,2.5667,2.5706,2.5706,2.5706,2.5706,2.5706,2.5706,2.5706,2.5706,2.5706,2.5564,2.5535,2.5686,2.5706,2.5706,2.5706,2.5706,2.5706,2.5706,2.5706,2.5823,2.6123,2.612,2.6325,2.6768,2.6768,2.6982,2.7415,2.7415,2.765,2.4498,2.5418,2.59,2.5473,2.4101,2.2527,2.1229,1.9522,1.7918,1.6941,1.6611,1.6505,1.6505,1.6505,1.6825,1.7796,1.8236,1.929,2.1725,2.2822,2.4214,2.6524,2.7428,2.8235,2.9202,2.9591,2.9801,2.9801,2.9801,2.8831,2.6627,2.6504,2.5463,2.3167,2.3091,2.3091,2.3091,2.3091,2.3091,2.3091,2.3091,2.3091,2.3091,2.3091,2.3091,2.3091,2.3091,2.3091,2.3091,2.3091,2.3091,2.3091,2.3091,2.3091,2.3121,2.3259,2.3308,2.3316,2.3443,2.3698,2.3994,2.4142,2.4377,2.4639,2.4742,2.4932,2.5121,2.5236,2.5276,2.5342,2.563,2.5706,2.5706,2.5706,2.5706,2.5706,2.5706,2.5706,2.5706,2.5706,2.5706,2.5706,2.5706,2.5706,2.5706,2.5706,2.5706,2.5706,2.5706,2.5706,2.5706,2.5706,2.5706,2.5706,2.5706,2.5706,2.5706,2.5706,2.5706,2.5754,2.5903,2.5913,2.612,2.6562,2.6572,2.6787,2.7207,2.7207,2.7445,2.7878,2.7878,2.8034,2.2982,2.3948,2.4829,2.4808,2.3549,2.2163,2.1621,1.9783,1.8034,1.7421,1.6874,1.6505,1.6505,1.6505,1.6699,1.7317,1.8298,1.9578,2.1262,2.2944,2.4401,2.5485,2.6611,2.7516,2.8072,2.9139,2.9801,2.9801,2.9801,2.8831,2.6627,2.6504,2.5463,2.3167,2.3091,2.3091,2.3091,2.3091,2.3091,2.3091,2.3091,2.3091,2.3091,2.3091,2.3091,2.3091,2.3091,2.3091,2.3091,2.3091,2.3091,2.3091,2.3091,2.3091,2.316,2.3623,2.379,2.3849,2.4246,2.4393,2.4471,2.4936,2.5094,2.517,2.5574,2.5408,2.519,2.5581,2.5696,2.5696,2.5706,2.5706,2.5706,2.5706,2.5706,2.5706,2.5706,2.5706,2.5706,2.5706,2.5706,2.5706,2.5706,2.5706,2.5706,2.5706,2.5706,2.5706,2.5706,2.5706,2.5706,2.5706,2.5706,2.5706,2.5706,2.5706,2.5706,2.5706,2.5706,2.5913,2.6367,2.6399,2.6582,2.6989,2.6999,2.7217,2.7682,2.7682,2.7907,2.8281,2.8281,2.8304,2.1192,2.2262,2.2921,2.2178,2.1562,2.0817,1.9525,1.8695,1.7926,1.6948,1.7198,1.7473,1.7118,1.7055,1.76,1.9311,1.9559,2.0124,2.1812,2.3487,2.4812,2.5519,2.7616,2.9073,2.9252,2.9588,2.9801,2.9801,2.9801,2.8831,2.6627,2.6504,2.5463,2.3167,2.3091,2.3091,2.3091,2.3091,2.3091,2.3091,2.3091,2.3091,2.3091,2.3091,2.3091,2.3091,2.3091,2.3091,2.3091,2.3091,2.3091,2.3091,2.3091,2.3091,2.316,2.3633,2.38,2.3869,2.4256,2.4609,2.4895,2.5043,2.5285,2.5532,2.5657,2.561,2.5545,2.5657,2.5706,2.5706,2.5706,2.5706,2.5706,2.5706,2.5706,2.5706,2.5706,2.5706,2.5706,2.5706,2.5706,2.5706,2.5706,2.5706,2.5706,2.5706,2.5706,2.5706,2.5706,2.5984,2.6182,2.6182,2.6423,2.6352,2.5754,2.5981,2.6182,2.6182,2.6443,2.6657,2.6794,2.6816,2.7021,2.7464,2.7487,2.7692,2.8109,2.8109,2.8177,2.8304,2.8304,2.8447,1.9415,2.0688,2.1498,2.0828,2.0335,1.9841,1.9239,1.8637,1.8056,1.7514,1.761,1.7762,1.7631,1.7271,1.7518,1.9096,1.9267,1.9779,2.1455,2.3123,2.4678,2.6084,2.7968,2.9239,2.9443,2.9666,2.9801,2.9801,2.9801,2.901,2.7199,2.7107,2.6264,2.4446,2.355,2.3091,2.3091,2.3091,2.3091,2.3091,2.3091,2.3091,2.3091,2.3091,2.3091,2.311,2.3288,2.3367,0.0,2.3521,2.3492,2.3376,2.3521,2.3503,2.3435,2.4064,2.429,2.4347,2.4754,2.5086,2.5334,2.5334,2.5496,2.5706,2.5706,2.5706,2.5706,2.5706,2.5706,2.5706,2.5706,2.5706,2.5706,2.5706,2.5706,2.5706,2.5706,2.5706,2.5706,2.5706,2.5706,2.5706,2.5706,2.5706,2.5706,2.5706,2.5706,2.5754,2.5942,2.6221,2.6468,2.6611,2.6852,2.6771,2.6245,2.6452,2.6631,2.6631,2.6862,2.7077,2.7269,2.7266,2.7474,2.7917,2.7936,2.8041,2.8304,2.8304,2.8382,2.8535,2.8535,2.876,0.0,1.9142,2.0349,2.0357,1.9626,1.9194,2.0197,1.9305,0.0,1.8764,1.8116,1.7629,1.8136,1.7338,1.6837,1.7552,1.8076,1.8982,2.0691,2.2359,2.4415,2.7151,2.7918,2.8427,2.8919,2.9478,2.9801,2.9801,2.9801,2.9294,2.8166,2.8106,2.7602,2.6523,2.4371,2.3222,2.3222,2.3135,2.3091,2.3091,2.3091,2.3121,2.3151,2.3151,2.317,2.3219,2.3651,2.3838,2.3878,2.4246,2.4178,2.3877,2.4246,2.4168,2.3947,2.4789,2.5104,2.516,2.5562,2.5706,2.5706,2.5706,2.5706,2.5706,2.5706,2.5706,2.5706,2.5706,2.5706,2.5706,2.5706,2.5706,2.5706,2.5706,2.5706,2.5706,2.5706,2.5706,2.5706,2.5706,2.5706,2.5715,2.5745,2.5745,2.5754,2.5784,2.5793,2.5952,2.6399,2.6468,2.6643,2.7009,2.7077,2.7097,2.7097,2.7067,2.7048,2.7048,2.7077,2.7285,2.7721,2.7741,2.7917,2.8281,2.8304,2.831,2.834,2.834,2.8555,2.8951,2.8951,2.9199,1.5996,0.0,1.7792,1.7902,1.8042,1.8256,0.0,1.8708,1.8651,1.835,0.0,1.9207,1.9423,1.8514,1.8486,2.0814,2.0594,2.0836,2.2932,2.5017,2.703,2.8985,2.9324,2.9453,2.9578,2.9716,2.9801,2.9801,2.9801,2.9294,2.8166,2.8106,2.7602,2.6523,2.5136,2.4393,2.4393,2.354,2.3091,2.3091,2.3091,2.3298,2.3633,2.3633,2.3797,2.4098,2.4217,2.4256,2.4277,2.4363,2.4332,2.4266,2.4363,2.4344,2.4336,2.4887,2.5104,2.516,2.5562,2.5706,2.5706,2.5706,2.5706,2.5706,2.5706,2.5706,2.5706,2.5706,2.5706,2.5706,2.5706,2.5706,2.5706,2.5706,2.5706,2.5706,2.5706,2.5706,2.5706,2.5706,2.5706,2.5803,2.6172,2.624,2.6348,2.6657,2.6684,2.6723,2.6843,2.7171,2.7428,2.7526,2.7816,2.7988,2.7988,2.7708,2.7536,2.7536,2.7826,2.8037,2.8148,2.8158,2.8207,2.8304,2.8304,2.8447,2.8756,2.8756,2.8994,2.9442,2.9442,2.9662,1.5354,1.6267,1.7384,1.7454,1.7721,1.8139,1.8703,0.0,0.0,0.0,0.0,1.9426,1.9751,1.912,1.9254,2.1377,2.1363,2.2065,2.4771,2.6952,2.8651,2.9674,2.9801,2.9801,2.9801,2.9801,2.9801,2.9801,2.9801,2.9534,2.8917,2.8878,2.8609,2.8031,2.643,2.5326,2.4808,2.367,2.3091,2.3091,2.3318,2.3544,2.381,2.3984,2.4188,2.4401,2.4629,2.4728,2.4738,2.492,2.4891,2.4736,2.4918,2.4881,2.4766,2.5215,2.5371,2.541,2.5618,2.5706,2.5706,2.5706,2.5706,2.5706,2.5706,2.5706,2.5706,2.5706,2.5706,2.5706,2.5706,2.5706,2.5706,2.5706,2.5706,2.5706,2.5706,2.5706,2.5754,2.5984,2.6023,2.6159,2.6602,2.668,2.6758,2.697,2.6999,2.7077,2.7285,2.7545,2.777,2.7966,2.8168,2.8304,2.8304,2.8099,2.7976,2.7976,2.8177,2.8304,2.8304,2.8304,2.8304,2.8304,2.8476,2.8678,2.8902,2.9121,2.9447,2.9882,2.9882,3.0112,1.5551,1.6731,1.7995,1.7904,1.8034,1.846,1.9468,0.0,0.0,0.0,0.0,0.0,0.0,1.9738,0.0,2.1265,2.2004,2.3416,2.6337,2.8228,2.9443,2.9759,2.9801,2.9801,2.9801,2.9801,2.9801,2.9801,2.9801,2.9801,2.9801,2.9801,2.9801,2.9801,2.7647,2.6037,2.5073,2.3757,2.3141,2.3209,2.3613,2.3869,2.4005,2.4355,2.4539,2.4615,2.5022,2.519,2.5229,2.5562,2.5505,2.5229,2.5574,2.5496,2.5227,2.5571,2.5706,2.5706,2.5706,2.5706,2.5706,2.5706,2.5706,2.5706,2.5706,2.5706,2.5706,2.5706,2.5706,2.5706,2.5706,2.5706,2.5706,2.5706,2.5754,2.5815,2.5815,2.5864,2.602,2.6416,2.6484,2.6621,2.7041,2.7119,2.7126,2.7184,2.7204,2.7344,2.7741,2.779,2.7927,2.8265,2.8304,2.8304,2.8304,2.8304,2.8304,2.8304,2.8304,2.8304,2.8304,2.8304,2.8334,2.8389,2.8727,2.8971,2.9098,2.9496,2.9897,3.0317,3.0317,3.0518,1.7034,1.7932,1.8437,1.7867,1.8161,1.8807,1.9533,0.0,0.0,0.0,0.0,0.0,0.0,2.1447,2.2045,2.3826,2.5224,2.65,2.7682,2.8496,2.918,2.9723,2.9801,2.9801,2.9801,2.9801,2.9801,2.9801,2.9801,2.9801,2.9801,2.9801,2.9801,2.9801,2.7647,2.642,2.6234,2.4156,2.3298,2.3691,2.3771,2.4193,2.4896,2.4965,2.5176,2.5501,2.5581,2.561,2.5608,2.5676,2.5657,2.5608,2.5676,2.5657,2.562,2.5676,2.5706,2.5706,2.5706,2.5706,2.5706,2.5706,2.5706,2.5706,2.5706,2.5706,2.5706,2.5706,2.5706,2.5706,2.5706,2.5706,2.5706,2.5706,2.5991,2.6289,2.6289,2.655,2.6811,2.6892,2.6901,2.7048,2.7516,2.7594,2.7712,2.8047,2.8096,2.8138,2.8207,2.8207,2.8236,2.8281,2.8304,2.8304,2.8304,2.8304,2.8304,2.8304,2.8304,2.8304,2.8304,2.8304,2.8457,2.8805,2.8873,2.9263,3.0,3.0068,3.0332,3.0781,3.0781,3.0835,1.651,1.7397,1.8177,1.8226,1.9292,2.0303,2.0254,0.0,0.0,0.0,0.0,0.0,0.0,0.0,2.4022,2.6053,2.7521,2.8441,2.8523,2.9146,2.9646,2.9784,2.9801,2.9801,2.9801,2.9801,2.9801,2.9801,2.9801,2.9801,2.9801,2.9801,2.9801,2.9801,2.8219,2.7097,2.6514,2.4851,2.3824,2.3436,2.3895,2.4336,2.4738,2.5215,2.5535,2.5706,2.5706,2.5706,2.5706,2.5706,2.5706,2.5706,2.5706,2.5706,2.5706,2.5706,2.5706,2.5706,2.5706,2.5706,2.5706,2.5706,2.5706,2.5706,2.5706,2.5706,2.5706,2.5706,2.5706,2.5706,2.5706,2.5893,2.6072,2.6072,2.6403,2.6728,2.6728,2.6862,2.7077,2.7337,2.7376,2.7513,2.7943,2.8011,2.808,2.8262,2.8304,2.8304,2.8304,2.8304,2.8304,2.8304,2.8304,2.8304,2.8304,2.8304,2.8304,2.8304,2.8304,2.8304,2.8304,2.8506,2.8707,2.8902,2.9361,2.9805,3.0195,3.0449,3.0684,3.0903,3.0903,3.0903,1.6159,1.7067,1.8102,1.8777,0.0,2.1221,2.1181,0.0,0.0,0.0,0.0,0.0,0.0,2.4687,2.6438,2.8481,2.9562,2.9981,2.9511,2.9825,3.0033,2.9816,2.9801,2.9801,2.9801,2.9801,2.9801,2.9801,2.9801,2.9801,2.9801,2.9801,2.9801,2.9801,2.8698,2.7572,2.6503,2.5368,2.4283,2.3268,2.3944,2.4375,2.459,2.5261,2.561,2.5706,2.5706,2.5706,2.5706,2.5706,2.5706,2.5706,2.5706,2.5706,2.5706,2.5706,2.5706,2.5706,2.5706,2.5706,2.5706,2.5706,2.5706,2.5706,2.5706,2.5706,2.5706,2.5706,2.5706,2.5725,2.5835,2.613,2.6419,2.6514,2.6855,2.7155,2.7155,2.7246,2.7412,2.777,2.7839,2.7946,2.8246,2.8304,2.8304,2.8304,2.8304,2.8304,2.8304,2.8304,2.8304,2.8304,2.8304,2.8304,2.8304,2.8304,2.8304,2.8304,2.8304,2.834,2.8437,2.8736,2.9,2.9205,2.9863,3.0244,3.0361,3.0713,3.0903,3.0903,3.0903,3.0903,1.7239,1.8076,1.8792,1.9459,1.9738,0.0,2.2149,2.2583,0.0,2.4147,0.0,0.0,0.0,2.75,2.9804,3.1507,3.1612,3.1356,3.1068,3.0336,2.9819,2.9801,2.9801,2.9801,2.9801,2.9801,2.9801,2.9801,2.9801,2.9801,2.9801,2.9801,2.9801,2.9801,2.8698,2.7572,2.6503,2.5368,2.4447,2.3751,2.3809,2.4269,2.5043,2.5112,2.5354,2.5706,2.5706,2.5706,2.5706,2.5706,2.5706,2.5706,2.5706,2.5706,2.5706,2.5706,2.5706,2.5706,2.5706,2.5706,2.5706,2.5706,2.5706,2.5706,2.5706,2.5706,2.5706,2.5706,2.5706,2.5793,2.624,2.6367,2.6484,2.6862,2.7318,2.7643,2.7643,2.7943,2.8226,2.8255,2.8265,2.8275,2.8304,2.8304,2.8304,2.8304,2.8304,2.8304,2.8304,2.8304,2.8304,2.8304,2.8304,2.8304,2.8304,2.8304,2.8304,2.8304,2.8304,2.8467,2.8844,2.8869,2.9273,3.0088,3.0166,3.041,3.0854,3.0869,3.0903,3.0903,3.0903,3.0903,1.6394,1.7584,1.8758,1.9016,2.0023,0.0,0.0,2.358,2.4367,2.6114,2.6674,0.0,0.0,2.9098,3.0185,3.1031,3.0922,3.0638,3.037,3.0017,2.9801,2.9801,2.9801,2.9801,2.9801,2.9801,2.9801,2.9801,2.9801,2.9801,2.9801,2.9801,2.9801,2.9801,2.9375,2.8301,2.6524,2.6068,2.502,2.3367,2.3662,2.3966,2.4299,2.4541,2.4914,2.5334,2.5334,2.5466,2.5706,2.5706,2.5706,2.5706,2.5706,2.5706,2.5706,2.5706,2.5706,2.5706,2.5706,2.5706,2.5706,2.5706,2.5706,2.5706,2.5706,2.5706,2.5706,2.5706,2.5706,2.5735,2.5913,2.6364,2.6816,2.696,2.7549,2.807,2.807,2.8187,2.8304,2.8304,2.8304,2.8304,2.8304,2.8304,2.8304,2.8304,2.8304,2.8304,2.8304,2.8304,2.8304,2.8304,2.8304,2.8304,2.8304,2.8304,2.8408,2.8658,2.8668,2.8736,2.8889,2.942,2.9863,3.0185,3.0493,3.0713,3.0903,3.0903,3.0903,3.0903,3.0903,3.0903,1.6076,1.7356,1.8743,1.8957,0.0,0.0,2.4109,2.4906,2.5797,2.7818,2.8372,2.8986,3.0551,0.0,3.0966,3.1335,3.1148,3.0795,3.0301,2.9991,2.9801,2.9801,2.9801,2.9801,2.9801,2.9801,2.9801,2.9801,2.9801,2.9801,2.9801,2.9801,2.9801,2.9801,2.9801,2.8742,2.6513,2.6842,2.5693,2.3112,2.3782,2.4,2.381,2.4092,2.4453,2.4887,2.4887,2.5117,2.5515,2.5515,2.5581,2.5706,2.5706,2.5706,2.5706,2.5706,2.5706,2.5706,2.5706,2.5706,2.5706,2.5706,2.5706,2.5706,2.5706,2.5706,2.5706,2.5706,2.5706,2.5725,2.5884,2.6462,2.7067,2.7341,2.7871,2.8304,2.8304,2.8304,2.8304,2.8304,2.8304,2.8304,2.8304,2.8304,2.8304,2.8304,2.8304,2.8304,2.8304,2.8304,2.8304,2.8304,2.8304,2.8304,2.8304,2.8418,2.8613,2.8869,2.9156,2.9302,2.9302,2.9883,3.0264,3.0424,3.0747,3.0903,3.0903,3.0903,3.0903,3.0903,3.0903,3.0903,1.67,1.768,1.8862,0.0,0.0,0.0,2.5866,2.6599,2.7177,2.9204,3.0103,3.1128,3.3133,3.2953,3.2635,3.3039,3.2804,3.2263,3.1324,3.039,2.9801,2.9801,2.9801,2.9801,2.9801,2.9801,2.9801,2.9801,2.9801,2.9801,2.9801,2.9801,2.9801,2.9801,2.9801,2.8742,2.6545,2.7562,2.6418,2.3124,2.4264,2.4446,2.379,2.379,2.4014,2.4391,2.4402,2.4668,2.5104,2.5092,2.5332,2.5706,2.5706,2.5706,2.5706,2.5706,2.5706,2.5706,2.5706,2.5706,2.5706,2.5706,2.5706,2.5706,2.5706,2.5706,2.5706,2.5706,2.5706,2.5815,2.6279,2.6699,2.7214,2.8086,2.8304,2.8304,2.8304,2.8304,2.8304,2.8304,2.8304,2.8304,2.8304,2.8304,2.8304,2.8304,2.8304,2.8304,2.8304,2.8304,2.8304,2.8304,2.8301,2.8314,2.8314,2.8682,2.8912,2.8912,2.9726,3.0195,3.0195,3.0205,3.042,3.0893,3.0903,3.0903,3.0903,3.0903,3.0903,3.0903,3.0903,3.0903,1.67,1.768,0.0,2.0119,0.0,0.0,0.0,2.6965,0.0,0.0,3.1779,3.2235,3.3305,3.3335,3.3184,3.3112,3.2418,3.1736,3.1271,3.039,2.9801,2.9801,2.9801,2.9801,2.9801,2.9801,2.9801,2.9801,2.9801,2.9801,2.9801,2.9801,2.9801,2.9801,2.9801,2.9099,2.7644,2.7934,2.6818,2.4307,2.4638,2.4282,2.3308,2.3308,2.3542,2.3994,2.4276,2.4668,2.5123,2.541,2.5591,2.5706,2.5706,2.5706,2.5706,2.5706,2.5706,2.5706,2.5706,2.5706,2.5706,2.5706,2.5706,2.5706,2.5706,2.5706,2.5706,2.5706,2.5706,2.5871,2.6628,2.6911,2.7145,2.7741,2.8089,2.8304,2.8304,2.8304,2.8304,2.8304,2.8304,2.8304,2.8304,2.8304,2.8304,2.8304,2.8304,2.8304,2.8304,2.8304,2.8304,2.8304,2.8555,2.8717,2.8717,2.9131,2.9502,2.9795,3.0059,3.0195,3.0195,3.0522,3.0766,3.0903,3.0903,3.0903,3.0903,3.0903,3.0903,3.0903,3.0903,3.0903,1.7354,1.8472,0.0,2.1156,2.3255,2.5552,2.7671,0.0,0.0,0.0,3.2699,3.2878,3.4068,3.4076,3.3808,3.351,3.2646,3.1813,3.1284,3.039,2.9801,2.9801,2.9801,2.9801,2.9801,2.9801,2.9801,2.9801,2.9801,2.9801,2.9801,2.9801,2.9801,2.9801,2.9801,2.9255,2.8104,2.8547,2.7441,2.4808,2.5263,2.4649,2.3091,2.3091,2.3248,2.3553,2.4149,2.456,2.4875,2.5454,2.5706,2.5706,2.5706,2.5706,2.5706,2.5706,2.5706,2.5706,2.5706,2.5706,2.5706,2.5706,2.5706,2.5706,2.5706,2.5706,2.5706,2.5706,2.5823,2.614,2.6823,2.7148,2.7396,2.7826,2.8119,2.8304,2.8304,2.8304,2.8304,2.8304,2.8304,2.8304,2.8304,2.8304,2.8304,2.8304,2.8304,2.8304,2.8304,2.8304,2.8304,2.8304,2.8525,2.8844,2.9302,2.96,2.9887,3.0176,3.0371,3.0478,3.0478,3.0757,3.0903,3.0903,3.0903,3.0903,3.0903,3.0903,3.0903,3.0903,3.0903,3.0903,1.8335,1.9681,2.1042,2.2518,2.4438,0.0,2.9887,3.059,3.1143,3.3095,0.0,3.3193,3.5137,3.5004,3.4494,3.4185,3.3267,3.2303,3.1453,3.0447,2.9801,2.9801,2.9801,2.9801,2.9801,2.9801,2.9801,2.9801,2.9801,2.9801,2.9801,2.9801,2.9801,2.9801,2.9801,2.9294,2.8255,2.9275,2.8219,2.5104,2.6058,2.5358,2.3245,2.3146,2.312,2.3209,2.404,2.442,2.4529,2.5367,2.5769,2.5866,2.5745,2.5769,2.5866,2.5732,2.5706,2.5706,2.5706,2.5706,2.5706,2.5706,2.5706,2.5706,2.5706,2.5706,2.5706,2.5745,2.6072,2.6494,2.6953,2.7386,2.78,2.8207,2.8304,2.8304,2.8304,2.8304,2.8304,2.8304,2.8304,2.8304,2.8304,2.8304,2.8304,2.8304,2.8304,2.8304,2.8304,2.8304,2.8334,2.8412,2.8422,2.8838,2.9869,3.0035,3.0122,3.0254,3.0654,3.0903,3.0903,3.0903,3.0903,3.0903,3.0903,3.0903,3.0903,3.0903,3.0903,3.0903,3.0903,3.0903,1.8335,1.9681,0.0,0.0,2.6476,2.9197,3.0905,3.1286,3.1712,3.3185,3.338,3.3739,3.5227,3.5385,3.526,3.5184,3.3728,3.2522,3.2339,3.0855,2.9801,2.9801,2.9801,2.9801,2.9801,2.9801,2.9801,2.9801,2.9801,2.9801,2.9801,2.9801,2.9801,2.9801,2.9801,2.9672,2.9446,2.9672,2.8988,2.7379,2.679,2.5777,2.4393,2.3507,2.3308,2.3682,2.4178,2.4609,2.4994,2.5484,2.6294,2.709,2.6098,2.6318,2.7066,2.6074,2.5706,2.5706,2.5706,2.5706,2.5706,2.5706,2.5706,2.5706,2.5706,2.5706,2.5786,2.6152,2.6318,2.6575,2.735,2.7624,2.78,2.8207,2.8304,2.8304,2.8304,2.8304,2.8304,2.8304,2.8304,2.8304,2.8304,2.8304,2.8304,2.8304,2.8304,2.8304,2.8304,2.8304,2.8558,2.9246,2.9324,2.9422,2.9676,3.0317,3.0713,3.0757,3.083,3.0903,3.0903,3.0903,3.0903,3.0903,3.0903,3.0903,3.0903,3.0903,3.0903,3.0903,3.0903,3.0903,1.8264,0.0,0.0,2.4825,0.0,2.9847,3.0807,3.1271,3.1795,3.2819,3.3275,3.3806,3.4824,3.528,3.5496,3.5496,3.3871,3.2593,3.2593,3.0973,2.9801,2.9801,2.9801,2.9801,2.9801,2.9801,2.9801,2.9801,2.9801,2.9801,2.9801,2.9801,2.9801,2.9801,2.9801,2.9801,2.9801,2.9801,2.8969,2.7331,2.677,2.5902,2.4776,2.4178,2.3756,2.3528,2.47,2.5039,2.4805,2.5445,2.6098,2.662,2.5953,2.611,2.6608,2.5941,2.5706,2.5706,2.5706,2.5706,2.5706,2.5706,2.5706,2.5706,2.5706,2.5864,2.6091,2.634,2.6692,2.7125,2.7575,2.7839,2.8044,2.8255,2.8304,2.8304,2.8304,2.8304,2.8304,2.8304,2.8304,2.8304,2.8304,2.8304,2.8304,2.8304,2.8304,2.8304,2.8304,2.8304,2.847,2.8933,2.9721,3.0219,3.0219,3.0639,3.0903,3.0903,3.0903,3.0903,3.0903,3.0903,3.0903,3.0903,3.0903,3.0903,3.0903,3.0903,3.0903,3.0903,3.0903,3.0903,1.7864,0.0,2.2792,2.5971,2.8111,0.0,3.0342,3.092,3.1511,3.2191,3.2863,3.3567,3.4361,3.4944,3.537,3.5481,3.3999,3.2793,3.2611,3.111,2.9982,2.9821,2.9801,2.9801,2.9801,2.9801,2.9801,2.9801,2.9801,2.9801,2.9801,2.9801,2.9801,2.9801,2.9801,2.9801,2.9801,2.9801,2.8882,2.7068,2.6862,2.6078,2.4808,2.4999,2.4468,2.3491,2.5306,2.5447,2.4471,2.5335,2.583,2.6014,2.5793,2.583,2.6002,2.5781,2.5706,2.5706,2.5706,2.5706,2.5706,2.5706,2.5706,2.5706,2.5706,2.6033,2.6406,2.6487,2.7073,2.7725,2.778,2.8041,2.8304,2.8304,2.8304,2.8304,2.8304,2.8304,2.8304,2.8304,2.8304,2.8304,2.8304,2.8304,2.8304,2.8304,2.8304,2.8304,2.8304,2.8568,2.8754,2.8754,3.0043,3.0903,3.0903,3.0903,3.0903,3.0903,3.0903,3.0903,3.0903,3.0903,3.0903,3.0903,3.0903,3.0903,3.0903,3.0903,3.0903,3.0903,3.0903,3.0903,1.6596,0.0,2.401,0.0,2.8117,2.9041,0.0,0.0,3.0822,3.1503,3.2168,3.3021,3.4263,3.4563,3.4817,3.5415,3.4551,3.3527,3.2713,3.1678,3.0714,2.9895,2.9801,2.9801,2.9801,2.9801,2.9801,2.9801,2.9801,2.9801,2.9801,2.9801,2.9801,2.9801,2.9801,2.9801,2.9801,2.9801,2.9653,2.9358,2.8369,2.6797,2.483,2.5818,2.5651,2.4637,2.5662,2.5447,2.4471,2.5335,2.6344,2.7244,2.6135,2.6378,2.7209,2.611,2.5706,2.5706,2.5706,2.5706,2.5706,2.5706,2.5706,2.5706,2.5706,2.6033,2.6477,2.6813,2.7298,2.778,2.8128,2.8265,2.8304,2.8304,2.8304,2.8304,2.8304,2.8304,2.8304,2.8304,2.8304,2.8304,2.8304,2.8304,2.8304,2.8304,2.8304,2.8304,2.8304,2.9623,3.0547,3.0547,3.0766,3.0903,3.0903,3.0903,3.0903,3.0903,3.0903,3.0903,3.0903,3.0903,3.0903,3.0903,3.0903,3.0903,3.0903,3.0903,3.0903,3.0903,3.0903,3.0903,1.7632,2.0418,2.3166,0.0,2.7279,2.8276,2.922,2.9998,3.059,3.0882,3.1473,3.2235,3.32,3.3687,3.4151,3.4832,3.4124,3.3286,3.2676,3.1788,3.0852,2.9905,2.9801,2.9801,2.9801,2.9801,2.9801,2.9801,2.9801,2.9801,2.9801,2.9801,2.9801,2.9801,2.9801,2.9801,2.9801,2.9801,2.9485,2.8838,2.7725,2.6687,2.5766,2.6265,2.587,2.4829,2.5435,2.5628,2.5455,2.5384,2.6245,2.7471,2.6197,2.6038,2.6464,2.5914,2.5706,2.5706,2.5706,2.5706,2.5706,2.5706,2.5706,2.5706,2.5706,2.6198,2.6777,2.695,2.75,2.8083,2.8242,2.8304,2.8304,2.8304,2.8304,2.8304,2.8304,2.8304,2.8304,2.8304,2.8304,2.8304,2.8304,2.8304,2.8636,2.96,2.976,2.976,2.976,3.0434,3.0903,3.0903,3.0903,3.0903,3.0903,3.0903,3.0903,3.0903,3.0903,3.0903,3.0903,3.0903,3.0903,3.0903,3.0903,3.0903,3.0903,3.0903,3.0903,3.0903,3.0903,3.0903,0.0,0.0,2.1575,2.4208,2.5986,2.7309,0.0,2.9205,3.0118,3.0432,3.0897,3.1458,3.2116,3.2781,3.3477,3.4143,3.3597,3.2927,3.2422,3.1675,3.0852,2.9905,2.9801,2.9801,2.9801,2.9801,2.9801,2.9801,2.9801,2.9801,2.9801,2.9801,2.9801,2.9801,2.9801,2.9801,2.9801,2.9801,2.9226,2.8084,2.7585,2.7047,2.6503,2.678,2.6285,2.5252,2.5669,2.5767,2.5654,2.5549,2.6088,2.6877,2.6025,2.5706,2.5706,2.5706,2.5706,2.5706,2.5706,2.5706,2.5706,2.5706,2.5706,2.5706,2.5706,2.6313,2.6999,2.6999,2.7627,2.8304,2.8304,2.8304,2.8304,2.8304,2.8304,2.8304,2.8304,2.8304,2.8304,2.8304,2.8304,2.8304,2.8304,2.8304,2.8891,3.0649,3.0903,3.0903,3.0903,3.0903,3.0903,3.0903,3.0903,3.0903,3.0903,3.0903,3.0903,3.0903,3.0903,3.0903,3.0903,3.0903,3.0903,3.0903,3.0903,3.0903,3.0903,3.0903,3.0903,3.0903,3.0903,3.0903,0.0,1.7825,0.0,2.2174,2.4289,2.6048,2.7354,2.8186,2.9041,3.0246,3.0537,3.0769,3.1436,3.2101,3.2774,3.3447,3.3303,3.2762,3.1794,3.1384,3.0852,2.9905,2.9801,2.9801,2.9801,2.9801,2.9801,2.9801,2.9801,2.9801,2.9801,2.9801,2.9801,2.9801,2.9801,2.9801,2.9801,2.9801,2.9226,2.8104,2.9148,2.8534,2.6523,2.7542,2.7431,2.6433,2.684,2.5838,2.4068,2.5868,2.6071,2.5265,2.5578,2.5706,2.5706,2.5706,2.5706,2.5706,2.5706,2.5706,2.5706,2.5706,2.5706,2.5706,2.5706,2.6313,2.6999,2.6999,2.7627,2.8304,2.8304,2.8304,2.8304,2.8304,2.8304,2.8304,2.8304,2.8304,2.8304,2.8304,2.8304,2.8304,2.8304,2.8304,2.8891,3.0649,3.0903,3.0903,3.0903,3.0903,3.0903,3.0903,3.0903,3.0903,3.0903,3.0903,3.0903,3.0903,3.0903,3.0903,3.0903,3.0903,3.0903,3.0903,3.0903,3.0903,3.0903,3.0903,3.0903,3.0903,3.0903,3.0903,0.0,0.0,0.0,2.0847,2.2582,2.4079,2.5384,2.6863,2.8088,2.8545,2.9324,3.0103,3.0732,3.1413,3.2071,3.2759,3.2784,3.2537,3.2006,3.1649,3.111,3.0169,2.9904,2.9801,2.9801,2.9801,2.9801,2.9801,2.9801,2.9801,2.9801,2.9801,2.9801,2.9801,2.9801,2.9801,2.9801,2.9801,2.9605,2.9187,2.8858,2.7927,2.6503,2.6903,2.6068,2.4413,2.6025,2.6456,2.6,2.5449,2.5635,2.6218,2.5848,2.5706,2.5706,2.5706,2.5706,2.5706,2.5706,2.5706,2.5706,2.5706,2.5706,2.5706,2.5706,2.6313,2.6999,2.6999,2.7627,2.8304,2.8304,2.8304,2.8304,2.8304,2.8304,2.8304,2.8304,2.8304,2.8304,2.8304,2.8304,2.8304,2.8304,2.9232,3.018,3.0815,3.0903,3.0903,3.0903,3.0903,3.0903,3.0903,3.0903,3.0903,3.0903,3.0903,3.0903,3.0903,3.2064,3.2207,3.0947,3.1811,3.1868,3.0918,3.0903,3.0903,3.0903,3.0903,3.0903,3.0903,3.0903,3.0903,1.4017,0.0,0.0,0.0,2.1036,2.2473,2.4216,2.5633,2.6779,2.7465,2.8304,2.9189,3.0043,3.0732,3.1383,3.2056,3.2087,3.1867,3.1384,3.1061,3.052,2.9604,2.9494,2.9503,2.9503,2.9679,2.9801,2.9801,2.9801,2.9801,2.9801,2.9801,2.9801,2.9801,2.9801,2.9801,2.9801,2.9801,2.9801,2.9792,2.8636,2.7723,2.7026,2.6657,2.5672,2.4307,2.5442,2.5909,2.5851,2.5465,2.5603,2.6063,2.6038,2.5899,2.5706,2.5706,2.5706,2.5706,2.5706,2.5706,2.5706,2.5706,2.5706,2.5725,2.5884,2.643,2.7028,2.7197,2.7744,2.8304,2.8304,2.8304,2.8304,2.8304,2.8304,2.8304,2.8304,2.8304,2.8304,2.8304,2.8461,2.8627,2.8715,2.9946,3.0903,3.0903,3.0903,3.0903,3.0903,3.0903,3.0903,3.0903,3.0903,3.1691,3.3695,3.2041,3.1185,3.1829,3.3092,3.2932,3.0976,3.2311,3.2412,3.0932,3.1383,3.1397,3.0903,3.0903,3.0903,3.0903,3.0903,3.0903,0.0,0.0,0.0,0.0,0.0,2.1286,2.3867,2.4485,2.5074,2.7076,2.751,2.7944,2.9285,3.0035,3.0658,3.1331,3.126,3.0809,2.9938,2.9574,2.909,2.8217,2.8552,2.8885,2.8897,2.9431,2.9789,2.9801,2.9801,2.9801,2.9801,2.9801,2.9801,2.9801,2.9801,2.9801,2.9801,2.9801,2.9801,2.9792,2.8636,2.8074,2.8014,2.6963,2.6462,2.6349,2.5294,2.42,2.335,2.5948,2.5973,2.4545,2.6064,2.6264,2.5706,2.5706,2.5706,2.5706,2.5706,2.5706,2.5706,2.5706,2.5706,2.5784,2.626,2.668,2.7109,2.7565,2.7995,2.8304,2.8304,2.8304,2.8304,2.8304,2.8304,2.8304,2.8304,2.8304,2.8304,2.8304,2.8764,2.9256,2.9549,3.0317,3.0903,3.0903,3.0903,3.0903,3.0903,3.0903,3.0903,3.0903,3.1054,3.3413,3.896,3.4233,3.1767,3.3603,3.3761,3.2918,3.0976,3.2354,3.2458,3.0981,3.2412,3.2469,3.1034,3.0991,3.0962,3.0976,3.102,3.102,1.366,0.0,0.0,0.0,0.0,0.0,2.0672,2.1814,2.2916,2.4393,2.5486,2.6563,2.7914,2.8695,2.9347,3.002,3.0839,3.11,3.0276,2.9897,2.9366,2.8491,2.8356,2.8467,2.886,2.9048,2.933,2.9776,2.9801,2.9801,2.9801,2.9801,2.9801,2.9801,2.9801,2.9801,2.9801,2.9801,2.9801,2.9792,2.8636,2.7693,2.6934,2.6648,2.5599,2.4103,2.5452,2.5378,2.4348,2.4603,2.459,2.4486,2.5235,2.5607,2.5706,2.5706,2.5706,2.5706,2.5706,2.5706,2.5706,2.5706,2.5706,2.5784,2.626,2.668,2.7109,2.7565,2.7995,2.8304,2.8304,2.8304,2.8304,2.8304,2.8304,2.8304,2.8304,2.8304,2.8304,2.8304,2.8431,2.8773,2.9481,3.0317,3.0903,3.0903,3.0903,3.0903,3.0903,3.0903,3.0903,3.0903,3.472,3.6201,3.3568,3.313,3.263,3.1753,3.269,3.2573,3.0976,3.3342,3.3996,3.2515,3.394,3.4498,3.409,3.3003,3.2487,3.2526,3.3586,3.3501,0.0,0.0,0.0,0.0,0.0,0.0,2.0098,2.0717,2.131,2.2902,2.4049,2.5085,2.6153,2.7348,2.8306,2.8701,2.9864,3.0386,2.947,2.9409,2.9024,2.7815,2.7722,2.7896,2.8201,2.8643,2.9045,2.9393,2.9654,2.9801,2.9801,2.9801,2.9801,2.9801,2.9801,2.9801,2.9801,2.9801,2.9801,2.9792,2.8636,2.7763,2.7148,2.6202,2.5326,2.4542,2.4925,2.4967,2.4723,2.3873,2.4137,2.5136,2.5408,2.5581,2.5706,2.5706,2.5706,2.5706,2.5706,2.5706,2.5706,2.5706,2.5706,2.5813,2.6465,2.6804,2.7126,2.7767,2.8119,2.8304,2.8304,2.8304,2.8304,2.8304,2.8304,2.8304,2.8304,2.8304,2.8304,2.8304,2.8304,2.8461,2.8973,3.0082,3.0903,3.0903,3.0903,3.0903,3.0903,3.0903,3.1849,3.4303,3.7647,3.8319,3.4858,3.3346,3.263,3.2725,3.3543,3.336,3.1872,3.4653,3.551,3.4041,3.548,3.6217,3.6217,3.4736,3.4013,3.4041,3.4902,3.4833,0.0,0.0,0.0,0.0,1.8256,0.0,2.0752,2.0447,2.0217,2.1999,2.2902,2.3589,2.4266,2.5905,2.7157,2.7157,2.8342,2.8957,2.8042,2.848,2.8268,2.6599,2.688,2.7236,2.7286,2.8163,2.8756,2.8819,2.9355,2.9739,2.9801,2.9801,2.9801,2.9801,2.9801,2.9801,2.9801,2.9801,2.9801,2.9792,2.8636,2.8046,2.7854,2.589,2.5473,2.6213,2.4307,2.4049,2.4893,2.3757,2.4322,2.5911,2.5911,2.582,2.573,2.5866,2.5817,2.573,2.5866,2.5817,2.5706,2.5706,2.5706,2.5852,2.6674,2.697,2.7184,2.8047,2.8304,2.8304,2.8304,2.8304,2.8304,2.8304,2.8304,2.8304,2.8304,2.8304,2.8304,2.8304,2.8304,2.8304,2.8304,2.975,3.0903,3.0903,3.0903,3.0903,3.0903,3.1469,3.388,3.9141,3.9697,3.9697,3.9697,3.4681,3.2626,3.5137,3.5151,3.4542,3.3392,3.6017,3.6878,3.5563,3.6997,3.7743,3.7743,3.6257,3.5453,3.5302,3.5631,3.5711,1.7355,1.8204,0.0,1.8132,1.8604,0.0,1.8615,1.9102,1.9813,2.0197,2.124,2.2283,2.2952,2.3785,2.4384,2.4384,2.5956,2.7231,2.7344,2.7844,2.7584,2.5966,2.6302,2.6839,2.7261,2.7491,2.7783,2.8226,2.8769,2.9292,2.9767,2.9801,2.9801,2.9801,2.9801,2.9801,2.9801,2.9801,2.9801,2.9792,2.8636,2.7643,2.6801,2.6369,2.5787,2.5157,2.563,2.5964,2.6079,2.4935,2.4578,2.4726,2.4726,2.5128,2.583,2.6849,2.6584,2.5854,2.6873,2.656,2.5706,2.5706,2.5706,2.5793,2.6357,2.6735,2.7184,2.8047,2.8304,2.8304,2.8304,2.8304,2.8304,2.8304,2.8304,2.8304,2.8304,2.8304,2.8304,2.8304,2.8304,2.8304,2.8304,2.975,3.0903,3.0903,3.0903,3.0903,3.0903,3.5052,3.8425,3.9581,3.9697,3.9697,3.9697,3.716,3.5499,3.5302,3.4181,3.3929,3.4833,3.6557,3.7358,3.7078,3.8518,3.9271,3.9271,3.7794,3.646,3.5368,3.774,3.8215,1.8476,1.8922,1.9628,1.9283,1.9207,0.0,0.0,1.9207,1.9395,2.0064,2.0477,2.1016,2.2024,2.2453,2.2762,2.3097,2.4522,2.5328,2.4568,2.6267,2.6993,2.5393,2.5473,2.5858,2.6398,2.6721,2.7236,2.8047,2.8593,2.9023,2.933,2.9641,2.9801,2.9801,2.9801,2.9801,2.9801,2.9801,2.9801,2.9792,2.8636,2.7814,2.727,2.6161,2.5651,2.5619,2.5052,2.5126,2.5609,2.5041,2.5017,2.5279,2.4646,2.5317,2.6718,2.7352,2.7197,2.6742,2.7376,2.6766,2.5706,2.5706,2.5706,2.5823,2.6504,2.7148,2.7744,2.8187,2.8304,2.8304,2.8304,2.8304,2.8304,2.8304,2.8304,2.8304,2.8304,2.8304,2.8304,2.8304,2.8994,2.9604,2.9604,3.0312,3.0903,3.0903,3.0903,3.0903,3.0903,3.6052,3.9697,3.9697,3.9697,3.9697,3.9697,3.8779,3.7571,3.6097,3.5565,3.5633,3.6366,3.7808,3.8608,3.8608,3.9323,3.9697,3.9697,3.896,3.8228,3.7529,3.9011,3.9297,1.964,1.9859,2.0487,2.0663,2.0174,1.976,0.0,0.0,0.0,2.014,1.9989,2.0033,2.1121,2.131,2.1495,2.2024,2.3206,2.3442,2.1724,2.4166,2.5654,2.4322,2.4453,2.4825,2.5247,2.5628,2.6432,2.7846,2.8041,2.8345,2.8872,2.9355,2.9679,2.9801,2.9801,2.9801,2.9801,2.9801,2.9801,2.9792,2.8636,2.8106,2.8024,2.6046,2.5745,2.6688,2.4638,2.4393,2.542,2.521,2.5711,2.6508,2.5483,2.6242,2.7979,2.8214,2.8002,2.7624,2.7861,2.6959,2.5706,2.5706,2.5754,2.5981,2.6752,2.7559,2.8207,2.8285,2.8304,2.8304,2.8304,2.8304,2.8304,2.8304,2.8304,2.8304,2.8304,2.8304,2.8304,2.8304,2.9711,3.0903,3.0903,3.0903,3.0903,3.0903,3.0903,3.1305,3.245,3.6754,3.9697,3.9697,3.9697,3.9697,3.9697,3.9697,3.9,3.7375,3.7146,3.7332,3.79,3.9064,3.9697,3.9697,3.9697,3.9697,3.9697,3.9697,3.9697,3.9697,3.9697,3.9697,2.1714,2.2238,2.2757,2.1112,2.1884,2.2323,1.9566,0.0,2.0185,1.9147,0.0,1.9753,1.9898,0.0,0.0,2.0037,2.1166,2.1725,2.0853,2.165,2.2206,2.1901,2.3188,2.4117,2.418,2.3763,2.4566,2.7189,2.6067,2.6326,2.8772,2.896,2.9245,2.9789,2.9801,2.9801,2.9801,2.9801,2.9801,2.9792,2.8636,2.8106,2.8054,2.6862,2.6892,2.7844,2.6647,2.6728,2.7653,2.6697,2.6864,2.7699,2.7568,2.8199,2.9327,3.0406,2.9441,2.7744,2.8819,2.7662,2.5706,2.5706,2.5984,2.6406,2.6862,2.7366,2.7839,2.8207,2.8304,2.8304,2.8304,2.8304,2.8304,2.8304,2.8304,2.8304,2.8304,2.8304,2.8304,2.8304,2.9711,3.0903,3.0903,3.0903,3.0903,3.0903,3.0903,3.2797,3.803,3.9297,3.9697,3.9697,3.9697,3.9697,3.9697,3.9697,3.9607,3.9375,3.6957,3.6715,3.9349,3.9607,3.9697,3.9697,3.9697,3.9697,3.9697,3.9697,3.9697,3.9697,3.9697,3.9697,2.1954,2.2373,2.2782,2.1575,2.1889,2.2039,2.0264,1.9995,2.0064,1.9895,0.0,0.0,0.0,0.0,0.0,0.0,2.0498,2.0548,1.8912,1.9545,2.0394,2.0914,2.1321,2.1945,2.2917,2.3065,2.3868,2.5716,2.5193,2.559,2.7415,2.8392,2.9019,2.928,2.9616,2.9801,2.9801,2.9801,2.9801,2.9792,2.8636,2.8106,2.8054,2.6995,2.6749,2.7148,2.6698,2.676,2.7189,2.7361,2.8057,2.906,2.9697,3.0144,3.0429,3.0237,2.951,2.8611,2.8424,2.7186,2.5745,2.6023,2.6406,2.6836,2.7269,2.7708,2.808,2.8255,2.8304,2.8304,2.8304,2.8304,2.8551,2.9621,3.0253,3.0188,2.8631,3.0785,3.2079,2.8913,2.9711,3.0903,3.0903,3.0903,3.0903,3.0903,3.381,3.6902,3.9388,3.9697,3.9697,3.9697,3.9697,3.9697,3.9697,3.9697,3.9697,3.9697,3.8542,3.8412,3.9658,3.9697,3.9697,3.9697,3.9697,3.9697,3.9697,3.9697,3.9697,3.9697,3.9697,3.9697,2.2727,2.2981,2.3201,2.1999,2.1839,2.17,2.0657,2.0333,2.0338,2.0638,2.0224,0.0,0.0,0.0,1.9615,1.9919,0.0,2.0059,1.8217,1.8459,1.8988,1.9417,1.954,2.0181,2.1719,2.1805,2.2406,2.4001,2.3687,2.4255,2.6151,2.7356,2.827,2.8885,2.933,2.9628,2.9801,2.9801,2.9801,2.9792,2.8636,2.8106,2.8054,2.6995,2.6657,2.6944,2.6944,2.7119,2.7464,2.8237,2.9226,3.0318,3.1097,3.1324,3.1101,3.0226,2.9476,2.8785,2.7897,2.6766,2.5786,2.625,2.667,2.7087,2.7565,2.7972,2.8304,2.8304,2.8304,2.8304,2.8304,2.8575,2.9181,3.0501,3.1762,3.2015,2.9568,3.1749,3.3324,3.0419,3.0424,3.0903,3.0903,3.0903,3.0903,3.0903,3.5918,3.9697,3.9697,3.9697,3.9697,3.9697,3.9697,3.9697,3.9697,3.9697,3.9697,3.9697,3.9697,3.9697,3.9697,3.9697,3.9697,3.9697,3.9697,3.9697,3.9697,3.9697,3.9697,3.9697,3.9697,3.9697,2.4874,2.4999,2.4891,2.2343,2.2189,2.2149,2.0187,2.0717,2.146,2.0832,2.17,2.2388,2.1779,2.1625,2.1395,0.0,0.0,0.0,0.0,1.8765,1.7766,1.6755,1.8042,1.9484,2.0641,1.9296,1.9478,2.2176,2.0878,2.1619,2.5431,2.5682,2.6682,2.8834,2.8922,2.9217,2.9789,2.9801,2.9801,2.9792,2.8636,2.8106,2.8054,2.6995,2.7066,2.8056,2.8056,2.8678,2.9704,2.9733,3.038,3.1345,3.1386,3.1324,3.1201,3.1167,2.967,2.7648,2.7613,2.6766,2.5786,2.625,2.667,2.7087,2.7565,2.7972,2.8304,2.8304,2.8304,2.8304,2.8304,2.926,3.0253,3.0317,3.2028,3.3144,3.1303,2.9673,2.9596,3.3119,3.2243,3.0903,3.0903,3.0903,3.0903,3.0903,3.5918,3.9697,3.9697,3.9697,3.9697,3.9697,3.9697,3.9697,3.9697,3.9697,3.9697,3.9697,3.9697,3.9697,3.9697,3.9697,3.9697,3.9697,3.9697,3.9697,3.9697,3.9697,3.9697,3.9697,3.9697,3.9697,2.5373,2.5743,2.5725,2.351,2.3136,2.2777,2.0807,2.1066,2.1515,2.0847,2.1764,2.2508,2.1819,2.17,0.0,0.0,0.0,0.0,0.0,1.6667,1.5974,1.5966,1.7445,1.8619,1.9014,1.8524,1.9051,2.1093,2.0722,2.1437,2.3818,2.5389,2.6695,2.7817,2.853,2.9183,2.9789,2.9801,2.9801,2.9792,2.8636,2.7723,2.7056,2.74,2.7371,2.7117,2.8591,2.9434,2.9826,3.0171,3.0746,3.1434,3.1788,3.1632,3.1201,3.1201,3.0181,2.868,2.7873,2.6969,2.6228,2.667,2.71,2.7542,2.7962,2.8187,2.8304,2.8304,2.8304,2.8495,2.9395,2.9964,3.076,3.258,3.2881,3.2607,3.199,3.1199,3.1037,3.2463,3.4901,3.6715,3.6715,3.6715,3.6715,3.6715,3.8425,3.9697,3.9697,3.9697,3.9697,3.9697,3.9697,3.9697,3.9697,3.9697,3.9697,3.9697,3.9697,3.9697,3.9697,3.9697,3.9697,3.9697,3.9697,3.9697,3.9697,3.9697,3.9697,3.9697,3.9697,3.9697,2.6013,2.6443,2.653,2.4747,2.4492,2.4094,2.1904,2.2278,2.2772,2.1635,2.2463,2.3316,2.3116,2.2523,2.1909,0.0,0.0,0.0,0.0,1.6306,1.5817,1.597,1.6943,1.7596,1.7596,1.742,1.8009,1.9679,1.9629,2.049,2.2701,2.4393,2.5917,2.7261,2.815,2.9004,2.9789,2.9801,2.9801,2.9792,2.8636,2.7733,2.7097,2.7773,2.7713,2.7168,2.9,2.9801,2.9839,3.0372,3.0911,3.1459,3.1991,3.1792,3.1201,3.1201,3.0169,2.8576,2.7352,2.6693,2.6468,2.6862,2.7327,2.7862,2.8744,2.9019,2.9115,2.9581,2.9726,2.9924,3.0785,3.1378,3.2077,3.3353,3.3341,3.2826,3.2006,3.2084,3.2426,3.2908,3.5888,3.8638,3.9531,3.9697,3.9697,3.9697,3.9697,3.9697,3.9697,3.9697,3.9697,3.9697,3.9697,3.9697,3.9697,3.9697,3.9697,3.9697,3.9697,3.9697,3.9697,3.9697,3.9697,3.9697,3.9697,3.9697,3.9697,3.9697,3.9697,3.9697,3.9697,3.9697]},{"header":{"parameterUnit":"m.s-1","parameterCategory":1,"la1":30.6,"la2":29.2853,"lo1":-89.7004,"lo2":-87.6739,"dy":0.0162,"dx":0.0183,"nx":112,"ny":82,"refTime":"2024-10-09T06:00:00:Z","depth":0,"parameterNumber":3,"parameterNumberName":"V-component_of_WINDS"},"data":[0.0,0.0,0.0,0.0,0.0,0.0,0.0,0.0,0.0,0.0,0.0,0.0,0.0,0.0,0.0,0.0,0.0,0.0,0.0,0.0,0.0,0.0,0.0,0.0,0.0,0.0,0.0,0.0,0.0,0.0,0.0,0.0,0.0,0.0,0.0,0.0,0.0,0.0,0.0,0.0,0.0,0.0,0.0,0.0,0.0,0.0,0.0,0.0,0.0,0.0,0.0,0.0,0.0,0.0,0.0,0.0,0.0,0.0,0.0,0.0,0.0,0.0,0.0,0.0,0.0,0.0,0.0,0.0,0.0,0.0,0.0,0.0,0.0,0.0,0.0,0.0,0.0,0.0,0.0,0.0,0.0,0.0,0.0,0.0,0.0,0.0,0.0,0.0,0.0,0.0,2.0355,2.1728,2.3665,2.5041,2.5554,2.4357,2.2598,2.0335,0.0,0.0,0.0,0.0,0.0,0.0,0.0,0.0,0.0,0.0,0.0,0.0,0.0,0.0,0.0,0.0,0.0,0.0,0.0,0.0,0.0,0.0,0.0,0.0,0.0,0.0,0.0,0.0,0.0,0.0,0.0,0.0,0.0,0.0,0.0,0.0,0.0,0.0,0.0,0.0,0.0,0.0,0.0,0.0,0.0,0.0,0.0,0.0,0.0,0.0,0.0,0.0,0.0,0.0,0.0,0.0,0.0,0.0,0.0,0.0,0.0,0.0,0.0,0.0,0.0,0.0,0.0,0.0,0.0,0.0,0.0,0.0,0.0,0.0,0.0,0.0,0.0,0.0,0.0,0.0,0.0,0.0,0.0,0.0,0.0,0.0,0.0,0.0,0.0,0.0,0.0,0.0,0.0,0.0,0.0,0.0,0.0,0.0,0.0,0.0,0.0,0.0,0.0,0.0,2.0565,2.4505,2.5782,2.6154,2.5634,2.4821,2.3387,2.1153,0.0,0.0,0.0,0.0,0.0,0.0,0.0,0.0,0.0,0.0,0.0,0.0,0.0,0.0,0.0,0.0,0.0,0.0,0.0,0.0,0.0,0.0,0.0,0.0,0.0,0.0,0.0,0.0,0.0,0.0,0.0,0.0,0.0,0.0,0.0,0.0,0.0,0.0,0.0,0.0,0.0,0.0,0.0,0.0,0.0,0.0,0.0,0.0,0.0,0.0,0.0,0.0,0.0,0.0,0.0,0.0,0.0,0.0,0.0,0.0,0.0,0.0,0.0,0.0,0.0,0.0,0.0,0.0,0.0,0.0,0.0,0.0,0.0,0.0,0.0,0.0,0.0,0.0,0.0,0.0,0.0,0.0,0.0,0.0,0.0,0.0,0.0,0.0,0.0,0.0,0.0,0.0,0.0,0.0,0.0,0.0,0.0,0.0,0.0,0.0,0.0,0.0,0.0,2.0016,2.2429,2.5296,2.6251,2.6556,2.6218,2.5143,2.3733,2.1908,1.8913,0.0,0.0,0.0,0.0,0.0,0.0,0.0,0.0,0.0,0.0,0.0,0.0,0.0,0.0,0.0,0.0,0.0,0.0,0.0,0.0,0.0,0.0,0.0,0.0,0.0,0.0,0.0,0.0,0.0,0.0,0.0,0.0,0.0,0.0,0.0,0.0,0.0,0.0,0.0,0.0,0.0,0.0,0.0,0.0,0.0,0.0,0.0,0.0,0.0,0.0,0.0,0.0,0.0,0.0,0.0,0.0,0.0,0.0,0.0,0.0,0.0,0.0,0.0,0.0,0.0,0.0,0.0,0.0,0.0,0.0,0.0,0.0,0.0,0.0,0.0,0.0,0.0,0.0,0.0,0.0,0.0,0.0,0.0,0.0,0.0,0.0,0.0,0.0,0.0,0.0,0.0,0.0,0.0,0.0,0.0,0.0,0.0,0.0,0.0,0.0,0.0,0.0,2.2646,2.4222,2.5706,2.6353,2.67,2.67,2.5185,2.3688,2.2388,1.8612,0.0,0.0,0.0,0.0,0.0,0.0,0.0,0.0,0.0,0.0,0.0,0.0,0.0,0.0,0.0,0.0,0.0,0.0,0.0,0.0,0.0,0.0,0.0,0.0,0.0,0.0,0.0,0.0,0.0,0.0,0.0,0.0,0.0,0.0,0.0,0.0,0.0,0.0,0.0,0.0,0.0,0.0,0.0,0.0,0.0,0.0,0.0,0.0,0.0,0.0,0.0,0.0,0.0,0.0,0.0,0.0,0.0,0.0,0.0,0.0,0.0,0.0,0.0,0.0,0.0,0.0,0.0,0.0,0.0,0.0,0.0,0.0,0.0,0.0,0.0,0.0,0.0,0.0,0.0,0.0,0.0,0.0,0.0,0.0,0.0,0.0,0.0,0.0,0.0,0.0,0.0,0.0,0.0,0.0,0.0,0.0,0.0,0.0,0.0,0.0,0.0,0.0,2.309,2.4982,2.6463,2.6666,2.67,2.67,2.4716,2.3139,2.235,1.8132,0.0,0.0,0.0,0.0,0.0,0.0,0.0,0.0,0.0,0.0,0.0,0.0,0.0,0.0,0.0,0.0,0.0,0.0,0.0,0.0,0.0,0.0,0.0,0.0,0.0,0.0,0.0,0.0,0.0,0.0,0.0,0.0,0.0,0.0,0.0,0.0,0.0,0.0,0.0,0.0,0.0,0.0,0.0,0.0,0.0,0.0,0.0,0.0,0.0,0.0,0.0,0.0,0.0,0.0,0.0,0.0,0.0,0.0,0.0,0.0,0.0,0.0,0.0,0.0,0.0,0.0,0.0,0.0,0.0,0.0,0.0,0.0,0.0,0.0,0.0,0.0,0.0,0.0,0.0,0.0,0.0,0.0,0.0,0.0,0.0,0.0,0.0,0.0,0.0,0.0,0.0,0.0,0.0,0.0,0.0,0.0,0.0,0.0,0.0,0.0,0.0,0.0,2.273,2.4551,2.6492,2.67,2.67,2.67,2.5096,2.3586,2.2388,0.0,0.0,0.0,0.0,0.0,0.0,0.0,0.0,0.0,0.0,0.0,0.0,0.0,0.0,0.0,0.0,0.0,0.0,0.0,0.0,0.0,0.0,0.0,0.0,0.0,0.0,0.0,0.0,0.0,0.0,0.0,0.0,0.0,0.0,0.0,0.0,0.0,0.0,0.0,0.0,0.0,0.0,0.0,0.0,0.0,0.0,0.0,0.0,0.0,0.0,0.0,0.0,0.0,0.0,0.0,0.0,0.0,0.0,0.0,0.0,0.0,0.0,0.0,0.0,0.0,0.0,0.0,0.0,0.0,0.0,0.0,0.0,0.0,0.0,0.0,0.0,0.0,0.0,0.0,0.0,0.0,0.0,0.0,0.0,0.0,0.0,0.0,0.0,0.0,0.0,0.0,0.0,0.0,0.0,0.0,0.0,0.0,0.0,0.0,0.0,0.0,0.0,2.1167,2.2845,2.4517,2.6492,2.67,2.67,2.67,2.513,2.3519,2.2036,0.0,0.0,0.0,0.0,0.0,0.0,0.0,0.0,0.0,0.0,0.0,0.0,0.0,0.0,0.0,0.0,0.0,0.0,0.0,0.0,0.0,0.0,0.0,0.0,0.0,0.0,0.0,0.0,0.0,0.0,0.0,0.0,0.0,0.0,0.0,0.0,0.0,0.0,0.0,0.0,0.0,0.0,0.0,0.0,0.0,0.0,0.0,0.0,0.0,0.0,0.0,0.0,0.0,0.0,0.0,0.0,0.0,0.0,0.0,0.0,0.0,0.0,0.0,0.0,0.0,0.0,0.0,0.0,0.0,0.0,0.0,0.0,0.0,0.0,0.0,0.0,0.0,0.0,0.0,0.0,0.0,0.0,0.0,0.0,0.0,0.0,0.0,0.0,0.0,0.0,0.0,0.0,0.0,0.0,0.0,0.0,0.0,0.0,0.0,0.0,0.0,0.0,2.1907,2.3586,2.507,2.6543,2.67,2.67,2.67,2.4682,2.2771,0.0,0.0,0.0,0.0,0.0,0.0,0.0,0.0,0.0,0.0,0.0,0.0,0.0,0.0,0.0,0.0,0.0,0.0,0.0,0.0,0.0,0.0,0.0,0.0,0.0,0.0,0.0,0.0,0.0,0.0,0.0,0.0,0.0,0.0,0.0,0.0,0.0,0.0,0.0,0.0,0.0,0.0,0.0,0.0,0.0,0.0,0.0,0.0,0.0,0.0,0.0,0.0,0.0,0.0,0.0,0.0,0.0,0.0,0.0,0.0,0.0,0.0,0.0,0.0,0.0,0.0,0.0,0.0,0.0,0.0,0.0,0.0,0.0,0.0,0.0,0.0,0.0,0.0,0.0,0.0,0.0,0.0,0.0,0.0,0.0,0.0,0.0,0.0,0.0,0.0,0.0,0.0,0.0,0.0,0.0,0.0,0.0,0.0,0.0,0.0,0.0,0.0,0.0,2.1907,2.3586,2.507,2.6543,2.67,2.67,2.67,2.5147,2.3556,2.207,0.0,0.0,0.0,0.0,0.0,0.0,0.0,0.0,0.0,0.0,0.0,0.0,0.0,0.0,0.0,0.0,0.0,0.0,0.0,0.0,0.0,0.0,0.0,0.0,0.0,0.0,0.0,0.0,0.0,0.0,0.0,0.0,0.0,0.0,0.0,0.0,0.0,0.0,0.0,0.0,0.0,0.0,0.0,0.0,0.0,0.0,0.0,0.0,0.0,0.0,0.0,0.0,0.0,0.0,0.0,0.0,0.0,0.0,0.0,0.0,0.0,0.0,0.0,0.0,0.0,0.0,0.0,0.0,0.0,0.0,0.0,0.0,0.0,0.0,0.0,0.0,0.0,0.0,0.0,0.0,0.0,0.0,0.0,0.0,0.0,0.0,0.0,0.0,0.0,0.0,0.0,0.0,0.0,0.0,0.0,0.0,0.0,0.0,0.0,0.0,0.0,0.0,2.1907,2.3586,2.507,2.6543,2.67,2.67,2.67,2.5354,2.3874,2.2384,0.0,0.0,0.0,0.0,0.0,0.0,0.0,0.0,0.0,0.0,0.0,0.0,0.0,0.0,0.0,0.0,0.0,0.0,0.0,0.0,0.0,0.0,0.0,0.0,0.0,0.0,0.0,0.0,0.0,0.0,0.0,0.0,0.0,0.0,0.0,0.0,0.0,0.0,0.0,0.0,0.0,0.0,0.0,0.0,0.0,0.0,0.0,0.0,0.0,0.0,0.0,0.0,0.0,0.0,0.0,0.0,0.0,0.0,0.0,0.0,0.0,0.0,0.0,0.0,0.0,0.0,0.0,0.0,0.0,0.0,0.0,0.0,0.0,0.0,0.0,0.0,0.0,0.0,0.0,0.0,0.0,0.0,0.0,0.0,0.0,0.0,0.0,0.0,0.0,0.0,0.0,0.0,0.0,0.0,0.0,0.0,0.0,0.0,0.0,0.0,0.0,0.0,2.1928,2.3654,2.5134,2.6547,2.67,2.67,2.67,2.5401,2.3975,2.2506,0.0,0.0,0.0,0.0,0.0,0.0,0.0,0.0,0.0,0.0,0.0,0.0,0.0,0.0,0.0,0.0,0.0,0.0,0.0,0.0,0.0,0.0,0.0,0.0,0.0,0.0,0.0,0.0,0.0,0.0,0.0,0.0,0.0,0.0,0.0,0.0,0.0,0.0,0.0,0.0,0.0,0.0,0.0,0.0,0.0,0.0,0.0,0.0,0.0,0.0,0.0,0.0,0.0,0.0,0.0,0.0,0.0,0.0,0.0,0.0,1.4335,1.3874,0.0,0.0,0.0,0.0,0.0,0.0,0.0,0.0,0.0,0.0,0.0,0.0,0.0,0.0,0.0,0.0,0.0,0.0,0.0,0.0,0.0,0.0,0.0,0.0,0.0,0.0,0.0,0.0,0.0,0.0,0.0,0.0,0.0,0.0,0.0,0.0,0.0,0.0,0.0,0.0,2.1995,2.4099,2.571,2.6594,2.67,2.67,2.67,2.5879,2.4746,2.3257,2.0424,0.0,0.0,0.0,0.0,0.0,0.0,0.0,0.0,0.0,0.0,0.0,0.0,0.0,0.0,0.0,0.0,0.0,0.0,0.0,0.0,0.0,0.0,0.0,0.0,0.0,0.0,0.0,0.0,0.0,0.0,0.0,0.0,0.0,0.0,0.0,0.0,0.0,0.0,0.0,0.0,0.0,0.0,0.0,0.0,0.0,0.0,0.0,0.0,0.0,0.0,0.0,0.0,0.0,0.0,0.0,0.0,0.0,0.0,0.0,1.7105,1.6334,0.0,0.0,0.0,0.0,0.0,0.0,0.0,0.0,0.0,0.0,0.0,0.0,0.0,0.0,0.0,0.0,0.0,0.0,0.0,0.0,0.0,0.0,0.0,0.0,0.0,0.0,0.0,0.0,0.0,0.0,0.0,0.0,0.0,0.0,0.0,0.0,0.0,0.0,0.0,0.0,2.2544,2.4451,2.5875,2.6628,2.67,2.67,2.67,2.6027,2.5279,2.4509,2.1823,0.0,0.0,0.0,0.0,0.0,0.0,0.0,0.0,0.0,0.0,0.0,0.0,0.0,0.0,0.0,0.0,0.0,0.0,0.0,0.0,0.0,0.0,0.0,0.0,0.0,0.0,0.0,0.0,0.0,0.0,0.0,0.0,0.0,0.0,0.0,0.0,0.0,0.0,0.0,0.0,0.0,0.0,0.0,0.0,0.0,0.0,0.0,0.0,0.0,0.0,0.0,0.0,0.0,2.1405,2.1146,2.1206,2.1206,2.1814,2.2703,1.9935,1.9084,1.9621,1.9155,0.0,0.0,0.0,0.0,0.0,0.0,0.0,0.0,0.0,0.0,0.0,0.0,0.0,0.0,0.0,0.0,0.0,0.0,0.0,0.0,0.0,0.0,2.1507,2.205,2.3064,2.2777,1.8621,0.0,0.0,0.0,0.0,0.0,0.0,0.0,0.0,0.0,0.0,0.0,2.3316,2.4996,2.6264,2.7021,2.7106,2.7106,2.7106,2.6416,2.5922,2.5803,2.332,2.1484,0.0,0.0,0.0,0.0,0.0,0.0,0.0,0.0,0.0,0.0,0.0,0.0,0.0,0.0,0.0,0.0,0.0,0.0,0.0,0.0,0.0,0.0,0.0,0.0,0.0,0.0,0.0,0.0,0.0,0.0,0.0,0.0,1.1122,1.2264,0.0,0.0,0.0,0.0,0.0,0.0,0.0,0.0,0.0,0.0,0.0,0.0,0.0,1.6376,1.8135,2.1774,2.3525,2.334,2.2163,2.2173,2.3221,2.3221,2.331,2.345,2.3011,0.0,2.1759,2.0216,0.0,0.0,0.0,0.0,0.0,0.0,0.0,0.0,0.0,0.0,0.0,0.0,0.0,0.0,0.0,0.0,0.0,0.0,0.0,0.0,0.0,0.0,2.5489,2.4992,2.5034,2.4985,2.4317,2.2408,2.0473,1.9245,1.8547,1.7954,0.0,0.0,0.0,0.0,0.0,0.0,2.4152,2.6196,2.7816,2.8616,2.8705,2.8705,2.8705,2.7972,2.7241,2.6594,2.5255,2.4037,2.2993,2.0534,0.0,0.0,0.0,0.0,0.0,0.0,0.0,0.0,0.0,0.0,0.0,0.0,0.0,0.0,0.0,0.0,0.0,0.0,0.0,0.0,0.0,0.0,0.0,0.0,0.0,0.0,0.0,0.0,0.0,1.058,1.2295,1.3442,1.3969,1.4263,0.0,0.0,0.0,0.0,0.0,0.0,0.0,0.0,0.0,1.8563,1.8195,1.9967,2.4096,2.5279,2.5842,2.5827,2.4522,2.4173,2.4756,2.5501,2.5842,2.5887,2.6644,2.6764,2.6165,2.3141,2.1244,2.0283,0.0,0.0,0.0,0.0,2.1112,2.1339,2.2353,2.2794,2.2929,2.2883,0.0,0.0,0.0,0.0,0.0,0.0,0.0,2.5034,2.5618,2.7161,2.8611,2.8734,2.9093,2.9273,2.8859,2.7784,2.6051,2.3148,2.2292,2.1534,1.9987,2.0054,0.0,0.0,0.0,2.4687,2.6159,2.7604,2.8611,2.8959,2.8993,2.8993,2.8993,2.8679,2.8189,2.7525,2.6584,2.5543,2.4396,2.2417,2.0402,0.0,0.0,0.0,0.0,0.0,0.0,0.0,0.0,0.0,0.0,0.0,0.0,0.0,0.0,0.0,0.0,0.0,0.0,0.0,0.0,0.0,0.0,0.0,0.0,0.0,0.0,0.0,0.0,1.1977,1.3455,1.4584,1.5377,1.582,0.0,0.0,0.0,0.0,0.0,0.0,1.8944,2.0224,2.1585,2.2952,2.1824,2.3267,2.7555,2.7606,2.7606,2.7591,2.6584,2.6461,2.7137,2.8143,2.8605,2.8696,3.0402,3.0937,3.0338,2.6651,2.4188,2.2952,2.5011,2.5309,2.463,2.5159,2.5029,2.4847,2.6551,2.7034,2.6888,2.6782,2.6363,2.5597,2.393,0.0,0.0,0.0,0.0,2.8124,2.933,3.0354,3.1231,3.1783,3.2337,3.258,3.2038,3.1833,3.0622,2.6769,2.5776,2.4942,2.2957,2.3054,0.0,2.344,2.4992,2.6628,2.7946,2.8789,2.9356,2.9547,2.9564,2.9564,2.9564,2.9394,2.9087,2.8644,2.7728,2.6803,2.5895,2.4325,2.2511,2.0461,0.0,0.0,0.0,0.0,0.0,0.0,0.0,0.0,0.0,0.0,0.0,0.0,0.0,0.0,0.0,0.0,0.0,0.0,0.0,0.0,0.0,0.0,0.0,0.0,0.0,0.0,0.0,0.0,0.0,1.6247,1.6917,0.0,0.0,0.0,0.0,1.9427,2.0717,2.1744,2.2413,2.3659,2.4517,2.4856,2.5156,2.6039,2.7585,2.7606,2.7606,2.7606,2.7525,2.8793,3.1212,3.1271,3.1294,3.1451,3.4135,3.4588,3.3195,3.0424,2.9963,3.1127,3.2396,3.1662,3.0018,3.0855,3.0011,2.8527,2.9199,2.9065,2.887,3.0612,3.1023,3.0603,2.9306,2.8803,0.0,0.0,2.9995,3.1046,3.1301,3.2301,3.3257,3.3291,3.3325,3.3342,3.3308,3.3295,3.2403,2.9384,2.8178,2.7392,2.6552,0.0,2.648,2.648,2.7173,2.7997,2.8831,2.9583,3.0306,3.1009,3.1099,3.1099,3.1099,3.0446,3.0021,2.9993,2.8764,2.8005,2.7953,2.6223,2.4611,2.322,2.0783,0.0,0.0,0.0,0.0,0.0,0.0,0.0,0.0,0.0,0.0,0.0,0.0,0.0,0.0,0.0,0.0,0.0,0.0,0.0,0.0,0.0,0.0,0.0,0.0,0.0,0.0,0.0,0.0,1.7948,1.9335,0.0,2.0064,2.1019,2.1799,2.2183,2.3046,2.3853,2.4522,2.5815,2.6764,2.7303,2.7033,2.7527,2.8866,2.9699,3.0104,3.0104,3.0104,3.1071,3.2817,3.1916,3.1992,3.2891,3.3569,3.3931,3.3949,3.269,3.2452,3.2844,3.2406,3.2163,3.1992,3.1717,3.1154,3.065,3.1267,3.1325,3.1249,3.1824,3.1965,3.1818,3.1365,3.151,3.1854,3.1922,3.26,3.3341,3.3406,3.4122,3.4827,3.4827,3.4827,3.4827,3.4827,3.4449,3.3801,3.274,3.1539,3.0451,2.9723,2.9593,2.9593,2.9593,3.0214,3.0975,3.1732,3.2065,3.2313,3.2594,3.2193,3.1916,3.1916,3.1229,3.0638,3.025,2.9781,2.8974,2.7761,2.6676,2.5293,2.3561,2.1864,1.9675,0.0,0.0,0.0,0.0,0.0,0.0,0.0,0.0,0.0,0.0,0.0,0.0,0.0,0.0,0.0,0.0,0.0,0.0,0.0,0.0,0.0,0.0,0.0,0.0,0.0,1.6308,1.7921,1.9485,2.1055,2.2204,2.2706,2.3682,2.458,2.5238,2.5708,2.624,2.6916,2.7782,2.8477,2.8928,2.8635,2.8898,2.9789,3.0935,3.1739,3.2208,3.2208,3.2698,3.3576,3.3094,3.3226,3.3846,3.3818,3.3906,3.406,3.3968,3.3943,3.3847,3.2957,3.3137,3.3805,3.318,3.2944,3.3013,3.3409,3.3556,3.3534,3.3447,3.3603,3.3816,3.3816,3.433,3.4923,3.4923,3.5261,3.5645,3.5645,3.5825,3.6005,3.6005,3.5797,3.56,3.56,3.5222,3.4872,3.4872,3.3682,3.252,3.2024,3.1935,3.1935,3.1935,3.2363,3.2853,3.3333,3.3401,3.3401,3.3401,3.2955,3.2576,3.2327,3.1623,3.0848,3.0026,2.9544,2.8549,2.6892,2.6198,2.5042,2.3326,2.2024,2.0269,1.8027,0.0,0.0,0.0,0.0,0.0,0.0,0.0,0.0,0.0,0.0,0.0,0.0,0.0,0.0,0.0,0.0,0.0,0.0,0.0,0.0,0.0,0.0,0.0,1.6581,1.8017,1.9583,2.0946,2.206,2.33,2.477,2.5462,2.6608,2.8493,2.8622,2.8928,2.9593,2.963,2.9645,2.966,3.0044,3.024,3.024,3.1172,3.2295,3.3624,3.3697,3.371,3.3736,3.5053,3.5198,3.4468,3.5285,3.4918,3.378,3.4429,3.469,3.4673,3.4616,3.5039,3.5639,3.5639,3.565,3.5667,3.5667,3.5667,3.5667,3.5667,3.6197,3.6823,3.6823,3.7336,3.7899,3.7899,3.7899,3.7899,3.7899,3.737,3.6823,3.6823,3.6231,3.5667,3.5667,3.5667,3.5667,3.5667,3.4529,3.3536,3.348,3.3469,3.3469,3.3469,3.3469,0.0,3.3469,3.3469,3.3469,3.3469,3.3452,3.3158,3.2429,3.1674,3.0699,2.9436,2.8102,2.6835,2.5648,2.4989,2.4055,2.2778,2.1435,2.011,1.8783,0.0,0.0,0.0,0.0,0.0,0.0,0.0,0.0,0.0,0.0,0.0,0.0,0.0,0.0,0.0,0.0,0.0,0.0,0.0,0.0,0.0,1.7226,1.8312,1.8312,1.976,2.147,2.3246,2.4583,2.5904,2.7279,2.8082,2.8747,2.928,2.9324,2.9593,3.023,3.0253,3.0477,3.0965,3.1077,3.1145,3.1145,3.3449,3.4462,3.4203,3.59,3.6437,3.5932,3.65,3.6813,3.6884,3.6593,3.6556,3.6739,3.6931,3.6768,3.629,3.5077,3.5373,3.6473,3.6473,3.6806,3.7268,3.7268,3.7268,3.7268,3.7268,3.7426,3.7601,3.7601,3.773,3.7899,3.7899,3.7899,3.7899,3.7899,3.7753,3.7601,3.7601,3.7426,3.7268,3.7268,3.7268,3.7268,3.7268,3.693,3.631,3.5182,3.4997,3.4997,3.4997,3.4997,3.4997,3.4997,3.4997,3.4997,3.4997,3.4517,3.4127,3.3907,3.2728,3.1624,3.0726,2.9458,2.8388,2.7555,2.6529,2.5379,2.4098,2.2807,2.1734,0.0,0.0,0.0,0.0,0.0,0.0,0.0,0.0,0.0,0.0,0.0,0.0,0.0,0.0,0.0,0.0,0.0,0.0,0.0,0.0,0.0,0.0,1.9146,2.0596,2.1177,2.2092,2.3423,2.5353,2.6556,2.7776,2.9154,2.9704,3.0095,3.0372,3.0402,3.0665,3.1308,3.1338,3.1645,3.2318,3.2347,3.2347,3.2347,3.4326,3.5202,3.4963,3.6638,3.7385,3.7269,3.7421,3.7644,3.7882,3.7446,3.7331,3.7452,3.7781,3.753,3.6915,0.0,0.0,0.0,0.0,3.7533,3.7899,3.7899,3.7899,3.7899,3.7899,3.8102,3.8362,3.8362,3.8582,3.8825,3.8825,3.8825,3.8825,3.8825,3.8582,3.8362,3.8362,3.8119,3.7899,3.7899,3.7899,3.7899,3.7899,3.7899,0.0,3.6727,3.6558,3.6558,3.6558,3.6558,3.6456,3.6141,3.609,3.5966,3.5639,3.5222,3.4844,3.4528,3.3151,0.0,0.0,0.0,2.7948,2.6798,2.5813,0.0,0.0,0.0,0.0,0.0,0.0,0.0,0.0,2.1949,2.1974,0.0,0.0,0.0,0.0,0.0,0.0,0.0,0.0,0.0,0.0,0.0,0.0,0.0,0.0,0.0,0.0,2.1198,2.3074,2.4363,2.4784,2.5573,2.7247,2.8075,2.9077,3.0482,3.0605,3.0897,3.1563,3.1615,3.1906,3.2579,3.2602,0.0,0.0,0.0,3.3538,3.363,3.4497,3.5291,3.5972,3.6786,3.7515,3.8153,3.8153,3.8153,3.8153,3.8153,3.7788,3.722,3.7884,3.7753,3.7233,3.7796,3.8272,3.8593,3.8272,3.8153,3.8153,3.8153,0.0,0.0,3.8153,3.8582,3.9113,3.9113,3.9576,4.0096,4.0096,4.0096,4.0096,4.0096,3.9609,3.9113,3.9113,3.8616,3.8153,3.8153,3.8153,3.8153,3.8153,3.8153,3.8153,3.8153,3.8018,3.7899,3.7899,3.7899,3.7663,3.701,3.6925,3.6643,3.5949,3.5774,0.0,3.4816,3.3405,3.203,3.0804,2.8793,2.6901,2.523,2.4586,2.4517,2.5038,2.5708,2.6342,2.6944,2.8203,2.8885,2.8944,2.5228,2.4444,0.0,0.0,0.0,0.0,0.0,0.0,0.0,0.0,0.0,0.0,0.0,0.0,0.0,0.0,0.0,2.1467,2.3336,2.4804,2.5305,2.7145,2.8568,2.8921,2.9117,2.9762,3.1162,3.1316,3.1578,3.2258,3.231,3.2602,3.3275,3.3305,3.3372,3.3507,3.3507,3.3804,3.4465,3.575,3.6784,3.7577,3.885,0.0,3.966,3.966,3.966,3.966,3.966,3.9581,3.947,3.9616,3.9581,3.9419,3.8968,3.8836,3.8977,3.9491,3.966,3.966,3.966,3.966,3.966,3.966,3.9768,3.9886,3.9886,3.9988,0.0,4.0096,4.0096,4.0096,4.0096,3.9988,3.9886,3.9886,3.9785,3.966,3.966,3.966,3.966,3.966,3.966,3.966,3.966,3.869,3.7899,3.7899,3.7899,3.7849,3.7713,3.7686,3.7635,3.7471,3.6924,3.6513,3.6366,3.4956,3.3713,3.287,3.0925,2.9441,2.8668,2.8512,2.8246,2.7837,2.8479,2.8889,2.9024,2.9766,3.068,3.1697,2.9347,2.8725,0.0,0.0,0.0,0.0,0.0,0.0,0.0,0.0,0.0,0.0,0.0,1.8424,1.929,0.0,2.2184,2.3017,2.4422,2.5753,2.6765,2.8231,2.9202,2.9202,2.9942,3.0866,3.19,3.1996,3.2288,3.2953,3.2998,3.329,3.3964,3.3994,3.4151,3.4487,3.4856,3.5232,3.5646,3.7112,3.8048,3.8467,3.9569,4.0096,4.0096,4.0096,4.0096,4.0096,4.0096,4.0096,4.0096,4.0096,4.0096,4.0056,3.9694,3.9542,3.9599,3.9954,4.0096,4.0096,4.0096,4.0096,4.0096,4.0096,4.0096,4.0096,4.0096,4.0096,4.0096,4.0096,4.0096,4.0096,4.0096,4.0096,4.0096,4.0096,4.0096,4.0096,4.0096,4.0096,4.0096,4.0096,4.0096,4.0096,4.0096,3.9491,3.8994,3.8994,3.8994,3.8876,3.8497,3.8447,3.8311,3.7933,3.7567,3.7353,3.7353,3.631,3.5189,3.4125,3.2766,3.1759,3.1164,3.0769,3.0395,3.0053,3.0709,3.1046,3.1046,3.1689,3.2512,3.3477,3.2497,3.2033,0.0,0.0,0.0,0.0,0.0,0.0,0.0,1.6322,1.6997,1.8115,1.9566,2.0897,2.1821,2.2859,2.3742,2.423,2.5409,2.6684,2.7929,2.8901,2.9426,2.927,3.0708,3.1914,3.2452,3.2624,3.2968,3.3634,3.3687,3.3986,3.4652,3.4682,3.4944,3.5481,3.622,3.6684,3.6828,3.8215,3.8975,3.9139,3.9789,4.0096,4.0096,4.0096,4.0096,4.0096,4.0096,4.0096,4.0096,4.0096,4.0096,4.0096,4.0096,4.0096,4.0096,4.0096,4.0096,4.0096,4.0096,4.0096,4.0096,4.0096,4.0096,4.0096,4.0096,4.0096,4.0096,4.0096,4.0096,4.0096,4.0096,4.0096,4.0096,4.0096,4.0096,4.0096,4.0096,4.0096,4.0096,4.0096,4.0096,4.0096,4.0096,4.0096,4.0096,4.0096,4.0096,3.9886,3.9288,3.9214,3.8994,3.8396,3.821,3.8058,3.791,3.7353,3.6524,3.5382,3.4628,3.3995,3.3517,3.2752,3.2338,3.2338,3.2845,3.3103,3.3103,3.3636,3.4166,3.4705,3.4841,3.454,1.6507,1.5136,1.448,1.6231,1.6087,1.631,0.0,2.009,2.0453,2.1531,2.2698,2.3565,2.3703,2.4594,2.5335,2.541,2.7219,2.8429,2.7844,2.9762,3.0962,3.0246,3.1477,3.2422,3.2482,3.3036,3.3672,3.4346,3.4391,3.4682,3.5355,3.5385,3.5421,3.5496,3.622,3.6934,3.7653,3.849,3.9262,3.9976,4.0058,4.0096,4.0096,4.0096,4.0096,4.0096,4.0096,4.0096,4.0096,4.0096,4.0096,4.0096,4.0096,4.0096,4.0096,4.0096,4.0096,4.0096,4.0096,4.0096,4.0096,4.0096,4.0096,4.0096,4.0096,4.0096,4.0096,4.0096,4.0096,4.0096,4.0096,4.0096,4.0096,4.0096,4.0096,4.0096,4.0096,4.0096,4.0096,4.0096,4.0096,4.0096,4.0096,4.0096,4.0096,4.0096,4.0096,4.0079,3.9988,3.9977,3.9954,3.9852,3.9271,3.8616,3.7967,3.7815,3.7707,3.7557,3.6844,3.641,3.6346,3.5686,3.5316,3.5316,3.5273,3.5257,3.5257,3.527,3.5302,3.5401,3.6051,3.5973,1.909,1.8418,1.8159,1.9509,1.9837,2.0264,2.1896,2.2567,2.3065,2.3833,2.4488,2.5238,2.6269,2.6644,2.6995,2.75,2.8371,2.905,2.9192,3.0125,3.0851,3.0984,3.1886,3.2647,3.3043,3.3335,3.3941,3.5004,3.5078,3.519,3.5481,3.5496,3.5496,3.5496,3.622,3.6987,3.7784,3.8532,3.9302,4.0096,4.0096,4.0096,4.0096,4.0096,4.0096,4.0096,4.0096,4.0096,4.0096,4.0096,4.0096,4.0096,4.0096,4.0096,4.0096,4.0096,4.0096,4.0096,4.0096,4.0096,4.0096,4.0096,4.0096,4.0096,4.0096,4.0096,4.0096,4.0096,4.0096,4.0096,4.0096,4.0096,4.0096,4.0096,4.0096,4.0096,4.0096,4.0096,4.0096,4.0096,4.0096,4.0096,4.0096,4.0096,4.0096,4.0096,4.0096,4.0096,4.0096,4.0096,4.0096,4.0096,3.9819,3.9531,3.9203,3.918,3.918,3.918,3.8456,3.8028,3.8028,3.7341,3.674,3.6263,3.6206,3.5976,3.5541,3.5501,3.5496,3.5504,3.5822,3.6015,2.0864,2.0757,2.0896,2.2133,2.2848,2.342,2.4099,2.4865,2.5559,2.5952,2.6111,2.664,2.8138,2.8031,2.7986,2.886,2.9332,2.9765,3.023,3.0647,3.1057,3.1453,3.1936,3.2482,3.3155,3.3567,3.4255,3.5406,3.5496,3.5496,3.5496,3.5496,3.5496,3.5496,3.6422,3.7219,3.7784,3.8754,3.9516,4.0096,4.0096,4.0096,4.0096,4.0096,4.0096,4.0096,4.0096,4.0096,4.0096,4.0096,4.0096,4.0096,4.0096,4.0096,4.0096,4.0096,4.0096,4.0096,4.0096,4.0096,4.0096,4.0096,4.0096,4.0096,4.0096,4.0096,4.0096,4.0096,4.0096,4.0096,4.0096,4.0096,4.0096,4.0096,4.0096,4.0096,4.0096,4.0096,4.0096,4.0096,4.0096,4.0096,4.0096,4.0096,4.0096,4.0096,4.0096,4.0096,4.0096,4.0096,4.0096,4.0096,4.0096,4.0096,4.0096,4.0096,4.0096,4.0096,3.9548,3.9236,3.9236,3.872,3.8055,3.7255,3.7039,3.6554,3.5806,3.5595,3.5603,3.5814,3.6029,3.6538,2.0864,2.0757,2.1117,2.3305,2.4095,2.4713,2.609,2.7272,2.809,2.8104,2.7861,2.791,2.8816,2.8282,2.7986,2.886,3.0194,3.0946,3.0385,3.1522,3.2198,3.1563,3.1525,3.1795,3.2467,3.3717,3.4757,3.5444,3.5496,3.5496,3.5496,3.5496,3.5496,3.5496,3.6973,3.7786,3.7807,3.9305,4.0077,4.0096,4.0096,4.0096,4.0096,4.0096,4.0096,4.0096,4.0096,4.0096,4.0096,4.0096,4.0096,4.0096,4.0096,4.0096,4.0096,4.0096,4.0096,4.0096,4.0096,4.0096,4.0096,4.0096,4.0096,4.0096,4.0096,4.0096,4.0096,4.0096,4.0096,4.0096,4.0096,4.0096,4.0096,4.0096,4.0096,4.0096,4.0096,4.0096,4.0096,4.0096,4.0096,4.0096,4.0096,4.0096,4.0096,4.0096,4.0096,4.0096,4.0096,4.0096,4.0096,4.0096,4.0096,4.0096,4.0096,4.0096,4.0096,4.0096,4.0077,4.0064,4.0064,4.0045,3.9649,3.8847,3.8135,3.7375,3.6554,3.5847,3.5871,3.6592,3.7375,3.813,2.2987,2.3592,2.4354,2.6492,2.7362,2.783,2.8267,2.8552,2.8894,2.9463,2.8236,2.7644,2.9628,2.9323,2.9037,2.9856,3.1153,3.1841,3.1183,3.2296,3.2759,3.1623,3.1892,3.225,3.2482,3.2908,3.3634,3.4757,3.4832,3.5034,3.5481,3.5496,3.5496,3.5496,3.6477,3.7264,3.7784,3.8802,3.9578,4.0096,4.0096,4.0096,4.0096,4.0096,4.0096,4.0096,4.0096,4.0096,4.0096,4.0096,4.0096,4.0096,4.0096,4.0096,4.0096,4.0096,4.0096,4.0096,4.0096,4.0096,4.0096,4.0096,4.0096,4.0096,4.0096,4.0096,4.0096,4.0096,4.0096,4.0096,4.0096,4.0096,4.0096,4.0096,4.0096,4.0096,4.0096,4.0096,4.0096,4.0096,4.0096,4.0096,4.0096,4.0096,4.0096,4.0096,4.0096,4.0096,4.0096,4.0096,4.0096,4.0096,4.0096,4.0096,4.0096,4.0096,4.0096,4.0096,4.0096,4.0096,4.0096,4.0096,3.9724,3.8915,3.8656,3.8161,3.7404,3.7145,3.7411,3.8129,3.8389,3.9216,2.478,2.5719,2.6656,2.8748,2.95,2.9783,3.0032,2.9988,2.997,3.0308,2.8714,2.779,2.951,2.8947,2.866,2.9971,3.1271,3.2071,3.1884,3.3013,3.3447,3.2347,3.2602,3.2863,3.2863,3.2863,3.3305,3.4421,3.4712,3.5048,3.5481,3.5496,3.5496,3.5496,3.6492,3.7286,3.7784,3.8816,3.9597,4.0096,4.0096,4.0096,4.0096,4.0096,4.0096,4.0096,4.0096,4.0096,4.0096,4.0096,4.0096,4.0096,4.0096,4.0096,4.0096,4.0096,4.0096,4.0096,4.0096,4.0096,4.0096,4.0096,4.0096,4.0096,4.0096,4.0096,4.0096,4.0096,4.0096,4.0096,4.0096,4.0096,4.0096,4.0096,4.0096,4.0096,4.0096,4.0096,4.0096,4.0096,4.0096,4.0096,4.0096,4.0096,4.0096,4.0096,4.0096,4.0096,4.0096,4.0096,4.0096,4.0096,4.0096,4.0096,4.0096,4.0096,4.0096,4.0096,4.0096,4.0096,4.0096,4.0096,3.9724,3.8915,3.9178,3.8951,3.8188,3.8459,3.8988,3.9725,3.9725,4.0536,2.6165,2.708,2.7958,3.0027,3.0455,3.0561,3.1336,3.1445,3.1198,3.0538,2.9203,2.8205,2.8366,2.728,2.7051,2.9165,3.068,3.1809,3.2422,3.3687,3.4293,3.3574,3.3537,3.3537,3.3507,3.3537,3.3806,3.4451,3.5093,3.5466,3.5496,3.5496,3.5521,3.5554,3.7026,3.7829,3.7849,3.9338,4.0096,4.0096,4.0096,4.0096,4.0096,4.0096,4.0096,4.0096,4.0096,4.0096,4.0096,4.0096,4.0096,4.0096,4.0096,4.0096,4.0096,4.0096,4.0096,4.0096,4.0096,4.0096,4.0096,4.0096,4.0096,4.0096,4.0096,4.0096,4.0096,4.0096,4.0096,4.0096,4.0096,4.0096,4.0096,4.0096,4.0096,4.0096,4.0096,4.0096,4.0096,4.0096,4.0096,4.0096,4.0096,4.0096,4.0096,4.0096,4.0096,4.0096,4.0096,4.0096,4.0096,4.0096,4.0096,4.0096,4.0096,4.0096,4.0096,4.0096,4.0096,4.0096,4.0096,4.0146,3.98,3.9035,3.9795,3.9837,3.9086,3.9774,4.0531,4.1302,4.1302,4.2077,2.7679,2.8871,2.995,3.0975,3.1217,3.1248,3.1445,3.066,2.971,2.9189,2.7465,2.5972,2.5673,2.6517,2.7446,2.8017,3.0865,3.2878,3.2542,3.4075,3.4809,3.3634,3.3934,3.4054,3.3552,3.3949,3.4316,3.4496,3.466,3.4974,3.5466,3.5496,3.575,3.6306,3.7279,3.8064,3.8615,3.9604,4.0096,4.0096,4.0096,4.0096,4.0096,4.0096,4.0096,4.0096,4.0096,4.0096,4.0096,4.0096,4.0096,4.0096,4.0096,4.0096,4.0096,4.0096,4.0096,4.0096,4.0096,4.0096,4.0096,4.0096,4.0096,4.0096,4.0096,4.0096,4.0096,4.0096,4.0096,4.0096,4.0096,4.0096,4.0096,4.0096,4.0096,4.0096,4.0096,4.0096,4.0096,4.0096,4.0096,4.0096,4.0096,4.0096,4.0096,4.0096,4.0096,4.0096,4.0096,4.0096,4.0096,4.0096,4.0096,4.0096,4.0096,4.0096,4.0096,4.0096,4.0096,4.0096,4.0096,4.0635,4.0815,4.0622,4.1359,4.1631,4.143,4.1621,4.2095,4.2848,4.2848,4.3356,2.9086,3.0171,3.1024,3.1406,3.1503,3.1286,3.0426,2.9593,2.8575,2.7145,2.5614,2.4394,2.3866,2.4902,2.6126,2.7025,2.9997,3.2362,3.2863,3.4419,3.522,3.4472,3.4704,3.4794,3.4412,3.4719,3.4937,3.4937,3.4937,3.5108,3.5481,3.5496,3.5693,3.6102,3.722,3.8325,3.9424,3.9859,4.0096,4.0096,4.0096,4.0096,4.0096,4.0096,4.0096,4.0096,4.0096,4.0096,4.0096,4.0096,4.0096,4.0096,4.0096,4.0096,4.0096,4.0096,4.0096,4.0096,4.0096,4.0096,4.0096,4.0096,4.0096,4.0096,4.0096,4.0096,4.0096,4.0096,4.0096,4.0096,4.0096,4.0096,4.0096,4.0096,4.0096,4.0096,4.0096,4.0096,4.0096,4.0096,4.0096,4.0096,4.0096,4.0377,4.0584,4.0584,4.0584,4.0584,4.0584,4.0309,4.0096,4.0096,4.0096,4.0096,4.0096,4.0096,4.0096,4.0096,4.0405,4.0584,4.0584,4.1295,4.1677,4.1677,4.2405,4.277,4.277,4.3146,4.3528,4.3927,4.3927,4.4171,3.0313,3.1054,3.1503,3.1503,3.1429,3.089,2.9019,2.8457,2.7583,2.4894,2.3808,2.3136,2.2433,2.3007,2.4223,2.6144,2.8742,3.1203,3.3223,3.4577,3.54,3.5481,3.5496,3.5496,3.5496,3.5496,3.5496,3.5496,3.5496,3.5496,3.5496,3.5496,3.5587,3.5805,3.7302,3.875,4.0083,4.0096,4.0096,4.0096,4.0096,4.0096,4.0096,4.0096,4.0096,4.0096,4.0096,4.0096,4.0096,4.0096,4.0096,4.0096,4.0096,4.0096,4.0096,4.0096,4.0096,4.0096,4.0096,4.0096,4.0096,4.0096,4.0096,4.0096,4.0096,4.0096,4.0096,4.0096,4.0096,4.0096,4.0096,4.0096,4.0123,4.0225,4.0242,4.0276,4.036,4.0309,4.0276,4.036,4.0309,4.0276,4.0383,4.0923,4.1356,4.1356,4.1356,4.1356,4.1356,4.0625,4.0146,4.0242,4.0242,4.0299,4.0377,4.0394,4.0394,4.0394,4.099,4.1356,4.1356,4.2049,4.2445,4.2445,4.3176,4.3558,4.3558,4.4255,4.4608,4.4608,4.4608,4.4642,3.1129,3.1406,3.1503,3.1503,3.1077,3.0306,2.8921,2.7745,2.6204,2.3566,2.2498,2.1655,2.0437,2.2064,2.4073,2.5534,2.8436,3.1203,3.3223,3.4173,3.4877,3.5421,3.5496,3.5496,3.5496,3.5496,3.5496,3.5496,3.5496,3.5496,3.5496,3.5496,3.6085,3.7361,3.89,3.9831,4.0096,4.0096,4.0096,4.0096,4.0096,4.0096,4.0096,4.0096,4.0096,4.0096,4.0096,4.0096,4.0096,4.0096,4.0096,4.0096,4.0096,4.0096,4.0096,4.0096,4.0096,4.0096,4.0096,4.0096,4.0096,4.0096,4.0096,4.0096,4.0096,4.0096,4.0096,4.0096,4.0096,4.0096,4.0096,4.0096,4.0259,4.0865,4.1018,4.117,4.1792,4.1447,4.1187,4.1809,4.143,4.1204,4.1802,4.2022,4.2107,4.2107,4.2107,4.2107,4.2107,4.0929,4.032,4.0933,4.1018,4.1261,4.1877,4.1927,4.1927,4.1927,4.2039,4.2107,4.2107,4.2821,4.3203,4.3203,4.3995,4.4398,4.4398,4.4533,4.4608,4.4608,4.4608,4.4939,3.1316,3.1503,3.1503,3.1503,3.0762,2.9511,2.75,2.6004,2.4294,2.168,2.0886,2.0462,1.9823,2.13,2.3041,2.4352,2.6752,2.9393,3.2078,3.3036,3.3963,3.534,3.5496,3.5496,3.5496,3.5496,3.5496,3.5496,3.5496,3.5496,3.5496,3.5863,3.6783,3.8316,3.9086,3.9675,4.0106,4.0096,4.0096,4.0096,4.0096,4.0096,4.0096,4.0096,4.0096,4.0096,4.0096,4.0096,4.0096,4.0096,4.0096,4.0096,4.0096,4.0096,4.0096,4.0096,4.0096,4.0096,4.0096,4.0096,4.0096,4.0096,4.0096,4.0096,4.0096,4.0377,4.0669,4.0669,4.0669,4.076,4.1156,4.0963,4.0855,4.1599,4.1762,4.1863,4.2225,4.2022,4.1887,4.2225,4.2005,4.1887,4.2242,4.2625,4.2872,4.2872,4.2872,4.2872,4.2872,4.1921,4.1386,4.1728,4.1762,4.1921,4.2266,4.2293,4.2293,4.2293,4.2658,4.2872,4.2872,4.3606,4.4012,4.4012,4.4398,4.4608,4.4608,4.4608,4.4804,4.5169,4.5169,4.5575,3.1144,3.1391,3.1503,3.1503,3.0433,2.8718,2.6177,2.4462,2.2707,2.0212,1.9703,1.9703,1.9703,2.0682,2.1949,2.337,2.5171,2.7523,3.083,3.1981,3.3193,3.5055,3.5415,3.5496,3.5496,3.5496,3.5496,3.5496,3.5496,3.557,3.5733,3.6453,3.749,3.8861,3.9072,3.9463,4.0083,4.0096,4.0096,4.0096,4.0096,4.0096,4.0096,4.0096,4.0096,4.0096,4.0096,4.0096,4.0096,4.0096,4.0096,4.0096,4.0096,4.0096,4.0096,4.0096,4.0096,4.0096,4.0096,4.0096,4.0123,4.0269,4.0225,4.0123,4.0292,4.0737,4.1231,4.139,4.1441,4.1576,4.2158,4.1863,4.1627,4.2354,4.2665,4.279,4.279,4.2665,4.2597,4.2756,4.2648,4.2597,4.2756,4.3267,4.3666,4.3666,4.3666,4.3666,4.3666,4.3149,4.279,4.279,4.2631,4.2614,4.2773,4.279,4.279,4.279,4.3335,4.3666,4.3666,4.4255,4.4608,4.4608,4.4608,4.4675,4.4838,4.4838,4.5203,4.594,4.594,4.6329,3.0575,3.1046,3.1503,3.1503,3.0082,2.8143,2.6072,2.4139,2.2199,2.0122,1.9703,1.9703,1.9703,2.0303,2.1405,2.329,2.4771,2.685,3.0126,3.1689,3.3013,3.4436,3.513,3.5496,3.5496,3.5496,3.5496,3.5496,3.5496,3.579,3.6454,3.7264,3.8055,3.8874,3.961,4.0026,4.0096,4.0096,4.0096,4.0096,4.0096,4.0096,4.0096,4.0096,4.0096,4.0096,4.0096,4.0096,4.0096,4.0096,4.0096,4.0096,4.0096,4.0096,4.0096,4.0096,4.0096,4.0096,4.0096,4.0096,4.0208,4.0882,4.0652,4.0225,4.0899,4.1147,4.1333,4.2005,4.2198,4.2208,4.2276,4.2249,4.2378,4.3118,4.3866,4.4388,4.4388,4.3809,4.3514,4.4245,4.3809,4.3531,4.4262,4.4432,4.4489,4.4489,4.4489,4.4489,4.4489,4.4438,4.4388,4.4388,4.3724,4.3582,4.4337,4.4388,4.4388,4.4388,4.4455,4.4489,4.4489,4.4557,4.4608,4.4608,4.4608,4.4939,4.5594,4.5594,4.5974,4.6691,4.6691,4.709,3.0178,3.0979,3.1406,3.0994,2.9445,2.7467,2.5468,2.3485,2.1635,2.0033,1.9703,1.9703,1.9703,1.9923,2.0622,2.2208,2.2906,2.4403,2.7694,2.8964,3.0484,3.2998,3.3888,3.4614,3.5421,3.5496,3.5496,3.5496,3.5496,3.6037,3.7264,3.7624,3.836,3.9574,3.9927,4.0096,4.0096,4.0096,4.0096,4.0096,4.0096,4.0096,4.0096,4.0096,4.0096,4.0096,4.0096,4.0096,4.0096,4.0096,4.0096,4.0096,4.0096,4.0096,4.0096,4.0096,4.0096,4.0096,4.0096,4.0394,4.0804,4.1096,4.1305,4.1487,4.1769,4.2161,4.2594,4.2888,4.2956,4.3074,4.3569,4.367,4.3755,4.4052,4.4364,4.4608,4.4608,4.4347,4.4222,4.454,4.4347,4.4222,4.454,4.4608,4.4608,4.4608,4.4608,4.4608,4.4608,4.4608,4.4608,4.4608,4.4306,4.4255,4.4574,4.4608,4.4608,4.4608,4.4608,4.4608,4.4608,4.4608,4.4811,4.5246,4.527,4.5626,4.6363,4.6363,4.6735,4.7455,4.7455,4.7861,2.9212,3.0276,3.0815,3.0357,2.8755,2.6787,2.4815,2.2984,2.1271,1.977,1.9589,1.9703,1.9703,1.9703,2.0073,2.1221,2.1744,2.3002,2.5905,2.7228,2.8889,3.1592,3.2669,3.3649,3.4801,3.5265,3.5496,3.5496,3.5496,3.6164,3.772,3.7807,3.8516,4.0052,4.0096,4.0096,4.0096,4.0096,4.0096,4.0096,4.0096,4.0096,4.0096,4.0096,4.0096,4.0096,4.0096,4.0096,4.0096,4.0096,4.0096,4.0096,4.0096,4.0096,4.0123,4.0337,4.0422,4.0462,4.0682,4.1098,4.1559,4.1789,4.2195,4.2675,4.2909,4.3183,4.3457,4.3683,4.3751,4.3893,4.4448,4.4608,4.4608,4.4608,4.4608,4.4608,4.4608,4.4608,4.4608,4.4608,4.4608,4.4608,4.4608,4.4608,4.4608,4.4608,4.4608,4.4608,4.4608,4.4608,4.4608,4.4608,4.4608,4.4608,4.4608,4.4608,4.4608,4.4608,4.4608,4.4692,4.4922,4.4939,4.527,4.6007,4.6024,4.6397,4.7124,4.7124,4.7505,4.8225,4.8225,4.8496,2.745,2.8603,2.9623,2.9615,2.8096,2.6122,2.4238,2.2708,2.1173,1.9295,1.9337,1.9703,1.9703,1.9703,1.9923,2.0603,2.1819,2.3371,2.5324,2.7329,2.9064,3.0372,3.1697,3.2774,3.3455,3.4726,3.5496,3.5496,3.5496,3.6164,3.772,3.7807,3.8516,4.0052,4.0096,4.0096,4.0096,4.0096,4.0096,4.0096,4.0096,4.0096,4.0096,4.0096,4.0096,4.0096,4.0096,4.0096,4.0096,4.0096,4.0096,4.0096,4.0096,4.0096,4.0191,4.0916,4.118,4.1282,4.2022,4.2276,4.2411,4.3135,4.3382,4.3541,4.4323,4.4035,4.3575,4.4364,4.4591,4.4591,4.4608,4.4608,4.4608,4.4608,4.4608,4.4608,4.4608,4.4608,4.4608,4.4608,4.4608,4.4608,4.4608,4.4608,4.4608,4.4608,4.4608,4.4608,4.4608,4.4608,4.4608,4.4608,4.4608,4.4608,4.4608,4.4608,4.4608,4.4608,4.4608,4.4939,4.5669,4.5696,4.6041,4.6776,4.6793,4.7141,4.7887,4.7887,4.8276,4.8984,4.8984,4.8994,2.5255,2.5936,2.6295,2.6212,2.5121,2.3776,2.2622,2.1377,2.0284,1.9583,1.8996,1.8717,1.9095,1.9151,1.9817,2.1875,2.2825,2.401,2.601,2.8021,2.9586,3.0395,3.2893,3.4629,3.4861,3.5242,3.5496,3.5496,3.5496,3.6164,3.772,3.7807,3.8516,4.0052,4.0096,4.0096,4.0096,4.0096,4.0096,4.0096,4.0096,4.0096,4.0096,4.0096,4.0096,4.0096,4.0096,4.0096,4.0096,4.0096,4.0096,4.0096,4.0096,4.0096,4.0191,4.0933,4.1197,4.1316,4.2039,4.2625,4.3091,4.3321,4.3768,4.4279,4.4523,4.4415,4.4272,4.4523,4.4608,4.4608,4.4608,4.4608,4.4608,4.4608,4.4608,4.4608,4.4608,4.4608,4.4608,4.4608,4.4608,4.4608,4.4608,4.4608,4.4608,4.4608,4.4608,4.4608,4.4608,4.5034,4.5348,4.5348,4.5795,4.57,4.4692,4.5058,4.5348,4.5348,4.5829,4.6201,4.6438,4.6447,4.6802,4.7539,4.7549,4.7904,4.8655,4.8655,4.8774,4.8994,4.8994,4.9272,2.2921,2.3785,2.406,2.3974,2.3393,2.2476,2.11,2.0328,1.9694,1.8946,1.8588,1.8443,1.8569,1.893,1.9681,2.1151,2.2225,2.3585,2.557,2.7587,2.9443,3.1068,3.3312,3.4846,3.5108,3.5355,3.5496,3.5496,3.5496,3.6045,3.7286,3.7353,3.7926,3.9192,3.9805,4.0096,4.0096,4.0096,4.0096,4.0096,4.0096,4.0096,4.0096,4.0096,4.0096,4.013,4.0388,4.0523,0.0,4.0817,4.0766,4.054,4.0817,4.076,4.0641,4.1654,4.2019,4.2144,4.2902,4.3477,4.3852,4.3852,4.4188,4.4608,4.4608,4.4608,4.4608,4.4608,4.4608,4.4608,4.4608,4.4608,4.4608,4.4608,4.4608,4.4608,4.4608,4.4608,4.4608,4.4608,4.4608,4.4608,4.4608,4.4608,4.4608,4.4608,4.4608,4.4692,4.499,4.5415,4.5814,4.6092,4.6539,4.6428,4.5514,4.5846,4.6126,4.6126,4.6556,4.6928,4.7201,4.7225,4.7556,4.8293,4.8326,4.8537,4.8994,4.8994,4.9129,4.9424,4.9424,4.9813,0.0,2.1816,2.2414,2.2486,2.2379,2.1718,1.9685,1.9475,0.0,1.768,1.8096,1.8597,1.8186,1.8921,1.9498,1.9229,2.0725,2.2597,2.4605,2.6647,2.9129,3.234,3.3252,3.3896,3.4503,3.513,3.5496,3.5496,3.5496,3.5815,3.6561,3.6607,3.6964,3.777,3.9239,4.002,4.002,4.007,4.0096,4.0096,4.0096,4.0123,4.0174,4.0174,4.0208,4.0292,4.099,4.1288,4.1333,4.2022,4.1904,4.1356,4.2022,4.1887,4.1451,4.2882,4.3399,4.3524,4.433,4.4608,4.4608,4.4608,4.4608,4.4608,4.4608,4.4608,4.4608,4.4608,4.4608,4.4608,4.4608,4.4608,4.4608,4.4608,4.4608,4.4608,4.4608,4.4608,4.4608,4.4608,4.4608,4.4625,4.4675,4.4675,4.4692,4.4743,4.476,4.5007,4.5696,4.5814,4.6119,4.681,4.6928,4.6962,4.6962,4.6911,4.6878,4.6878,4.6928,4.7259,4.7954,4.7988,4.8293,4.8984,4.8994,4.9035,4.9086,4.9086,4.9458,5.0176,5.0176,5.0574,1.6619,0.0,1.759,1.8417,1.8279,1.8038,0.0,1.8135,1.7913,1.7914,0.0,1.7285,1.8033,1.8333,1.9237,2.1577,2.3061,2.479,2.7314,2.9797,3.2213,3.4524,3.4928,3.51,3.525,3.5415,3.5496,3.5496,3.5496,3.5815,3.6561,3.6607,3.6964,3.777,3.8707,3.9179,3.9179,3.9789,4.0096,4.0096,4.0096,4.0405,4.0933,4.0933,4.1244,4.1792,4.1972,4.2039,4.2049,4.2225,4.2198,4.2056,4.2225,4.2191,4.2151,4.3051,4.3399,4.3524,4.433,4.4608,4.4608,4.4608,4.4608,4.4608,4.4608,4.4608,4.4608,4.4608,4.4608,4.4608,4.4608,4.4608,4.4608,4.4608,4.4608,4.4608,4.4608,4.4608,4.4608,4.4608,4.4608,4.4777,4.5331,4.5449,4.5635,4.6201,4.6276,4.6343,4.6522,4.7032,4.7447,4.7616,4.8148,4.8477,4.8477,4.7962,4.7633,4.7633,4.8165,4.8562,4.8723,4.874,4.8825,4.8994,4.8994,4.9272,4.9838,4.9838,5.0219,5.093,5.093,5.1344,1.4634,1.5403,1.6211,1.679,1.7076,1.726,1.7345,0.0,0.0,0.0,0.0,1.698,1.735,1.7986,1.9056,2.0825,2.2834,2.5538,2.9391,3.1331,3.3141,3.5246,3.5496,3.5496,3.5496,3.5496,3.5496,3.5496,3.5496,3.5668,3.607,3.6102,3.629,3.6738,3.7811,3.8559,3.8894,3.9711,4.0096,4.0096,4.0438,4.0804,4.1214,4.1542,4.1921,4.2317,4.2658,4.2804,4.2821,4.319,4.3139,4.2844,4.3213,4.3122,4.2895,4.3673,4.3944,4.4012,4.4455,4.4608,4.4608,4.4608,4.4608,4.4608,4.4608,4.4608,4.4608,4.4608,4.4608,4.4608,4.4608,4.4608,4.4608,4.4608,4.4608,4.4608,4.4608,4.4608,4.4692,4.5034,4.5101,4.5338,4.6075,4.621,4.6346,4.6742,4.6793,4.6928,4.7259,4.765,4.8039,4.8377,4.8757,4.8994,4.8994,4.8638,4.8394,4.8394,4.8774,4.8994,4.8994,4.8994,4.8994,4.8994,4.9323,4.9703,5.0092,5.0439,5.0972,5.1691,5.1691,5.2122,1.3903,1.5189,1.6354,1.628,1.7002,1.7518,1.6692,0.0,0.0,0.0,0.0,0.0,0.0,1.8008,0.0,1.9464,2.2355,2.6249,3.1111,3.2241,3.3279,3.5251,3.5496,3.5496,3.5496,3.5496,3.5496,3.5496,3.5496,3.5496,3.5496,3.5496,3.5496,3.5496,3.7003,3.8106,3.8724,3.9636,4.0157,4.0276,4.0899,4.1316,4.1552,4.2185,4.253,4.2689,4.3311,4.3575,4.3643,4.433,4.4205,4.3643,4.4323,4.4188,4.3666,4.4347,4.4608,4.4608,4.4608,4.4608,4.4608,4.4608,4.4608,4.4608,4.4608,4.4608,4.4608,4.4608,4.4608,4.4608,4.4608,4.4608,4.4608,4.4608,4.4692,4.477,4.477,4.4855,4.5125,4.5754,4.5872,4.6109,4.6836,4.6972,4.7013,4.7114,4.7148,4.7361,4.7988,4.8073,4.831,4.8926,4.8994,4.8994,4.8994,4.8994,4.8994,4.8994,4.8994,4.8994,4.8994,4.8994,4.9044,4.9171,4.9787,5.021,5.043,5.1057,5.175,5.2477,5.2477,5.2858,1.446,1.5273,1.5704,1.5259,1.5606,1.6143,1.6435,0.0,0.0,0.0,0.0,0.0,0.0,1.8881,2.0145,2.1642,2.557,2.9544,3.2736,3.3735,3.4488,3.5383,3.5496,3.5496,3.5496,3.5496,3.5496,3.5496,3.5496,3.5496,3.5496,3.5496,3.5496,3.5496,3.7003,3.7842,3.7971,3.9395,4.0405,4.1035,4.1147,4.185,4.3068,4.3186,4.3606,4.4252,4.4364,4.4415,4.4438,4.4557,4.4523,4.4438,4.4557,4.4523,4.4432,4.4557,4.4608,4.4608,4.4608,4.4608,4.4608,4.4608,4.4608,4.4608,4.4608,4.4608,4.4608,4.4608,4.4608,4.4608,4.4608,4.4608,4.4608,4.4608,4.5074,4.5534,4.5534,4.6015,4.6496,4.6607,4.6624,4.6878,4.7599,4.7735,4.7938,4.8578,4.8663,4.8706,4.8825,4.8825,4.8875,4.8984,4.8994,4.8994,4.8994,4.8994,4.8994,4.8994,4.8994,4.8994,4.8994,4.8994,4.9289,4.9923,5.0041,5.0718,5.1961,5.208,5.2536,5.3315,5.3315,5.3374,1.3839,1.4606,1.5286,1.5319,1.6206,1.7036,1.7004,0.0,0.0,0.0,0.0,0.0,0.0,0.0,2.1453,2.5008,2.7914,3.0734,3.3636,3.39,3.4217,3.5358,3.5496,3.5496,3.5496,3.5496,3.5496,3.5496,3.5496,3.5496,3.5496,3.5496,3.5496,3.5496,3.6569,3.736,3.78,3.8891,3.9847,4.0618,4.1413,4.2151,4.2821,4.3673,4.4255,4.4608,4.4608,4.4608,4.4608,4.4608,4.4608,4.4608,4.4608,4.4608,4.4608,4.4608,4.4608,4.4608,4.4608,4.4608,4.4608,4.4608,4.4608,4.4608,4.4608,4.4608,4.4608,4.4608,4.4608,4.4608,4.4608,4.4905,4.5186,4.5186,4.5761,4.6295,4.6295,4.6556,4.6928,4.7319,4.7387,4.7624,4.8368,4.8486,4.8605,4.8951,4.8994,4.8994,4.8994,4.8994,4.8994,4.8994,4.8994,4.8994,4.8994,4.8994,4.8994,4.8994,4.8994,4.8994,4.8994,4.9373,4.9753,5.0092,5.0887,5.1623,5.23,5.2739,5.3145,5.3492,5.3492,5.3492,1.3529,1.4329,1.5223,1.5756,0.0,1.7796,1.7783,0.0,0.0,0.0,0.0,0.0,0.0,2.0715,2.3173,2.7836,2.9658,3.1404,3.4024,3.4009,3.419,3.5356,3.5496,3.5496,3.5496,3.5496,3.5496,3.5496,3.5496,3.5496,3.5496,3.5496,3.5496,3.5496,3.622,3.6987,3.7784,3.8532,3.9385,4.0377,4.1498,4.2219,4.2591,4.3782,4.4415,4.4608,4.4608,4.4608,4.4608,4.4608,4.4608,4.4608,4.4608,4.4608,4.4608,4.4608,4.4608,4.4608,4.4608,4.4608,4.4608,4.4608,4.4608,4.4608,4.4608,4.4608,4.4608,4.4608,4.4608,4.4642,4.4804,4.5287,4.573,4.5923,4.6515,4.7064,4.7064,4.7192,4.7479,4.8039,4.8157,4.8343,4.8892,4.8994,4.8994,4.8994,4.8994,4.8994,4.8994,4.8994,4.8994,4.8994,4.8994,4.8994,4.8994,4.8994,4.8994,4.8994,4.8994,4.9086,4.9255,4.9804,5.0261,5.0616,5.1725,5.2384,5.2587,5.3196,5.3492,5.3492,5.3492,5.3492,1.4489,1.5193,1.5768,1.631,1.6525,0.0,1.8544,1.8907,0.0,2.0295,0.0,0.0,0.0,2.3075,2.5582,2.8871,3.0695,3.2223,3.3812,3.4782,3.5379,3.5496,3.5496,3.5496,3.5496,3.5496,3.5496,3.5496,3.5496,3.5496,3.5496,3.5496,3.5496,3.5496,3.622,3.6987,3.7784,3.8532,3.9651,4.1113,4.1238,4.2009,4.3321,4.344,4.3886,4.4608,4.4608,4.4608,4.4608,4.4608,4.4608,4.4608,4.4608,4.4608,4.4608,4.4608,4.4608,4.4608,4.4608,4.4608,4.4608,4.4608,4.4608,4.4608,4.4608,4.4608,4.4608,4.4608,4.4608,4.476,4.5449,4.5669,4.5872,4.6556,4.7286,4.7819,4.7819,4.8368,4.8858,4.8909,4.8926,4.8943,4.8994,4.8994,4.8994,4.8994,4.8994,4.8994,4.8994,4.8994,4.8994,4.8994,4.8994,4.8994,4.8994,4.8994,4.8994,4.8994,4.8994,4.9306,4.999,5.0066,5.0735,5.2114,5.2249,5.2672,5.3408,5.3467,5.3492,5.3492,5.3492,5.3492,1.3734,1.4747,1.5748,1.5957,1.6792,0.0,0.0,1.9786,2.0458,2.19,2.2357,0.0,0.0,2.5294,2.7538,3.0032,3.1691,3.3199,3.4726,3.5262,3.5496,3.5496,3.5496,3.5496,3.5496,3.5496,3.5496,3.5496,3.5496,3.5496,3.5496,3.5496,3.5496,3.5496,3.5774,3.6531,3.7793,3.8085,3.8991,4.0523,4.0984,4.1485,4.206,4.2506,4.3125,4.3852,4.3852,4.4137,4.4608,4.4608,4.4608,4.4608,4.4608,4.4608,4.4608,4.4608,4.4608,4.4608,4.4608,4.4608,4.4608,4.4608,4.4608,4.4608,4.4608,4.4608,4.4608,4.4608,4.4608,4.4658,4.4939,4.5693,4.6447,4.6725,4.7716,4.8588,4.8588,4.8791,4.8994,4.8994,4.8994,4.8994,4.8994,4.8994,4.8994,4.8994,4.8994,4.8994,4.8994,4.8994,4.8994,4.8994,4.8994,4.8994,4.8994,4.8994,4.9204,4.9669,4.9686,4.9804,5.01,5.0988,5.1725,5.2283,5.2782,5.3196,5.3492,5.3492,5.3492,5.3492,5.3492,5.3492,1.3475,1.4563,1.5736,1.5906,0.0,0.0,2.0219,2.091,2.167,2.3303,2.3767,2.4282,2.5607,0.0,2.8391,3.0475,3.2044,3.3479,3.4838,3.531,3.5496,3.5496,3.5496,3.5496,3.5496,3.5496,3.5496,3.5496,3.5496,3.5496,3.5496,3.5496,3.5496,3.5496,3.5496,3.6235,3.7777,3.7544,3.8316,4.0106,4.0349,4.0719,4.1214,4.1728,4.2354,4.3051,4.3051,4.3504,4.4222,4.4222,4.4364,4.4608,4.4608,4.4608,4.4608,4.4608,4.4608,4.4608,4.4608,4.4608,4.4608,4.4608,4.4608,4.4608,4.4608,4.4608,4.4608,4.4608,4.4608,4.4642,4.4888,4.5862,4.6911,4.7385,4.8274,4.8994,4.8994,4.8994,4.8994,4.8994,4.8994,4.8994,4.8994,4.8994,4.8994,4.8994,4.8994,4.8994,4.8994,4.8994,4.8994,4.8994,4.8994,4.8994,4.8994,4.9221,4.956,5.0066,5.0532,5.0785,5.0785,5.1758,5.2418,5.2664,5.3222,5.3492,5.3492,5.3492,5.3492,5.3492,5.3492,5.3492,1.4099,1.4876,1.5836,0.0,0.0,0.0,2.168,2.2295,2.2791,2.4478,2.5259,2.6134,2.7786,2.7666,2.7981,3.006,3.1626,3.292,3.3868,3.4864,3.5496,3.5496,3.5496,3.5496,3.5496,3.5496,3.5496,3.5496,3.5496,3.5496,3.5496,3.5496,3.5496,3.5496,3.5496,3.6235,3.7778,3.6994,3.7772,4.0077,3.9282,3.9698,4.118,4.118,4.1593,4.23,4.2293,4.2726,4.3399,4.3406,4.3876,4.4608,4.4608,4.4608,4.4608,4.4608,4.4608,4.4608,4.4608,4.4608,4.4608,4.4608,4.4608,4.4608,4.4608,4.4608,4.4608,4.4608,4.4608,4.477,4.5517,4.6244,4.7165,4.8646,4.8994,4.8994,4.8994,4.8994,4.8994,4.8994,4.8994,4.8994,4.8994,4.8994,4.8994,4.8994,4.8994,4.8994,4.8994,4.8994,4.8994,4.8994,4.9018,4.9011,4.9011,4.9678,5.0109,5.0109,5.1488,5.23,5.23,5.2317,5.2689,5.3475,5.3492,5.3492,5.3492,5.3492,5.3492,5.3492,5.3492,5.3492,1.4099,1.4876,0.0,1.6891,0.0,0.0,0.0,2.2588,0.0,0.0,2.6695,2.7064,2.7946,2.7971,2.8421,3.0126,3.1323,3.2507,3.381,3.4864,3.5496,3.5496,3.5496,3.5496,3.5496,3.5496,3.5496,3.5496,3.5496,3.5496,3.5496,3.5496,3.5496,3.5496,3.5496,3.5974,3.6957,3.6714,3.7489,3.9256,3.9002,3.9432,4.0422,4.0422,4.0828,4.1559,4.2073,4.2726,4.3433,4.4012,4.4381,4.4608,4.4608,4.4608,4.4608,4.4608,4.4608,4.4608,4.4608,4.4608,4.4608,4.4608,4.4608,4.4608,4.4608,4.4608,4.4608,4.4608,4.4608,4.4895,4.615,4.6641,4.7047,4.7988,4.8622,4.8994,4.8994,4.8994,4.8994,4.8994,4.8994,4.8994,4.8994,4.8994,4.8994,4.8994,4.8994,4.8994,4.8994,4.8994,4.8994,4.8994,4.9458,4.977,4.977,5.0456,5.1099,5.1606,5.2063,5.23,5.23,5.2833,5.3255,5.3492,5.3492,5.3492,5.3492,5.3492,5.3492,5.3492,5.3492,5.3492,1.4626,1.5542,0.0,1.7752,1.9535,2.1476,2.3206,0.0,0.0,0.0,2.7453,2.7604,2.8586,2.8577,2.8923,3.0472,3.1508,3.2568,3.3825,3.4864,3.5496,3.5496,3.5496,3.5496,3.5496,3.5496,3.5496,3.5496,3.5496,3.5496,3.5496,3.5496,3.5496,3.5496,3.5496,3.5847,3.6584,3.6314,3.7084,3.8894,3.8601,3.9042,4.0096,4.0096,4.0343,4.0821,4.1853,4.254,4.3058,4.4144,4.4608,4.4608,4.4608,4.4608,4.4608,4.4608,4.4608,4.4608,4.4608,4.4608,4.4608,4.4608,4.4608,4.4608,4.4608,4.4608,4.4608,4.4608,4.4811,4.5304,4.6488,4.7022,4.7421,4.8165,4.8672,4.8994,4.8994,4.8994,4.8994,4.8994,4.8994,4.8994,4.8994,4.8994,4.8994,4.8994,4.8994,4.8994,4.8994,4.8994,4.8994,4.8994,4.9407,4.999,5.0785,5.1268,5.1733,5.2266,5.2604,5.279,5.279,5.3239,5.3492,5.3492,5.3492,5.3492,5.3492,5.3492,5.3492,5.3492,5.3492,5.3492,1.5402,1.6532,1.7676,1.8863,2.0495,0.0,2.5092,2.5682,2.6147,2.777,0.0,2.7867,2.95,2.9355,2.9444,3.0831,3.1933,3.2908,3.3748,3.4814,3.5496,3.5496,3.5496,3.5496,3.5496,3.5496,3.5496,3.5496,3.5496,3.5496,3.5496,3.5496,3.5496,3.5496,3.5496,3.5815,3.6492,3.5831,3.6569,3.8681,3.8092,3.8562,3.9984,4.0064,4.0146,4.0276,4.169,4.235,4.2513,4.3992,4.4549,4.4492,4.4563,4.4549,4.4492,4.457,4.4608,4.4608,4.4608,4.4608,4.4608,4.4608,4.4608,4.4608,4.4608,4.4608,4.4608,4.4675,4.5186,4.5889,4.6684,4.7404,4.809,4.8825,4.8994,4.8994,4.8994,4.8994,4.8994,4.8994,4.8994,4.8994,4.8994,4.8994,4.8994,4.8994,4.8994,4.8994,4.8994,4.8994,4.9044,4.918,4.9197,4.9949,5.1767,5.2054,5.2206,5.2401,5.3095,5.3492,5.3492,5.3492,5.3492,5.3492,5.3492,5.3492,5.3492,5.3492,5.3492,5.3492,5.3492,5.3492,1.5402,1.6532,0.0,0.0,2.2229,2.4486,2.5975,2.6311,2.6654,2.7846,2.8009,2.831,2.9575,2.9691,2.9718,3.005,3.1503,3.2664,3.2873,3.44,3.5496,3.5496,3.5496,3.5496,3.5496,3.5496,3.5496,3.5496,3.5496,3.5496,3.5496,3.5496,3.5496,3.5496,3.5496,3.5578,3.5741,3.5578,3.6038,3.7106,3.7581,3.8283,3.9179,3.9808,4.0422,4.1018,4.1904,4.2625,4.3237,4.4195,4.4196,4.3643,4.4334,4.4181,4.3658,4.4348,4.4608,4.4608,4.4608,4.4608,4.4608,4.4608,4.4608,4.4608,4.4608,4.4608,4.4719,4.5297,4.5585,4.6,4.7312,4.7785,4.809,4.8825,4.8994,4.8994,4.8994,4.8994,4.8994,4.8994,4.8994,4.8994,4.8994,4.8994,4.8994,4.8994,4.8994,4.8994,4.8994,4.8994,4.9433,5.0592,5.0728,5.0897,5.1336,5.2477,5.3196,5.3239,5.3399,5.3492,5.3492,5.3492,5.3492,5.3492,5.3492,5.3492,5.3492,5.3492,5.3492,5.3492,5.3492,5.3492,1.5334,0.0,0.0,2.0854,0.0,2.5017,2.5879,2.6298,2.6738,2.7553,2.7921,2.8351,2.9205,2.9603,2.9801,2.9801,3.1378,3.2593,3.2593,3.4268,3.5496,3.5496,3.5496,3.5496,3.5496,3.5496,3.5496,3.5496,3.5496,3.5496,3.5496,3.5496,3.5496,3.5496,3.5496,3.5496,3.5496,3.5496,3.6054,3.7189,3.7595,3.8198,3.8915,3.9335,3.9955,4.07,4.1439,4.2192,4.2963,4.4127,4.4334,4.3977,4.4419,4.4327,4.3984,4.4426,4.4608,4.4608,4.4608,4.4608,4.4608,4.4608,4.4608,4.4608,4.4608,4.4855,4.522,4.5594,4.6203,4.6923,4.7701,4.8157,4.8512,4.8909,4.8994,4.8994,4.8994,4.8994,4.8994,4.8994,4.8994,4.8994,4.8994,4.8994,4.8994,4.8994,4.8994,4.8994,4.8994,4.8994,4.9281,5.0051,5.1446,5.2308,5.2308,5.3036,5.3492,5.3492,5.3492,5.3492,5.3492,5.3492,5.3492,5.3492,5.3492,5.3492,5.3492,5.3492,5.3492,5.3492,5.3492,5.3492,1.499,0.0,1.9114,2.1768,2.3562,0.0,2.546,2.5988,2.6499,2.7056,2.7591,2.815,2.8784,2.9305,2.9679,2.9789,3.124,3.242,3.2575,3.4118,3.5318,3.548,3.5496,3.5496,3.5496,3.5496,3.5496,3.5496,3.5496,3.5496,3.5496,3.5496,3.5496,3.5496,3.5496,3.5496,3.5496,3.5496,3.6148,3.7405,3.7529,3.8055,3.8894,3.8772,3.9133,3.993,4.0819,4.1627,4.2411,4.3965,4.4514,4.4384,4.4535,4.4514,4.4391,4.4542,4.4608,4.4608,4.4608,4.4608,4.4608,4.4608,4.4608,4.4608,4.4608,4.5118,4.5737,4.5848,4.6863,4.793,4.8056,4.8537,4.8994,4.8994,4.8994,4.8994,4.8994,4.8994,4.8994,4.8994,4.8994,4.8994,4.8994,4.8994,4.8994,4.8994,4.8994,4.8994,4.8994,4.945,4.9772,4.9772,5.2004,5.3492,5.3492,5.3492,5.3492,5.3492,5.3492,5.3492,5.3492,5.3492,5.3492,5.3492,5.3492,5.3492,5.3492,5.3492,5.3492,5.3492,5.3492,5.3492,1.398,0.0,2.0124,0.0,2.3554,2.4368,0.0,0.0,2.5891,2.6478,2.7022,2.7708,2.8718,2.8969,2.9183,2.9716,3.0686,3.166,3.25,3.351,3.4526,3.5392,3.5496,3.5496,3.5496,3.5496,3.5496,3.5496,3.5496,3.5496,3.5496,3.5496,3.5496,3.5496,3.5496,3.5496,3.5496,3.5496,3.5595,3.5813,3.6453,3.7504,3.8881,3.8232,3.8344,3.9142,4.0573,4.1627,4.2411,4.3965,4.4143,4.3547,4.4312,4.4145,4.3569,4.4327,4.4608,4.4608,4.4608,4.4608,4.4608,4.4608,4.4608,4.4608,4.4608,4.5118,4.5831,4.6471,4.7252,4.8056,4.8689,4.8926,4.8994,4.8994,4.8994,4.8994,4.8994,4.8994,4.8994,4.8994,4.8994,4.8994,4.8994,4.8994,4.8994,4.8994,4.8994,4.8994,4.8994,5.1277,5.2909,5.2909,5.3255,5.3492,5.3492,5.3492,5.3492,5.3492,5.3492,5.3492,5.3492,5.3492,5.3492,5.3492,5.3492,5.3492,5.3492,5.3492,5.3492,5.3492,5.3492,5.3492,1.4811,1.7142,1.9428,0.0,2.2852,2.37,2.4519,2.5172,2.5682,2.5942,2.6453,2.7094,2.7858,2.8251,2.864,2.9195,3.0108,3.1175,3.2427,3.3406,3.4377,3.5384,3.5496,3.5496,3.5496,3.5496,3.5496,3.5496,3.5496,3.5496,3.5496,3.5496,3.5496,3.5496,3.5496,3.5496,3.5496,3.5496,3.5709,3.6133,3.6897,3.763,3.8267,3.795,3.8196,3.8951,4.0093,4.0964,4.1691,4.3281,4.3679,4.3381,4.4253,4.4369,4.4071,4.4464,4.4608,4.4608,4.4608,4.4608,4.4608,4.4608,4.4608,4.4608,4.4608,4.5406,4.638,4.6708,4.7631,4.858,4.8917,4.8994,4.8994,4.8994,4.8994,4.8994,4.8994,4.8994,4.8994,4.8994,4.8994,4.8994,4.8994,4.8994,4.9569,5.1268,5.1514,5.1514,5.1514,5.268,5.3492,5.3492,5.3492,5.3492,5.3492,5.3492,5.3492,5.3492,5.3492,5.3492,5.3492,5.3492,5.3492,5.3492,5.3492,5.3492,5.3492,5.3492,5.3492,5.3492,5.3492,5.3492,0.0,0.0,1.8103,2.0313,2.178,2.2877,0.0,2.4506,2.5272,2.5536,2.5954,2.644,2.6993,2.7537,2.8075,2.8618,2.9643,3.0873,3.2211,3.3324,3.4377,3.5384,3.5496,3.5496,3.5496,3.5496,3.5496,3.5496,3.5496,3.5496,3.5496,3.5496,3.5496,3.5496,3.5496,3.5496,3.5496,3.5496,3.5871,3.66,3.7025,3.742,3.7784,3.7588,3.7912,3.8654,3.9455,4.0275,4.1155,4.2547,4.3203,4.3407,4.4264,4.4608,4.4608,4.4608,4.4608,4.4608,4.4608,4.4608,4.4608,4.4608,4.4608,4.4608,4.4608,4.5633,4.6793,4.6793,4.7851,4.8994,4.8994,4.8994,4.8994,4.8994,4.8994,4.8994,4.8994,4.8994,4.8994,4.8994,4.8994,4.8994,4.8994,4.8994,5.0008,5.3052,5.3492,5.3492,5.3492,5.3492,5.3492,5.3492,5.3492,5.3492,5.3492,5.3492,5.3492,5.3492,5.3492,5.3492,5.3492,5.3492,5.3492,5.3492,5.3492,5.3492,5.3492,5.3492,5.3492,5.3492,5.3492,5.3492,0.0,1.5007,0.0,1.8575,2.0369,2.1857,2.2915,2.3625,2.4368,2.5393,2.5624,2.5833,2.6436,2.6981,2.7516,2.805,2.9415,3.0735,3.1707,3.309,3.4377,3.5384,3.5496,3.5496,3.5496,3.5496,3.5496,3.5496,3.5496,3.5496,3.5496,3.5496,3.5496,3.5496,3.5496,3.5496,3.5496,3.5496,3.5871,3.6584,3.5934,3.6399,3.777,3.7009,3.7092,3.7904,3.8644,3.9811,4.1245,4.2033,4.2779,4.3486,4.4275,4.4608,4.4608,4.4608,4.4608,4.4608,4.4608,4.4608,4.4608,4.4608,4.4608,4.4608,4.4608,4.5633,4.6793,4.6793,4.7851,4.8994,4.8994,4.8994,4.8994,4.8994,4.8994,4.8994,4.8994,4.8994,4.8994,4.8994,4.8994,4.8994,4.8994,4.8994,5.0008,5.3052,5.3492,5.3492,5.3492,5.3492,5.3492,5.3492,5.3492,5.3492,5.3492,5.3492,5.3492,5.3492,5.3492,5.3492,5.3492,5.3492,5.3492,5.3492,5.3492,5.3492,5.3492,5.3492,5.3492,5.3492,5.3492,5.3492,0.0,0.0,0.0,1.7512,1.8938,2.0193,2.1312,2.2528,2.3529,2.3926,2.4578,2.5259,2.5816,2.6403,2.6955,2.7503,2.8047,2.8866,3.0141,3.1632,3.2945,3.3913,3.4897,3.5496,3.5496,3.5496,3.5496,3.5496,3.5496,3.5496,3.5496,3.5496,3.5496,3.5496,3.5496,3.5496,3.5496,3.5496,3.5635,3.5902,3.6117,3.6768,3.7784,3.75,3.8062,3.9236,3.8516,3.8743,3.9799,4.158,4.2427,4.2758,4.4073,4.4608,4.4608,4.4608,4.4608,4.4608,4.4608,4.4608,4.4608,4.4608,4.4608,4.4608,4.4608,4.5633,4.6793,4.6793,4.7851,4.8994,4.8994,4.8994,4.8994,4.8994,4.8994,4.8994,4.8994,4.8994,4.8994,4.8994,4.8994,4.8994,4.8994,5.06,5.2241,5.334,5.3492,5.3492,5.3492,5.3492,5.3492,5.3492,5.3492,5.3492,5.3492,5.3492,5.3492,5.3492,5.2645,5.2557,5.3467,5.2844,5.2809,5.3484,5.3492,5.3492,5.3492,5.3492,5.3492,5.3492,5.3492,5.3492,1.1736,0.0,0.0,0.0,1.7652,1.8857,2.0365,2.1532,2.2445,2.2995,2.3697,2.4465,2.5209,2.5816,2.6377,2.6943,2.745,2.8209,2.9491,3.0976,3.2267,3.3187,3.44,3.516,3.516,3.537,3.5496,3.5496,3.5496,3.5496,3.5496,3.5496,3.5496,3.5496,3.5496,3.5496,3.5496,3.5496,3.5496,3.5504,3.6244,3.6873,3.7412,3.7675,3.8353,3.9279,3.8507,3.8571,3.9336,4.0628,4.1577,4.2349,4.3415,4.4134,4.4608,4.4608,4.4608,4.4608,4.4608,4.4608,4.4608,4.4608,4.4608,4.4642,4.4888,4.5836,4.6844,4.7107,4.8054,4.8994,4.8994,4.8994,4.8994,4.8994,4.8994,4.8994,4.8994,4.8994,4.8994,4.8994,4.9264,4.9552,4.9704,5.1835,5.3492,5.3492,5.3492,5.3492,5.3492,5.3492,5.3492,5.3492,5.3492,5.2938,5.1546,5.2704,5.3306,5.281,5.1912,5.2037,5.345,5.247,5.2408,5.3475,5.3144,5.3136,5.3492,5.3492,5.3492,5.3492,5.3492,5.3492,0.0,0.0,0.0,0.0,0.0,1.7901,2.0082,2.0591,2.1074,2.2669,2.3032,2.3396,2.4532,2.5189,2.5753,2.6348,2.7687,2.8934,2.9807,3.1199,3.2468,3.3332,3.4046,3.4481,3.4496,3.5093,3.5481,3.5496,3.5496,3.5496,3.5496,3.5496,3.5496,3.5496,3.5496,3.5496,3.5496,3.5496,3.5496,3.5504,3.6244,3.6607,3.6653,3.7433,3.7813,3.7915,3.858,3.9322,4.0013,3.9272,4.0282,4.2301,4.2325,4.3256,4.4608,4.4608,4.4608,4.4608,4.4608,4.4608,4.4608,4.4608,4.4608,4.4743,4.5483,4.621,4.6955,4.7684,4.8428,4.8994,4.8994,4.8994,4.8994,4.8994,4.8994,4.8994,4.8994,4.8994,4.8994,4.8994,4.9789,5.0609,5.1116,5.2477,5.3492,5.3492,5.3492,5.3492,5.3492,5.3492,5.3492,5.3492,5.3382,5.1729,4.7817,5.1143,5.287,5.1559,5.1433,5.2046,5.345,5.2444,5.2356,5.3425,5.2408,5.2373,5.3416,5.3442,5.3458,5.345,5.3425,5.3425,1.1462,0.0,0.0,0.0,0.0,0.0,1.7356,1.8304,1.924,2.0457,2.1373,2.2277,2.3371,2.4051,2.4611,2.5176,2.6295,2.7395,2.8217,2.9654,3.0912,3.1746,3.2982,3.3964,3.4451,3.4675,3.4974,3.5466,3.5496,3.5496,3.5496,3.5496,3.5496,3.5496,3.5496,3.5496,3.5496,3.5496,3.5496,3.5504,3.6244,3.6896,3.7478,3.7706,3.8402,3.9404,3.85,3.8525,3.9299,4.0197,4.1255,4.2358,4.2893,4.3717,4.4608,4.4608,4.4608,4.4608,4.4608,4.4608,4.4608,4.4608,4.4608,4.4743,4.5483,4.621,4.6955,4.7684,4.8428,4.8994,4.8994,4.8994,4.8994,4.8994,4.8994,4.8994,4.8994,4.8994,4.8994,4.8994,4.9213,4.9805,5.0998,5.2477,5.3492,5.3492,5.3492,5.3492,5.3492,5.3492,5.3492,5.3492,5.0814,4.9769,5.1629,5.1911,5.225,5.2878,5.2189,5.2285,5.345,5.1775,5.1301,5.2321,5.1338,5.0965,5.1262,5.1992,5.2339,5.2338,5.1594,5.1649,0.0,0.0,0.0,0.0,0.0,0.0,1.6855,1.7364,1.7872,1.9196,2.0168,2.1061,2.1945,2.2922,2.3725,2.4043,2.5059,2.6283,2.7707,2.8869,3.0022,3.1198,3.2369,3.3245,3.3627,3.4173,3.4652,3.5048,3.534,3.5496,3.5496,3.5496,3.5496,3.5496,3.5496,3.5496,3.5496,3.5496,3.5496,3.5504,3.6244,3.6843,3.7323,3.7969,3.8583,3.9132,3.8866,3.8816,3.8995,4.0227,4.1182,4.1884,4.2313,4.3347,4.4608,4.4608,4.4608,4.4608,4.4608,4.4608,4.4608,4.4608,4.4608,4.4794,4.5838,4.6455,4.7013,4.8063,4.8672,4.8994,4.8994,4.8994,4.8994,4.8994,4.8994,4.8994,4.8994,4.8994,4.8994,4.8994,4.8994,4.9264,5.0119,5.2072,5.3492,5.3492,5.3492,5.3492,5.3492,5.3492,5.2843,5.1096,4.8759,4.8282,5.0719,5.1749,5.225,5.2213,5.1621,5.174,5.2784,5.0836,5.0217,5.1248,5.0262,4.9734,4.9734,5.0779,5.1266,5.1248,5.0665,5.0712,0.0,0.0,0.0,0.0,1.5344,0.0,1.7413,1.7138,1.6926,1.8418,1.9196,1.9805,2.0396,2.1725,2.2724,2.2724,2.3742,2.5366,2.7753,2.8558,2.9529,3.1195,3.1981,3.2422,3.2482,3.3582,3.4308,3.4383,3.5004,3.5421,3.5496,3.5496,3.5496,3.5496,3.5496,3.5496,3.5496,3.5496,3.5496,3.5504,3.6244,3.6653,3.6775,3.8159,3.8462,3.7985,3.9279,3.9437,3.884,3.9636,4.0504,4.1316,4.1316,4.2681,4.4594,4.4492,4.4521,4.4594,4.4492,4.4521,4.4608,4.4608,4.4608,4.4862,4.6259,4.6742,4.7114,4.8578,4.8994,4.8994,4.8994,4.8994,4.8994,4.8994,4.8994,4.8994,4.8994,4.8994,4.8994,4.8994,4.8994,4.8994,4.8994,5.1497,5.3492,5.3492,5.3492,5.3492,5.3492,5.3093,5.1401,4.7694,4.7309,4.7309,4.7309,5.0817,5.2275,5.0503,5.0493,5.0911,5.1696,4.983,4.9246,5.0204,4.9181,4.8636,4.8636,4.9704,5.0281,5.0387,5.0155,5.0122,1.4595,1.5284,0.0,1.5248,1.5628,0.0,1.5645,1.6037,1.6588,1.6919,1.7803,1.8687,1.9227,1.9936,2.0438,2.0438,2.1755,2.3868,2.6959,2.7951,2.8941,3.0503,3.1293,3.1914,3.2452,3.2744,3.311,3.3657,3.4323,3.4929,3.5474,3.5496,3.5496,3.5496,3.5496,3.5496,3.5496,3.5496,3.5496,3.5504,3.6244,3.6934,3.7573,3.7878,3.8253,3.867,3.8381,3.8156,3.8078,3.8813,4.0304,4.2082,4.2082,4.3114,4.4514,4.3814,4.3999,4.4499,4.38,4.4013,4.4608,4.4608,4.4608,4.476,4.5652,4.6336,4.7114,4.8578,4.8994,4.8994,4.8994,4.8994,4.8994,4.8994,4.8994,4.8994,4.8994,4.8994,4.8994,4.8994,4.8994,4.8994,4.8994,5.1497,5.3492,5.3492,5.3492,5.3492,5.3492,5.0586,4.8198,4.7381,4.7309,4.7309,4.7309,4.9034,5.0201,5.0387,5.1155,5.1322,5.0712,4.946,4.8907,4.912,4.8099,4.7587,4.7587,4.862,4.9556,5.0365,4.8687,4.834,1.5537,1.5886,1.6443,1.6216,1.6125,0.0,0.0,1.6125,1.6265,1.6835,1.7163,1.7615,1.845,1.8819,1.9089,1.9359,2.0577,2.2188,2.4182,2.6324,2.829,2.9863,3.0357,3.0799,3.1442,3.1809,3.2422,3.3425,3.4113,3.4645,3.4974,3.5325,3.5496,3.5496,3.5496,3.5496,3.5496,3.5496,3.5496,3.5504,3.6244,3.6805,3.7234,3.7998,3.8344,3.8365,3.8761,3.8713,3.8372,3.8745,3.9987,4.1684,4.2129,4.298,4.3895,4.3456,4.3577,4.388,4.3441,4.3865,4.4608,4.4608,4.4608,4.4811,4.5906,4.7022,4.8054,4.8791,4.8994,4.8994,4.8994,4.8994,4.8994,4.8994,4.8994,4.8994,4.8994,4.8994,4.8994,4.8994,5.0219,5.1243,5.1243,5.2503,5.3492,5.3492,5.3492,5.3492,5.3492,4.9878,4.7309,4.7309,4.7309,4.7309,4.7309,4.7914,4.8743,4.9797,5.0178,5.013,4.9625,4.861,4.8051,4.8051,4.757,4.7309,4.7309,4.7817,4.8329,4.8826,4.7801,4.7566,1.6489,1.6654,1.7181,1.7367,1.6947,1.659,0.0,0.0,0.0,1.6927,1.6773,1.6781,1.7703,1.7872,1.8016,1.845,1.9472,2.0457,2.114,2.4061,2.6813,2.8619,2.9174,2.9601,3.0088,3.0508,3.1465,3.3185,3.3455,3.3837,3.4466,3.5004,3.537,3.5496,3.5496,3.5496,3.5496,3.5496,3.5496,3.5504,3.6244,3.6607,3.6645,3.8053,3.8281,3.7653,3.9049,3.9203,3.8474,3.8612,3.9521,4.0867,4.1559,4.233,4.3032,4.2855,4.3017,4.3283,4.3108,4.3724,4.4608,4.4608,4.4692,4.5058,4.6394,4.7733,4.8825,4.896,4.8994,4.8994,4.8994,4.8994,4.8994,4.8994,4.8994,4.8994,4.8994,4.8994,4.8994,4.8994,5.1429,5.3492,5.3492,5.3492,5.3492,5.3492,5.3492,5.3212,5.2407,4.9387,4.7309,4.7309,4.7309,4.7309,4.7309,4.7309,4.776,4.8845,4.9044,4.8927,4.8538,4.7732,4.7309,4.7309,4.7309,4.7309,4.7309,4.7309,4.7309,4.7309,4.7309,4.7309,1.8211,1.865,1.9095,1.7744,1.8373,1.8731,1.6427,0.0,1.6965,1.6075,0.0,1.6538,1.6669,0.0,0.0,1.6776,1.774,1.874,1.9478,2.116,2.3247,2.5756,2.7634,2.8742,2.8816,2.8351,2.9309,3.2385,3.1083,3.1426,3.4346,3.457,3.4892,3.5481,3.5496,3.5496,3.5496,3.5496,3.5496,3.5504,3.6244,3.6607,3.6622,3.7529,3.7484,3.6783,3.7683,3.7601,3.6926,3.7623,3.8747,4.0021,4.0135,4.0982,4.2054,4.128,4.1973,4.3184,4.2426,4.3213,4.4608,4.4608,4.5034,4.5737,4.6556,4.737,4.8157,4.8825,4.8994,4.8994,4.8994,4.8994,4.8994,4.8994,4.8994,4.8994,4.8994,4.8994,4.8994,4.8994,5.1429,5.3492,5.3492,5.3492,5.3492,5.3492,5.3492,5.2168,4.8485,4.7591,4.7309,4.7309,4.7309,4.7309,4.7309,4.7309,4.7359,4.7527,4.9211,4.9392,4.7549,4.7359,4.7309,4.7309,4.7309,4.7309,4.7309,4.7309,4.7309,4.7309,4.7309,4.7309,1.8411,1.8763,1.9095,1.8103,1.8367,1.8493,1.7022,1.6796,1.6835,1.6703,0.0,0.0,0.0,0.0,0.0,0.0,1.72,1.7803,1.8006,1.9207,2.1061,2.3717,2.5019,2.6153,2.7326,2.7534,2.8492,3.0664,3.0057,3.0514,3.2654,3.3874,3.4622,3.4914,3.5295,3.5496,3.5496,3.5496,3.5496,3.5504,3.6244,3.6607,3.6622,3.7434,3.761,3.7323,3.7646,3.7602,3.7294,3.7167,3.7916,3.9093,3.8636,3.9597,4.1263,4.1404,4.1925,4.2567,4.2716,4.356,4.4675,4.5101,4.5737,4.6481,4.7201,4.7962,4.8605,4.8909,4.8994,4.8994,4.8994,4.8994,4.8805,4.8072,4.763,4.7671,4.8758,4.7264,4.6349,4.8569,5.1429,5.3492,5.3492,5.3492,5.3492,5.3492,5.1447,4.9277,4.7516,4.7309,4.7309,4.7309,4.7309,4.7309,4.7309,4.7309,4.7309,4.7309,4.813,4.8209,4.7342,4.7309,4.7309,4.7309,4.7309,4.7309,4.7309,4.7309,4.7309,4.7309,4.7309,4.7309,1.907,1.9284,1.9447,1.8449,1.8305,1.8198,1.7343,1.7061,1.7056,1.7336,1.6979,0.0,0.0,0.0,1.6459,1.6704,0.0,1.7293,1.6978,1.7942,1.9513,2.1755,2.2815,2.4064,2.5884,2.6015,2.6761,2.8635,2.8261,2.8906,3.1114,3.2602,3.3747,3.4481,3.4974,3.531,3.5496,3.5496,3.5496,3.5504,3.6244,3.6607,3.6622,3.7434,3.7675,3.7471,3.7471,3.7369,3.7115,3.6531,3.7072,3.82,3.7619,3.8746,4.0784,4.1412,4.1949,4.245,4.3085,4.3865,4.4719,4.5466,4.6194,4.6945,4.7684,4.8419,4.8994,4.8994,4.8994,4.8994,4.8994,4.8814,4.8386,4.7448,4.6566,4.6393,4.8104,4.6575,4.5631,4.8241,5.1329,5.3492,5.3492,5.3492,5.3492,5.3492,4.995,4.7309,4.7309,4.7309,4.7309,4.7309,4.7309,4.7309,4.7309,4.7309,4.7309,4.7309,4.7309,4.7309,4.7309,4.7309,4.7309,4.7309,4.7309,4.7309,4.7309,4.7309,4.7309,4.7309,4.7309,4.7309,2.0918,2.1011,2.0897,1.8738,1.8587,1.8544,1.6901,1.7364,1.7997,1.75,1.8198,1.8744,1.8255,1.8135,1.7953,0.0,0.0,0.0,0.0,1.7451,1.8548,1.9672,2.1525,2.3246,2.4545,2.2971,2.3226,2.6443,2.4881,2.5764,3.0291,3.059,3.1816,3.4421,3.4526,3.4839,3.5481,3.5496,3.5496,3.5504,3.6244,3.6607,3.6622,3.7434,3.7382,3.6646,3.6646,3.6235,3.5577,3.5553,3.6286,3.7439,3.7404,3.8746,4.0707,4.0733,4.1812,4.3268,4.3291,4.3865,4.4719,4.5466,4.6194,4.6945,4.7684,4.8419,4.8994,4.8994,4.8994,4.8994,4.8994,4.8338,4.763,4.7589,4.6384,4.5593,4.6876,4.8039,4.8682,4.8217,5.104,5.3492,5.3492,5.3492,5.3492,5.3492,4.995,4.7309,4.7309,4.7309,4.7309,4.7309,4.7309,4.7309,4.7309,4.7309,4.7309,4.7309,4.7309,4.7309,4.7309,4.7309,4.7309,4.7309,4.7309,4.7309,4.7309,4.7309,4.7309,4.7309,4.7309,4.7309,2.1326,2.1613,2.1574,1.9717,1.9403,1.9102,1.7469,1.7677,1.8053,1.7512,1.8242,1.8845,1.8298,1.8198,0.0,0.0,0.0,0.0,0.0,1.7165,1.8125,1.8932,2.0802,2.2213,2.2647,2.2089,2.2692,2.5109,2.4655,2.5534,2.8432,3.0224,3.1779,3.3133,3.4039,3.4817,3.5481,3.5496,3.5496,3.5504,3.6244,3.6873,3.739,3.7114,3.716,3.7345,3.6329,3.5726,3.5526,3.5976,3.6641,3.7441,3.7883,3.915,4.0707,4.0707,4.1445,4.252,4.3101,4.4199,4.5456,4.6194,4.6938,4.7675,4.8402,4.8791,4.8994,4.8994,4.8994,4.8861,4.8233,4.7836,4.7281,4.6046,4.5807,4.5978,4.641,4.7671,4.8659,4.8356,4.8901,4.9392,4.9392,4.9392,4.9392,4.9392,4.8198,4.7309,4.7309,4.7309,4.7309,4.7309,4.7309,4.7309,4.7309,4.7309,4.7309,4.7309,4.7309,4.7309,4.7309,4.7309,4.7309,4.7309,4.7309,4.7309,4.7309,4.7309,4.7309,4.7309,4.7309,4.7309,2.1839,2.2176,2.2225,2.0765,2.0552,2.0206,1.838,1.8694,1.9108,1.8154,1.8838,1.9553,1.9397,1.8888,1.8374,0.0,0.0,0.0,0.0,1.7562,1.8366,1.898,2.0203,2.0981,2.0981,2.0772,2.145,2.3414,2.3354,2.4391,2.7099,2.9071,3.0852,3.2452,3.3567,3.4585,3.5481,3.5496,3.5496,3.5504,3.6244,3.6866,3.736,3.6836,3.6881,3.7308,3.6053,3.5496,3.5541,3.6216,3.6859,3.7471,3.8146,3.9347,4.0707,4.0707,4.1453,4.2591,4.3456,4.4617,4.5814,4.6556,4.7302,4.7986,4.8374,4.8505,4.8425,4.8096,4.8007,4.786,4.7264,4.685,4.6374,4.5513,4.5498,4.5967,4.6897,4.7622,4.8216,4.8645,4.8059,4.7475,4.7321,4.7309,4.7309,4.7309,4.7309,4.7309,4.7309,4.7309,4.7309,4.7309,4.7309,4.7309,4.7309,4.7309,4.7309,4.7309,4.7309,4.7309,4.7309,4.7309,4.7309,4.7309,4.7309,4.7309,4.7309,4.7309,4.7309,4.7309,4.7309,4.7309]}]]